[[{"header":{"parameterUnit":"m.s-1","parameterCategory":1,"la1":31.0,"la2":29.5877,"lo1":-88.7671,"lo2":-86.6584,"dy":0.0162,"dx":0.0185,"nx":115,"ny":88,"refTime":"2024-09-17T06:00:00:Z","depth":0,"parameterNumber":2,"parameterNumberName":"U-component_of_WINDS"},"data":[0.0,0.0,0.0,0.0,0.0,0.0,0.0,0.0,0.0,0.0,0.0,0.0,0.0,0.0,0.0,0.0,0.0,0.0,0.0,0.0,0.0,0.0,0.0,0.0,0.0,0.0,0.0,0.0,0.0,0.0,0.0,0.0,0.0,0.0,0.0,0.0,0.0,0.0,0.0,0.0,0.0,0.0,0.0,0.0,0.0,0.0,0.0,0.0,0.0,0.0,0.0,0.0,0.0,0.0,0.0,0.0,0.0,0.0,0.0,0.0,0.0,0.0,0.0,0.0,0.0,0.0,0.0,0.0,0.0,0.0,0.0,0.0,0.0,0.0,0.0,0.0,0.0,0.0,0.0,0.0,0.0,0.0,0.0,0.0,0.0,0.0,0.0,0.0,0.0,0.0,0.0,0.0,0.0,0.0,0.0,0.0,0.0,0.0,0.0,0.0,0.0,0.0,0.0,0.0,0.0,0.0,0.0,0.0,0.0,0.0,0.0,0.0,0.0,0.0,0.0,0.0,0.0,0.0,0.0,0.0,0.0,0.0,0.0,0.0,0.0,0.0,0.0,0.0,0.0,0.0,0.0,0.0,0.0,0.0,0.0,0.0,0.0,0.0,0.0,0.0,0.0,0.0,0.0,0.0,0.0,0.0,0.0,0.0,0.0,0.0,0.0,0.0,0.0,0.0,0.0,0.0,0.0,0.0,0.0,0.0,0.0,0.0,0.0,0.0,0.0,0.0,0.0,0.0,0.0,0.0,0.0,0.0,0.0,0.0,0.0,0.0,0.0,0.0,0.0,0.0,0.0,0.0,0.0,0.0,0.0,0.0,0.0,0.0,0.0,0.0,0.0,0.0,0.0,0.0,0.0,0.0,0.0,0.0,0.0,0.0,0.0,0.0,0.0,0.0,0.0,0.0,0.0,0.0,0.0,0.0,0.0,0.0,0.0,0.0,0.0,0.0,0.0,0.0,0.0,0.0,0.0,0.0,0.0,0.0,0.0,0.0,0.0,0.0,0.0,0.0,0.0,0.0,0.0,0.0,0.0,0.0,0.0,0.0,0.0,0.0,0.0,0.0,0.0,0.0,0.0,0.0,0.0,0.0,0.0,0.0,0.0,0.0,0.0,0.0,0.0,0.0,0.0,0.0,0.0,0.0,0.0,0.0,0.0,0.0,0.0,0.0,0.0,0.0,0.0,0.0,0.0,0.0,0.0,0.0,0.0,0.0,0.0,0.0,0.0,0.0,0.0,0.0,0.0,0.0,0.0,0.0,0.0,0.0,0.0,0.0,0.0,0.0,0.0,0.0,0.0,0.0,0.0,0.0,0.0,0.0,0.0,0.0,0.0,0.0,0.0,0.0,0.0,0.0,0.0,0.0,0.0,0.0,0.0,0.0,0.0,0.0,0.0,0.0,0.0,0.0,0.0,0.0,0.0,0.0,0.0,0.0,0.0,0.0,0.0,0.0,0.0,0.0,0.0,0.0,0.0,0.0,0.0,0.0,0.0,0.0,0.0,0.0,0.0,0.0,0.0,0.0,0.0,0.0,0.0,0.0,0.0,0.0,0.0,0.0,0.0,0.0,0.0,0.0,0.0,0.0,0.0,0.0,0.0,0.0,0.0,0.0,0.0,0.0,0.0,0.0,0.0,0.0,0.0,0.0,0.0,0.0,0.0,0.0,0.0,0.0,0.0,0.0,0.0,0.0,0.0,0.0,0.0,0.0,0.0,0.0,0.0,0.0,0.0,0.0,0.0,0.0,0.0,0.0,0.0,0.0,0.0,0.0,0.0,0.0,0.0,0.0,0.0,0.0,0.0,0.0,0.0,0.0,0.0,0.0,0.0,0.0,0.0,0.0,0.0,0.0,0.0,0.0,0.0,0.0,0.0,0.0,0.0,0.0,0.0,0.0,0.0,0.0,0.0,0.0,0.0,0.0,0.0,0.0,0.0,0.0,0.0,0.0,0.0,0.0,0.0,0.0,0.0,0.0,0.0,0.0,0.0,0.0,0.0,0.0,0.0,0.0,0.0,0.0,0.0,0.0,0.0,0.0,0.0,0.0,0.0,0.0,0.0,0.0,0.0,0.0,0.0,0.0,0.0,0.0,0.0,0.0,0.0,0.0,0.0,0.0,0.0,0.0,0.0,0.0,0.0,0.0,0.0,0.0,0.0,0.0,0.0,0.0,0.0,0.0,0.0,0.0,0.0,0.0,0.0,0.0,0.0,0.0,0.0,0.0,0.0,0.0,0.0,0.0,0.0,0.0,0.0,0.0,0.0,0.0,0.0,0.0,0.0,0.0,0.0,0.0,0.0,0.0,0.0,0.0,0.0,0.0,0.0,0.0,0.0,0.0,0.0,0.0,0.0,0.0,0.0,0.0,0.0,0.0,0.0,0.0,0.0,0.0,0.0,0.0,0.0,0.0,0.0,0.0,0.0,0.0,0.0,0.0,0.0,0.0,0.0,0.0,0.0,0.0,0.0,0.0,0.0,0.0,0.0,0.0,0.0,0.0,0.0,0.0,0.0,0.0,0.0,0.0,0.0,0.0,0.0,0.0,0.0,0.0,0.0,0.0,0.0,0.0,0.0,0.0,0.0,0.0,0.0,0.0,0.0,0.0,0.0,0.0,0.0,0.0,0.0,0.0,0.0,0.0,0.0,0.0,0.0,0.0,0.0,0.0,0.0,0.0,0.0,0.0,0.0,0.0,0.0,0.0,0.0,0.0,0.0,0.0,0.0,0.0,0.0,0.0,0.0,0.0,0.0,0.0,0.0,0.0,0.0,0.0,0.0,0.0,0.0,0.0,0.0,0.0,0.0,0.0,0.0,0.0,0.0,0.0,0.0,0.0,0.0,0.0,0.0,0.0,0.0,0.0,0.0,0.0,0.0,0.0,0.0,0.0,0.0,0.0,0.0,0.0,0.0,0.0,0.0,0.0,0.0,0.0,0.0,0.0,0.0,0.0,0.0,0.0,0.0,0.0,0.0,0.0,0.0,0.0,0.0,0.0,0.0,0.0,0.0,0.0,0.0,0.0,0.0,0.0,0.0,0.0,0.0,0.0,0.0,0.0,0.0,0.0,0.0,0.0,0.0,0.0,0.0,0.0,0.0,0.0,0.0,0.0,0.0,0.0,0.0,0.0,0.0,0.0,0.0,0.0,0.0,0.0,0.0,0.0,0.0,0.0,0.0,0.0,0.0,0.0,0.0,0.0,0.0,0.0,0.0,0.0,0.0,0.0,0.0,0.0,0.0,0.0,0.0,0.0,0.0,0.0,0.0,0.0,0.0,0.0,0.0,0.0,0.0,0.0,0.0,0.0,0.0,0.0,0.0,0.0,0.0,0.0,0.0,0.0,0.0,0.0,0.0,0.0,0.0,0.0,0.0,0.0,0.0,0.0,0.0,0.0,0.0,0.0,0.0,0.0,0.0,0.0,0.0,0.0,0.0,0.0,0.0,0.0,0.0,0.0,0.0,0.0,0.0,0.0,0.0,0.0,0.0,0.0,0.0,0.0,0.0,0.0,0.0,0.0,0.0,0.0,0.0,0.0,0.0,0.0,0.0,0.0,0.0,0.0,0.0,0.0,0.0,0.0,0.0,0.0,0.0,0.0,0.0,0.0,0.0,0.0,0.0,0.0,0.0,0.0,0.0,0.0,0.0,0.0,0.0,0.0,0.0,0.0,0.0,0.0,0.0,0.0,0.0,0.0,0.0,0.0,0.0,0.0,0.0,0.0,0.0,0.0,0.0,0.0,0.0,0.0,0.0,0.0,0.0,0.0,0.0,0.0,0.0,0.0,0.0,0.0,0.0,0.0,0.0,0.0,0.0,0.0,0.0,0.0,0.0,0.0,0.0,0.0,0.0,0.0,0.0,0.0,0.0,0.0,0.0,0.0,0.0,0.0,0.0,0.0,0.0,0.0,0.0,0.0,0.0,0.0,0.0,0.0,0.0,0.0,0.0,0.0,0.0,0.0,0.0,0.0,0.0,0.0,0.0,0.0,0.0,0.0,0.0,0.0,0.0,0.0,0.0,0.0,0.0,0.0,0.0,0.0,0.0,0.0,0.0,0.0,0.0,0.0,0.0,0.0,0.0,0.0,0.0,0.0,0.0,0.0,0.0,0.0,0.0,0.0,0.0,0.0,0.0,0.0,0.0,0.0,0.0,0.0,0.0,0.0,0.0,0.0,0.0,0.0,0.0,0.0,0.0,0.0,0.0,0.0,0.0,0.0,0.0,0.0,0.0,0.0,0.0,0.0,0.0,0.0,0.0,0.0,0.0,0.0,-0.4985,0.0,0.0,0.0,0.0,0.0,0.0,0.0,0.0,0.0,0.0,0.0,0.0,0.0,0.0,0.0,0.0,0.0,0.0,0.0,0.0,0.0,0.0,0.0,0.0,0.0,0.0,0.0,0.0,0.0,0.0,0.0,0.0,0.0,0.0,0.0,0.0,0.0,0.0,0.0,0.0,0.0,0.0,0.0,0.0,0.0,0.0,0.0,0.0,0.0,0.0,0.0,0.0,0.0,0.0,0.0,0.0,0.0,0.0,0.0,0.0,0.0,0.0,0.0,0.0,0.0,0.0,0.0,0.0,0.0,0.0,0.0,0.0,0.0,0.0,0.0,0.0,0.0,0.0,0.0,0.0,0.0,0.0,0.0,0.0,0.0,0.0,0.0,0.0,0.0,0.0,0.0,0.0,0.0,0.0,0.0,0.0,0.0,0.0,0.0,0.0,0.0,0.0,0.0,0.0,0.0,0.0,0.0,0.0,0.0,0.0,-0.6455,-0.6154,-0.5406,-0.4852,-0.4501,0.0,0.0,0.0,0.0,0.0,0.0,0.0,0.0,0.0,0.0,0.0,0.0,0.0,0.0,0.0,0.0,0.0,0.0,0.0,0.0,0.0,0.0,0.0,0.0,0.0,0.0,0.0,0.0,0.0,0.0,0.0,0.0,0.0,0.0,0.0,0.0,0.0,0.0,0.0,0.0,0.0,0.0,0.0,0.0,0.0,0.0,0.0,0.0,0.0,0.0,0.0,0.0,0.0,0.0,0.0,0.0,0.0,0.0,0.0,0.0,0.0,0.0,0.0,0.0,0.0,0.0,0.0,0.0,0.0,0.0,0.0,0.0,0.0,0.0,0.0,0.0,0.0,0.0,0.0,0.0,0.0,0.0,0.0,0.0,0.0,0.0,0.0,0.0,0.0,0.0,0.0,0.0,0.0,0.0,0.0,0.0,0.0,0.0,0.0,0.0,0.0,0.0,0.0,0.0,0.0,0.0,0.0,0.0,0.0,0.0,0.0,0.0,-0.5463,-0.4846,-0.4145,0.0,0.0,0.0,0.0,0.0,0.0,0.0,0.0,0.0,0.0,0.0,0.0,0.0,0.0,0.0,0.0,0.0,0.0,0.0,0.0,0.0,0.0,0.0,0.0,0.0,0.0,0.0,0.0,0.0,0.0,0.0,0.0,0.0,0.0,0.0,0.0,0.0,0.0,0.0,0.0,0.0,0.0,0.0,0.0,0.0,0.0,0.0,0.0,0.0,0.0,0.0,0.0,0.0,0.0,0.0,0.0,0.0,0.0,0.0,0.0,0.0,0.0,0.0,0.0,0.0,0.0,0.0,0.0,0.0,0.0,0.0,0.0,0.0,0.0,0.0,0.0,0.0,0.0,0.0,0.0,0.0,0.0,0.0,0.0,0.0,0.0,0.0,0.0,0.0,0.0,0.0,0.0,0.0,0.0,0.0,0.0,0.0,0.0,0.0,0.0,0.0,0.0,0.0,0.0,0.0,0.0,0.0,0.0,0.0,0.0,-0.6574,-0.6518,-0.5995,0.0,-0.4218,0.0,0.0,0.0,0.0,0.0,0.0,0.0,0.0,0.0,0.0,0.0,0.0,0.0,0.0,0.0,0.0,0.0,0.0,0.0,0.0,0.0,0.0,0.0,0.0,0.0,0.0,0.0,0.0,0.0,0.0,0.0,0.0,0.0,0.0,0.0,0.0,0.0,0.0,0.0,0.0,0.0,0.0,0.0,0.0,0.0,0.0,0.0,0.0,0.0,0.0,0.0,0.0,0.0,0.0,0.0,0.0,0.0,0.0,0.0,0.0,0.0,0.0,0.0,0.0,0.0,0.0,0.0,0.0,0.0,0.0,0.0,0.0,0.0,0.0,0.0,0.0,0.0,0.0,0.0,0.0,0.0,0.0,0.0,0.0,0.0,0.0,0.0,0.0,0.0,0.0,0.0,0.0,0.0,0.0,0.0,0.0,0.0,0.0,0.0,0.0,0.0,0.0,0.0,0.0,0.0,0.0,0.0,0.0,0.0,0.0,-0.6436,-0.6145,-0.526,-0.4576,0.0,0.0,0.0,0.0,0.0,0.0,0.0,0.0,0.0,0.0,0.0,0.0,0.0,0.0,0.0,0.0,0.0,0.0,0.0,0.0,0.0,0.0,0.0,0.0,0.0,0.0,0.0,0.0,0.0,0.0,0.0,0.0,0.0,0.0,0.0,0.0,0.0,0.0,0.0,0.0,0.0,0.0,0.0,0.0,0.0,0.0,0.0,0.0,0.0,0.0,0.0,0.0,0.0,0.0,0.0,0.0,0.0,0.0,0.0,0.0,0.0,0.0,0.0,0.0,0.0,0.0,0.0,0.0,0.0,0.0,0.0,0.0,0.0,0.0,0.0,0.0,0.0,0.0,0.0,0.0,0.0,0.0,0.0,0.0,0.0,0.0,0.0,0.0,0.0,0.0,0.0,0.0,0.0,0.0,0.0,0.0,0.0,0.0,0.0,0.0,0.0,0.0,0.0,0.0,0.0,0.0,0.0,0.0,0.0,0.0,-0.6467,-0.6422,-0.6001,-0.4934,-0.4275,-0.4105,0.0,0.0,0.0,0.0,0.0,0.0,0.0,0.0,0.0,0.0,0.0,0.0,0.0,0.0,0.0,0.0,0.0,0.0,0.0,0.0,0.0,0.0,0.0,0.0,0.0,0.0,0.0,0.0,0.0,0.0,0.0,0.0,0.0,0.0,0.0,0.0,0.0,0.0,0.0,0.0,0.0,0.0,0.0,0.0,0.0,0.0,0.0,0.0,0.0,0.0,0.0,0.0,0.0,0.0,0.0,0.0,0.0,0.0,0.0,0.0,0.0,0.0,0.0,0.0,0.0,0.0,0.0,0.0,0.0,0.0,0.0,0.0,0.0,0.0,0.0,0.0,0.0,0.0,0.0,0.0,0.0,0.0,0.0,0.0,0.0,0.0,0.0,0.0,0.0,0.0,0.0,0.0,0.0,0.0,0.0,0.0,0.0,0.0,0.0,0.0,0.0,0.0,0.0,0.0,0.0,0.0,0.0,0.0,0.0,-0.6824,-0.658,-0.6524,-0.5519,-0.4701,0.0,0.0,0.0,0.0,0.0,0.0,0.0,0.0,0.0,0.0,0.0,0.0,0.0,0.0,0.0,0.0,0.0,0.0,0.0,0.0,0.0,0.0,0.0,0.0,0.0,0.0,0.0,0.0,0.0,0.0,0.0,0.0,0.0,0.0,0.0,0.0,0.0,0.0,0.0,0.0,0.0,0.0,0.0,0.0,0.0,0.0,0.0,0.0,0.0,0.0,0.0,0.0,0.0,0.0,0.0,0.0,0.0,0.0,0.0,0.0,0.0,0.0,0.0,0.0,0.0,0.0,0.0,0.0,0.0,0.0,0.0,0.0,0.0,0.0,0.0,0.0,0.0,0.0,0.0,0.0,0.0,0.0,0.0,0.0,0.0,0.0,0.0,0.0,0.0,0.0,0.0,0.0,0.0,0.0,0.0,0.0,0.0,0.0,0.0,0.0,0.0,0.0,0.0,0.0,0.0,0.0,0.0,0.0,0.0,-0.5227,-0.5482,-0.5894,-0.6511,-0.5178,-0.45,0.0,0.0,0.0,0.0,0.0,0.0,0.0,0.0,0.0,0.0,0.0,0.0,0.0,0.0,0.0,0.0,0.0,0.0,0.0,0.0,0.0,0.0,0.0,0.0,0.0,0.0,0.0,0.0,0.0,0.0,0.0,0.0,0.0,0.0,0.0,0.0,0.0,0.0,0.0,0.0,0.0,0.0,0.0,0.0,0.0,0.0,0.0,0.0,0.0,0.0,0.0,0.0,0.0,0.0,0.0,0.0,0.0,0.0,0.0,0.0,0.0,0.0,0.0,0.0,0.0,0.0,0.0,0.0,0.0,0.0,0.0,0.0,0.0,0.0,0.0,0.0,0.0,0.0,0.0,0.0,0.0,0.0,0.0,0.0,0.0,0.0,0.0,0.0,0.0,0.0,0.0,0.0,0.0,0.0,0.0,0.0,0.0,0.0,0.0,0.0,0.0,0.0,0.0,0.0,0.0,0.0,0.0,0.0,0.0,-0.4626,0.0,-0.5769,0.0,-0.5078,-0.4424,0.0,0.0,0.0,0.0,0.0,0.0,0.0,0.0,0.0,0.0,0.0,0.0,0.0,0.0,0.0,0.0,0.0,0.0,0.0,0.0,0.0,0.0,0.0,0.0,0.0,0.0,0.0,0.0,0.0,0.0,0.0,0.0,0.0,0.0,0.0,0.0,0.0,0.0,0.0,0.0,0.0,0.0,0.0,0.0,0.0,0.0,0.0,0.0,0.0,0.0,0.0,0.0,0.0,0.0,0.0,0.0,0.0,0.0,0.0,0.0,0.0,0.0,0.0,0.0,0.0,0.0,0.0,0.0,0.0,0.0,0.0,0.0,0.0,0.0,0.0,0.0,0.0,0.0,0.0,0.0,0.0,0.0,0.0,0.0,0.0,0.0,0.0,0.0,0.0,0.0,0.0,0.0,0.0,0.0,0.0,0.0,0.0,0.0,0.0,0.0,0.0,0.0,0.0,0.0,0.0,0.0,0.0,0.0,-0.4124,-0.5679,-0.6258,-0.6261,-0.5819,-0.5268,-0.448,0.0,0.0,0.0,0.0,0.0,0.0,0.0,0.0,0.0,0.0,0.0,0.0,0.0,0.0,0.0,0.0,0.0,0.0,0.0,0.0,0.0,0.0,0.0,0.0,0.0,0.0,0.0,0.0,0.0,0.0,0.0,0.0,0.0,0.0,0.0,0.0,0.0,0.0,0.0,0.0,0.0,0.0,0.0,0.0,0.0,0.0,0.0,0.0,0.0,0.0,0.0,0.0,0.0,0.0,0.0,0.0,0.0,0.0,0.0,0.0,0.0,0.0,0.0,0.0,0.0,0.0,0.0,0.0,0.0,0.0,0.0,0.0,0.0,0.0,0.0,0.0,0.0,0.0,0.0,0.0,0.0,0.0,0.0,0.0,0.0,0.0,0.0,0.0,0.0,0.0,0.0,0.0,0.0,0.0,0.0,0.0,0.0,0.0,0.0,0.0,0.0,0.0,0.0,0.0,0.0,0.0,0.0,0.0,0.0,-0.4701,-0.5218,-0.5696,-0.6044,-0.5386,-0.4971,0.0,0.0,0.0,0.0,0.0,0.0,0.0,0.0,0.0,0.0,0.0,0.0,0.0,0.0,0.0,0.0,0.0,0.0,0.0,0.0,0.0,0.0,0.0,0.0,0.0,0.0,0.0,0.0,0.0,0.0,0.0,0.0,0.0,0.0,0.0,0.0,0.0,0.0,0.0,0.0,0.0,0.0,0.0,0.0,0.0,0.0,0.0,0.0,0.0,0.0,0.0,0.0,0.0,0.0,0.0,0.0,0.0,0.0,0.0,0.0,0.0,0.0,0.0,0.0,0.0,0.0,0.0,0.0,0.0,0.0,0.0,0.0,0.0,0.0,0.0,0.0,0.0,0.0,0.0,0.0,0.0,0.0,0.0,0.0,0.0,0.0,0.0,0.0,0.0,0.0,0.0,0.0,0.0,0.0,0.0,0.0,0.0,0.0,0.0,0.0,0.0,0.0,0.0,0.0,0.0,0.0,0.0,0.0,0.0,-0.5183,-0.5628,-0.6022,-0.6341,-0.5758,-0.5287,-0.4958,0.0,0.0,0.0,0.0,0.0,0.0,0.0,0.0,0.0,0.0,0.0,0.0,0.0,0.0,0.0,0.0,0.0,0.0,0.0,0.0,0.0,0.0,0.0,0.0,0.0,0.0,0.0,0.0,0.0,0.0,0.0,0.0,0.0,0.0,0.0,0.0,0.0,0.0,0.0,0.0,0.0,0.0,0.0,0.0,0.0,0.0,0.0,0.0,0.0,0.0,0.0,0.0,0.0,0.0,0.0,0.0,0.0,0.0,0.0,0.0,0.0,0.0,0.0,0.0,0.0,0.0,0.0,0.0,0.0,0.0,0.0,0.0,0.0,0.0,0.0,0.0,0.0,0.0,0.0,0.0,0.0,0.0,0.0,0.0,0.0,0.0,0.0,0.0,0.0,0.0,0.0,0.0,0.0,0.0,0.0,0.0,0.0,0.0,0.0,0.0,0.0,0.0,0.0,0.0,0.0,0.0,0.0,0.0,-0.6737,-0.7191,-0.7206,-0.6757,-0.6415,-0.557,0.0,0.0,0.0,0.0,0.0,0.0,0.0,0.0,0.0,0.0,0.0,0.0,0.0,0.0,0.0,0.0,0.0,0.0,0.0,0.0,0.0,0.0,0.0,0.0,0.0,0.0,0.0,0.0,0.0,0.0,0.0,0.0,0.0,0.0,0.0,0.0,0.0,0.0,0.0,0.0,0.0,0.0,0.0,0.0,0.0,0.0,0.0,0.0,0.0,0.0,0.0,0.0,0.0,0.0,0.0,0.0,0.0,0.0,0.0,0.0,0.0,0.0,0.0,0.0,0.0,0.0,0.0,0.0,0.0,0.0,0.0,0.0,0.0,0.0,0.0,0.0,0.0,0.0,0.0,0.0,0.0,0.0,0.0,0.0,0.0,0.0,0.0,0.0,0.0,0.0,0.0,0.0,0.0,0.0,0.0,0.0,0.0,0.0,0.0,0.0,0.0,0.0,0.0,0.0,0.0,0.0,0.0,0.0,0.0,-0.7114,-0.7605,-0.7947,-0.8118,-0.7305,-0.6635,0.0,0.0,0.0,0.0,0.0,0.0,0.0,0.0,0.0,0.0,0.0,0.0,0.0,0.0,0.0,0.0,0.0,0.0,0.0,0.0,0.0,0.0,0.0,0.0,0.0,0.0,0.0,0.0,0.0,0.0,0.0,0.0,0.0,0.0,0.0,0.0,0.0,0.0,0.0,0.0,0.0,0.0,0.0,0.0,0.0,0.0,0.0,0.0,0.0,0.0,0.0,0.0,0.0,0.0,0.0,0.0,0.0,0.0,0.0,0.0,0.0,0.0,0.0,0.0,0.0,0.0,0.0,0.0,0.0,0.0,0.0,0.0,0.0,0.0,0.0,0.0,0.0,0.0,0.0,0.0,0.0,0.0,0.0,0.0,0.0,0.0,0.0,0.0,0.0,0.0,0.0,0.0,0.0,0.0,0.0,0.0,0.0,0.0,0.0,0.0,0.0,0.0,0.0,0.0,0.0,0.0,0.0,0.0,-0.6966,-0.7843,-0.8162,-0.8565,-0.9027,-0.7915,-0.6989,0.0,0.0,0.0,0.0,0.0,0.0,0.0,0.0,0.0,0.0,0.0,0.0,0.0,0.0,0.0,0.0,0.0,0.0,0.0,0.0,0.0,0.0,0.0,0.0,0.0,0.0,0.0,0.0,0.0,0.0,0.0,0.0,0.0,0.0,0.0,0.0,0.0,0.0,0.0,0.0,0.0,0.0,0.0,0.0,0.0,0.0,0.0,0.0,0.0,0.0,0.0,0.0,0.0,0.0,0.0,0.0,0.0,0.0,0.0,0.0,0.0,0.0,0.0,0.0,0.0,0.0,0.0,0.0,0.0,0.0,0.0,0.0,0.0,0.0,0.0,0.0,0.0,0.0,0.0,0.0,0.0,0.0,0.0,0.0,0.0,0.0,0.0,0.0,0.0,0.0,0.0,0.0,0.0,0.0,0.0,0.0,0.0,0.0,0.0,0.0,0.0,0.0,0.0,0.0,0.0,0.0,0.0,0.0,-0.7494,-0.8502,-0.8695,-0.8965,-0.9303,-0.8187,-0.6937,0.0,0.0,0.0,0.0,0.0,0.0,0.0,0.0,0.0,0.0,0.0,0.0,0.0,0.0,0.0,0.0,0.0,0.0,0.0,0.0,0.0,0.0,0.0,0.0,0.0,0.0,0.0,0.0,0.0,0.0,0.0,0.0,0.0,0.0,0.0,0.0,0.0,0.0,0.0,0.0,0.0,0.0,0.0,0.0,0.0,0.0,0.0,0.0,0.0,0.0,0.0,0.0,0.0,0.0,0.0,0.0,0.0,0.0,0.0,0.0,0.0,0.0,0.0,0.0,0.0,0.0,0.0,0.0,0.0,0.0,0.0,0.0,0.0,0.0,0.0,0.0,0.0,0.0,0.0,0.0,0.0,0.0,0.0,0.0,0.0,0.0,0.0,0.0,0.0,0.0,0.0,0.0,0.0,0.0,0.0,0.0,0.0,0.0,0.0,0.0,0.0,0.0,0.0,0.0,0.0,0.0,0.0,0.0,-0.7436,-0.8179,-0.8399,-0.8515,-0.8642,-0.7655,-0.6987,0.0,0.0,0.0,0.0,0.0,0.0,0.0,0.0,0.0,0.0,0.0,0.0,0.0,0.0,0.0,0.0,0.0,0.0,0.0,0.0,0.0,0.0,0.0,0.0,0.0,0.0,0.0,0.0,0.0,0.0,0.0,0.0,0.0,0.0,0.0,0.0,0.0,0.0,0.0,0.0,0.0,0.0,0.0,0.0,0.0,0.0,0.0,0.0,-0.3176,0.0,0.0,0.0,0.0,0.0,0.0,0.0,0.0,0.0,0.0,0.0,0.0,0.0,0.0,0.0,0.0,0.0,0.0,0.0,0.0,0.0,0.0,0.0,0.0,0.0,0.0,0.0,0.0,0.0,0.0,0.0,0.0,0.0,0.0,0.0,0.0,0.0,0.0,0.0,0.0,0.0,0.0,0.0,0.0,0.0,0.0,0.0,0.0,0.0,0.0,0.0,0.0,0.0,0.0,0.0,0.0,0.0,0.0,0.0,-0.7254,-0.8194,-0.8143,-0.8164,-0.8362,-0.7507,-0.6945,0.0,0.0,0.0,0.0,0.0,0.0,0.0,0.0,0.0,0.0,0.0,0.0,0.0,0.0,0.0,0.0,0.0,0.0,0.0,0.0,0.0,0.0,0.0,0.0,0.0,0.0,0.0,0.0,0.0,0.0,0.0,0.0,0.0,0.0,0.0,0.0,0.0,0.0,0.0,0.0,0.0,0.0,0.0,0.0,0.0,0.0,0.0,0.0,0.0,0.0,0.0,0.0,0.0,0.0,0.0,0.0,0.0,0.0,0.0,0.0,0.0,0.0,0.0,0.0,0.0,0.0,0.0,0.0,0.0,0.0,0.0,0.0,0.0,0.0,0.0,0.0,0.0,0.0,0.0,0.0,0.0,0.0,0.0,0.0,0.0,0.0,0.0,0.0,0.0,0.0,0.0,0.0,0.0,0.0,0.0,0.0,0.0,0.0,0.0,0.0,0.0,0.0,0.0,0.0,0.0,0.0,0.0,-0.6294,-0.7119,-0.8327,-0.8013,-0.8008,-0.8386,-0.7544,-0.6885,-0.6406,0.0,0.0,0.0,0.0,0.0,0.0,0.0,0.0,0.0,0.0,0.0,0.0,0.0,0.0,0.0,0.0,0.0,0.0,0.0,0.0,0.0,0.0,0.0,0.0,0.0,0.0,0.0,0.0,0.0,0.0,0.0,0.0,0.0,0.0,0.0,0.0,0.0,0.0,-0.3096,-0.3426,0.0,0.0,0.0,0.0,0.0,0.0,0.0,0.0,-0.3532,0.0,0.0,0.0,0.0,0.0,0.0,0.0,0.0,0.0,0.0,0.0,0.0,0.0,0.0,0.0,0.0,0.0,0.0,0.0,0.0,0.0,0.0,0.0,0.0,0.0,0.0,0.0,0.0,0.0,0.0,0.0,0.0,0.0,0.0,0.0,0.0,0.0,0.0,0.0,0.0,0.0,0.0,0.0,0.0,0.0,0.0,0.0,0.0,0.0,0.0,0.0,0.0,0.0,0.0,0.0,0.0,-0.6279,-0.6753,-0.7446,-0.8345,-0.8306,-0.8337,-0.8381,-0.7549,-0.6885,-0.6396,0.0,0.0,0.0,0.0,0.0,0.0,0.0,0.0,0.0,0.0,0.0,0.0,0.0,0.0,0.0,0.0,0.0,0.0,0.0,0.0,0.0,0.0,0.0,0.0,0.0,0.0,0.0,0.0,0.0,0.0,0.0,0.0,0.0,0.0,0.0,0.0,0.0,0.0,0.0,-0.3898,-0.4078,0.0,0.0,0.0,0.0,0.0,0.0,0.0,0.0,-0.3589,0.0,0.0,0.0,0.0,0.0,0.0,0.0,0.0,0.0,0.0,0.0,0.0,0.0,0.0,0.0,0.0,0.0,0.0,0.0,0.0,0.0,0.0,0.0,0.0,0.0,0.0,0.0,0.0,0.0,0.0,0.0,0.0,0.0,0.0,0.0,0.0,0.0,0.0,0.0,0.0,0.0,0.0,0.0,0.0,0.0,0.0,0.0,0.0,0.0,0.0,0.0,0.0,0.0,0.0,0.0,-0.6122,-0.6551,-0.7158,-0.8003,-0.8042,-0.8042,-0.8032,-0.7432,-0.6828,0.0,0.0,0.0,0.0,0.0,0.0,0.0,0.0,0.0,0.0,0.0,0.0,0.0,0.0,0.0,0.0,0.0,0.0,0.0,0.0,0.0,0.0,0.0,0.0,0.0,0.0,0.0,0.0,0.0,0.0,0.0,0.0,0.0,0.0,0.0,0.0,0.0,0.0,0.0,0.0,-0.4001,-0.4132,-0.3998,0.0,0.0,0.0,0.0,0.0,0.0,-0.3754,-0.3754,0.0,0.0,0.0,0.0,0.0,0.0,0.0,0.0,0.0,0.0,0.0,0.0,0.0,0.0,0.0,0.0,0.0,0.0,0.0,0.0,0.0,0.0,0.0,0.0,0.0,0.0,0.0,0.0,0.0,0.0,0.0,0.0,0.0,0.0,0.0,0.0,0.0,0.0,0.0,0.0,0.0,0.0,0.0,0.0,0.0,0.0,0.0,0.0,0.0,0.0,0.0,0.0,0.0,0.0,0.0,-0.5942,-0.6256,-0.6841,-0.7647,-0.7695,-0.7695,-0.7686,-0.7204,-0.6654,0.0,0.0,0.0,0.0,0.0,0.0,0.0,0.0,0.0,0.0,0.0,0.0,0.0,0.0,0.0,0.0,0.0,0.0,0.0,0.0,0.0,0.0,0.0,0.0,0.0,0.0,0.0,0.0,0.0,0.0,0.0,0.0,0.0,0.0,0.0,0.0,0.0,0.0,0.0,0.0,0.0,-0.4162,-0.4218,-0.4103,0.0,0.0,0.0,0.0,-0.3785,-0.4041,0.0,0.0,0.0,0.0,0.0,0.0,0.0,0.0,0.0,0.0,0.0,0.0,0.0,0.0,0.0,0.0,0.0,0.0,0.0,0.0,0.0,0.0,0.0,0.0,0.0,0.0,0.0,0.0,0.0,0.0,0.0,0.0,0.0,0.0,0.0,0.0,0.0,0.0,0.0,0.0,0.0,0.0,0.0,0.0,0.0,0.0,0.0,0.0,0.0,0.0,0.0,0.0,0.0,0.0,0.0,0.0,-0.5933,-0.626,-0.681,-0.7642,-0.7695,-0.7695,-0.7686,-0.6919,-0.6333,0.0,0.0,0.0,0.0,0.0,0.0,0.0,0.0,0.0,0.0,0.0,0.0,0.0,0.0,0.0,0.0,0.0,0.0,0.0,0.0,0.0,0.0,0.0,0.0,0.0,0.0,0.0,0.0,0.0,0.0,0.0,0.0,0.0,0.0,0.0,0.0,0.0,0.0,0.0,0.0,0.0,-0.4439,-0.3708,-0.3928,-0.4165,0.0,0.0,-0.4296,-0.4602,-0.4937,0.0,0.0,0.0,0.0,0.0,0.0,0.0,0.0,0.0,0.0,0.0,0.0,0.0,0.0,0.0,0.0,0.0,0.0,0.0,0.0,0.0,0.0,0.0,0.0,0.0,0.0,0.0,0.0,0.0,0.0,0.0,0.0,0.0,0.0,0.0,0.0,0.0,0.0,0.0,0.0,0.0,0.0,0.0,0.0,0.0,0.0,0.0,0.0,0.0,0.0,0.0,0.0,0.0,0.0,0.0,-0.431,-0.5746,-0.6187,-0.6831,-0.7656,-0.7695,-0.7579,-0.7373,-0.6738,-0.6098,0.0,0.0,0.0,0.0,0.0,0.0,0.0,0.0,0.0,0.0,0.0,0.0,0.0,0.0,0.0,0.0,0.0,0.0,0.0,0.0,0.0,0.0,0.0,0.0,0.0,0.0,0.0,0.0,0.0,0.0,0.0,0.0,0.0,0.0,0.0,0.0,0.0,0.0,0.0,0.0,0.0,0.0,-0.4065,-0.4252,0.0,0.0,0.0,-0.459,-0.4992,0.0,0.0,0.0,0.0,0.0,0.0,0.0,0.0,0.0,0.0,0.0,0.0,0.0,0.0,0.0,0.0,0.0,0.0,0.0,0.0,0.0,0.0,0.0,0.0,0.0,0.0,0.0,0.0,0.0,0.0,0.0,0.0,0.0,0.0,0.0,0.0,0.0,0.0,0.0,0.0,0.0,0.0,0.0,0.0,0.0,0.0,0.0,0.0,0.0,0.0,0.0,0.0,0.0,0.0,0.0,0.0,0.0,-0.5565,-0.6129,-0.68,-0.7656,-0.7622,-0.7394,-0.7104,-0.6553,0.0,0.0,0.0,0.0,0.0,0.0,0.0,0.0,0.0,0.0,0.0,0.0,0.0,0.0,0.0,0.0,0.0,0.0,0.0,0.0,0.0,0.0,0.0,0.0,0.0,0.0,0.0,-0.1881,0.0,0.0,0.0,0.0,0.0,0.0,0.0,0.0,0.0,0.0,0.0,0.0,0.0,0.0,-0.4759,-0.465,-0.4737,-0.4879,0.0,0.0,-0.5043,-0.5339,-0.5551,-0.5302,0.0,0.0,0.0,0.0,0.0,0.0,0.0,0.0,0.0,0.0,0.0,0.0,0.0,0.0,0.0,0.0,0.0,0.0,0.0,0.0,0.0,0.0,0.0,0.0,0.0,0.0,0.0,0.0,0.0,0.0,0.0,0.0,0.0,0.0,0.0,0.0,0.0,0.0,0.0,0.0,0.0,0.0,0.0,0.0,0.0,0.0,0.0,0.0,0.0,0.0,0.0,0.0,0.0,0.0,0.0,-0.5569,-0.6129,-0.681,-0.7647,-0.7339,-0.7129,-0.709,-0.6288,-0.558,0.0,0.0,0.0,0.0,0.0,0.0,0.0,0.0,0.0,0.0,0.0,0.0,0.0,0.0,0.0,0.0,0.0,0.0,0.0,0.0,0.0,0.0,0.0,0.0,0.0,0.0,0.0,0.0,0.0,0.0,0.0,0.0,0.0,0.0,0.0,0.0,0.0,0.0,0.0,0.0,0.0,-0.4887,-0.5206,-0.5361,-0.5319,0.0,0.0,-0.5768,-0.5696,-0.6139,-0.5838,-0.3884,0.0,0.0,0.0,0.0,0.0,0.0,0.0,0.0,0.0,0.0,0.0,0.0,0.0,0.0,0.0,0.0,0.0,0.0,0.0,0.0,0.0,0.0,0.0,0.0,0.0,0.0,0.0,0.0,0.0,0.0,0.0,0.0,0.0,0.0,0.0,0.0,0.0,0.0,0.0,0.0,0.0,0.0,0.0,0.0,0.0,0.0,0.0,0.0,0.0,0.0,0.0,0.0,0.0,-0.4196,-0.5578,-0.6133,-0.6831,-0.7642,-0.7292,-0.6958,-0.668,-0.6089,-0.5473,0.0,0.0,0.0,0.0,0.0,0.0,0.0,0.0,0.0,0.0,0.0,0.0,0.0,0.0,0.0,0.0,0.0,0.0,0.0,0.0,0.0,0.0,0.0,0.0,0.0,0.0,0.0,0.0,-0.2392,-0.2273,-0.1858,0.0,0.0,0.0,0.0,0.0,0.0,0.0,0.0,0.0,0.0,-0.5392,-0.5474,-0.5634,0.0,0.0,-0.6021,-0.6052,-0.6448,-0.6406,-0.5894,-0.4516,-0.4279,0.0,0.0,0.0,0.0,0.0,0.0,0.0,0.0,0.0,0.0,0.0,0.0,0.0,0.0,0.0,0.0,0.0,0.0,0.0,0.0,0.0,0.0,0.0,0.0,0.0,0.0,0.0,0.0,0.0,0.0,0.0,0.0,0.0,0.0,0.0,0.0,0.0,0.0,0.0,0.0,0.0,0.0,0.0,0.0,0.0,0.0,0.0,0.0,0.0,0.0,0.0,0.0,-0.4201,-0.5582,-0.6124,-0.6831,-0.7676,-0.7183,-0.6738,-0.6382,-0.5874,-0.5311,0.0,0.0,0.0,0.0,0.0,0.0,0.0,0.0,0.0,0.0,0.0,0.0,0.0,0.0,0.0,0.0,0.0,0.0,0.0,0.0,0.0,0.0,0.0,0.0,0.0,0.0,0.0,0.0,-0.2301,-0.218,-0.1968,0.0,0.0,0.0,0.0,0.0,0.0,0.0,0.0,0.0,0.0,-0.5848,-0.5892,-0.6083,-0.6334,-0.6648,-0.6308,-0.6075,-0.6253,-0.6138,-0.5696,-0.4648,0.0,0.0,0.0,0.0,0.0,0.0,0.0,0.0,0.0,0.0,0.0,0.0,0.0,0.0,0.0,0.0,0.0,0.0,0.0,0.0,0.0,0.0,0.0,0.0,0.0,0.0,0.0,-0.321,0.0,0.0,-0.2642,0.0,0.0,0.0,0.0,0.0,0.0,0.0,0.0,0.0,0.0,0.0,0.0,0.0,0.0,0.0,0.0,0.0,0.0,0.0,0.0,0.0,0.0,-0.4205,-0.5582,-0.6133,-0.6805,-0.7647,-0.687,-0.6431,-0.6392,-0.557,-0.4981,-0.4697,0.0,0.0,0.0,0.0,0.0,0.0,0.0,0.0,0.0,0.0,0.0,0.0,0.0,0.0,0.0,0.0,0.0,0.0,0.0,0.0,0.0,0.0,0.0,0.0,0.0,0.0,-0.1865,-0.1654,-0.1615,0.0,0.0,0.0,0.0,0.0,0.0,0.0,0.0,0.0,0.0,-0.5775,-0.626,-0.6433,-0.6774,-0.6706,-0.6073,-0.6118,-0.5872,-0.4893,-0.5306,-0.5288,0.0,0.0,0.0,0.0,0.0,0.0,0.0,0.0,0.0,0.0,0.0,0.0,0.0,0.0,0.0,0.0,0.0,0.0,0.0,0.0,0.0,0.0,0.0,0.0,0.0,0.0,0.0,-0.4886,-0.4672,0.0,0.0,0.0,0.0,0.0,0.0,0.0,0.0,0.0,0.0,0.0,-0.6706,-0.6635,0.0,0.0,0.0,0.0,0.0,0.0,0.0,0.0,0.0,0.0,0.0,0.0,-0.446,-0.5815,-0.6207,-0.6841,-0.7652,-0.6839,-0.6411,-0.6396,-0.5576,-0.4896,-0.4447,0.0,0.0,0.0,0.0,0.0,0.0,0.0,0.0,0.0,0.0,0.0,0.0,0.0,0.0,0.0,0.0,0.0,0.0,0.0,0.0,0.0,0.0,0.0,0.0,0.0,-0.2349,0.0,0.0,0.0,0.0,0.0,0.0,0.0,0.0,0.0,0.0,0.0,-0.4875,-0.5491,-0.6084,-0.654,-0.6794,-0.6934,-0.6891,0.0,0.0,0.0,0.0,0.0,0.0,0.0,0.0,0.0,0.0,0.0,0.0,0.0,0.0,-0.5911,-0.4308,-0.3843,-0.3601,-0.3341,0.0,0.0,0.0,0.0,0.0,0.0,0.0,0.0,0.0,0.0,0.0,0.0,0.0,0.0,-0.5971,0.0,-0.5738,0.0,0.0,0.0,0.0,0.0,0.0,0.0,0.0,-0.6736,-0.7179,-0.7719,-0.7398,-0.7163,0.0,-0.6467,-0.5686,0.0,0.0,0.0,0.0,0.0,0.0,0.0,0.0,-0.482,-0.5955,-0.6438,-0.6971,-0.7632,-0.7021,-0.6577,-0.6377,-0.5555,-0.4943,-0.4578,-0.4483,-0.4311,0.0,0.0,0.0,0.0,0.0,0.0,0.0,0.0,0.0,0.0,0.0,0.0,0.0,0.0,0.0,0.0,0.0,0.0,0.0,0.0,0.0,0.0,0.0,-0.2593,0.0,0.0,0.0,0.0,0.0,0.0,0.0,0.0,0.0,-0.4997,-0.5106,-0.5364,-0.5951,-0.6435,-0.6807,-0.6955,0.0,0.0,0.0,0.0,0.0,0.0,0.0,-0.6222,-0.5824,-0.5773,-0.5618,-0.521,-0.5766,-0.6203,-0.5948,0.0,0.0,-0.515,-0.4731,-0.4486,-0.4266,-0.4326,-0.4471,-0.4494,-0.4802,-0.5009,0.0,0.0,0.0,0.0,0.0,0.0,0.0,0.0,-0.7262,-0.7101,0.0,-0.6455,0.0,0.0,0.0,0.0,0.0,-0.6533,0.0,0.0,-0.8673,-0.9089,-0.9041,-0.8189,-0.7894,-0.8156,-0.7665,-0.7057,-0.6329,-0.4919,0.0,0.0,0.0,0.0,0.0,0.0,-0.53,-0.6049,-0.673,-0.7272,-0.7666,-0.7319,-0.686,-0.6382,-0.554,-0.5088,-0.5083,-0.4854,-0.4597,-0.4316,-0.3811,0.0,0.0,0.0,0.0,0.0,0.0,0.0,0.0,0.0,0.0,0.0,0.0,0.0,0.0,0.0,0.0,0.0,0.0,0.0,0.0,-0.2496,0.0,0.0,0.0,0.0,0.0,0.0,0.0,0.0,0.0,0.0,-0.4763,-0.5297,-0.5952,-0.6526,0.0,0.0,0.0,0.0,-0.6833,-0.6343,-0.6461,-0.6433,-0.5747,-0.6207,-0.6475,-0.6069,0.0,0.0,-0.632,-0.665,-0.6837,-0.6334,-0.6657,-0.6934,-0.663,-0.6075,-0.5671,-0.5498,-0.5382,-0.5378,-0.5526,-0.5841,-0.6132,-0.9923,0.0,0.0,0.0,0.0,-0.8422,-0.8651,-0.8965,-0.8893,-0.8746,-0.8459,-0.831,0.0,0.0,0.0,0.0,0.0,0.0,-0.773,-0.8447,-0.8712,-0.8991,-0.9305,-0.9046,-0.8685,-0.8284,-0.8119,-0.7633,-0.6899,-0.6464,-0.5639,-0.4521,0.0,0.0,0.0,0.0,-0.6059,-0.6766,-0.6983,-0.7272,-0.7686,-0.7314,-0.6733,-0.6009,-0.5404,-0.5093,-0.5093,-0.503,-0.4856,-0.4582,-0.4257,0.0,0.0,0.0,0.0,0.0,0.0,0.0,0.0,0.0,0.0,0.0,0.0,0.0,0.0,0.0,0.0,0.0,0.0,0.0,-0.2839,-0.2832,-0.2922,0.0,0.0,0.0,0.0,0.0,0.0,0.0,0.0,0.0,-0.5174,-0.5857,-0.6476,0.0,0.0,-0.7104,-0.7305,-0.7341,-0.7374,-0.7413,-0.7463,0.0,-0.726,-0.7231,-0.7257,-0.7309,-0.7342,-0.7211,-0.6837,-0.6907,-0.6967,-0.679,-0.6869,-0.6952,-0.6907,-0.662,-0.6284,-0.6063,-0.613,-0.6238,-0.6291,-0.6537,-0.675,-1.2223,-1.0959,-1.0278,-1.0038,-1.0114,-1.0084,-1.0222,-1.0409,-1.0166,-1.0065,-1.007,-0.9623,-0.9143,-0.8685,-0.8366,0.0,0.0,0.0,-0.9082,-0.9845,-0.9852,-0.9806,-0.9706,-0.9534,-0.9069,-0.8319,-0.8153,-0.7821,-0.7321,-0.7349,-0.6813,-0.5807,0.0,0.0,-0.5535,-0.6136,-0.6666,-0.7068,-0.7266,-0.7476,-0.7691,-0.7314,-0.6753,-0.606,-0.561,-0.5288,-0.5098,-0.5093,-0.5035,-0.4844,-0.4486,-0.4264,0.0,0.0,0.0,0.0,0.0,0.0,0.0,0.0,0.0,0.0,0.0,-0.2214,-0.2021,0.0,0.0,0.0,-0.2719,-0.337,-0.3457,-0.3473,0.0,0.0,0.0,0.0,0.0,0.0,0.0,-0.3757,-0.5081,-0.6055,-0.6003,-0.656,-0.7001,-0.7174,-0.7301,-0.7448,-0.7629,0.0,-0.7715,-0.7858,-0.8029,-0.809,-0.8001,-0.7926,-0.7852,-0.7913,-0.7779,-0.7548,-0.7255,-0.7194,-0.7158,-0.7054,-0.6975,-0.6975,-0.6975,-0.6874,-0.6713,-0.654,-0.6637,-0.6754,-0.676,-0.6904,-0.6975,-1.3967,-1.3819,-1.2241,-1.163,-1.1679,-1.1622,-1.1668,-1.1733,-1.1144,-1.1149,-1.153,-1.0489,-1.0037,-1.0006,-0.9267,0.0,-1.0509,-1.0509,-1.0876,-1.1581,-1.1581,-1.1164,-1.0312,-0.9944,-0.9294,-0.8458,-0.8087,-0.7832,-0.7749,-0.7754,-0.7568,-0.7153,-0.6724,-0.6499,-0.6494,-0.6893,-0.7158,-0.7148,-0.7506,-0.7695,-0.7691,-0.7292,-0.688,-0.6392,-0.6029,-0.5571,-0.5132,-0.5093,-0.5093,-0.5093,-0.4626,-0.4571,-0.4967,0.0,0.0,0.0,0.0,0.0,0.0,0.0,0.0,0.0,0.0,0.0,0.0,0.0,0.0,0.0,-0.3363,0.0,-0.4056,-0.4265,0.0,0.0,0.0,-0.4792,-0.4567,-0.5268,-0.5532,-0.4894,0.0,0.0,-0.7054,-0.7355,-0.758,-0.7584,-0.7762,-0.7888,-0.7915,-0.7963,-0.7969,-0.8026,-0.8237,-0.8373,-0.831,-0.8337,-0.829,-0.8039,-0.7966,-0.7856,-0.7572,-0.75,-0.7351,-0.7128,-0.7002,-0.6975,-0.6975,-0.7004,-0.6975,-0.6994,-0.6959,-0.6965,-0.6959,-0.6969,-0.6975,-1.5334,-1.5276,-1.4879,-1.4146,-1.3265,-1.3245,-1.2946,-1.2458,-1.2286,-1.1992,-1.1569,-1.1305,-1.1186,-1.1173,-1.099,-1.1084,-1.1328,-1.1298,-1.1396,-1.1581,-1.1581,-1.1489,-1.1262,-1.1166,-1.0664,-0.9866,-0.9724,-0.9177,-0.8263,-0.8228,-0.7998,-0.7564,-0.7438,-0.7219,-0.6963,-0.734,-0.7554,-0.7549,-0.7647,-0.7695,-0.7686,-0.7287,-0.6885,-0.6421,-0.6029,-0.5571,-0.5108,-0.5093,-0.5093,-0.5093,-0.4971,-0.477,-0.4507,-0.3949,0.0,0.0,0.0,0.0,0.0,0.0,0.0,0.0,0.0,-0.2746,-0.2326,0.0,-0.2725,0.0,-0.3387,-0.4375,-0.4309,-0.4535,0.0,0.0,-0.5327,-0.5561,-0.5742,-0.6125,-0.6269,-0.5878,-0.668,-0.7368,-0.7629,-0.7973,-0.8212,-0.8205,-0.8029,-0.8009,-0.8227,-0.8267,-0.8347,-0.8547,-0.8641,-0.8694,-0.8661,-0.8684,-0.8597,-0.832,-0.8273,-0.8166,-0.7876,-0.7615,-0.7479,-0.7402,-0.7164,-0.6995,-0.6975,-0.6975,-0.6975,-0.6975,-0.6975,-0.6975,-0.6975,-0.6975,-0.6975,-1.5814,-1.5814,-1.5814,-1.5364,-1.4677,-1.448,-1.4154,-1.3769,-1.3388,-1.2997,-1.2595,-1.214,-1.1952,-1.1946,-1.1952,-1.209,-1.2316,-1.2322,-1.2328,-1.2328,-1.2322,-1.2089,-1.1689,-1.1683,-1.1234,-1.0403,-1.0403,-1.0039,-0.9351,-0.8895,-0.8582,-0.8328,-0.7906,-0.7584,-0.7369,-0.7584,-0.7695,-0.7695,-0.7695,-0.7695,-0.7691,-0.7476,-0.7044,-0.6426,-0.6187,-0.5767,-0.5117,-0.5093,-0.5049,-0.4923,-0.4809,-0.4706,-0.4646,-0.3999,-0.3386,0.0,0.0,0.0,0.0,0.0,0.0,0.0,0.0,0.0,0.0,0.0,-0.3661,-0.3397,-0.4486,-0.5164,-0.4997,-0.5247,-0.5491,-0.5685,-0.5925,-0.6169,-0.6374,-0.6607,-0.672,-0.6563,-0.7127,-0.7685,-0.8237,-0.8353,-0.8477,-0.8544,-0.8424,-0.8377,-0.8527,-0.8564,-0.8631,-0.8778,-0.8808,-0.8808,-0.8808,-0.8808,-0.8751,-0.8611,-0.8571,-0.8467,-0.818,-0.7953,-0.7739,-0.755,-0.7224,-0.6979,-0.6975,-0.6975,-0.6975,-0.6975,-0.6975,-0.6975,-0.6975,-0.6975,-0.6975,-1.5827,-1.5806,-1.5814,-1.5814,-1.5785,-1.5359,-1.5157,-1.5074,-1.4349,-1.3993,-1.3828,-1.2915,-1.2517,-1.2523,-1.2484,-1.2747,-1.3198,-1.321,-1.321,-1.321,-1.321,-1.2759,-1.1998,-1.1986,-1.1554,-1.0768,-1.0768,-1.0658,-1.0466,-0.9592,-0.9128,-0.8987,-0.8138,-0.7695,-0.7695,-0.7695,-0.7695,-0.7695,-0.7695,-0.7695,-0.7695,-0.7695,-0.7277,-0.646,-0.6411,-0.6001,-0.5141,-0.5093,-0.4991,-0.477,-0.4535,-0.4571,-0.4962,-0.404,-0.3486,0.0,-0.311,0.0,0.0,0.0,0.0,0.0,0.0,0.0,0.0,-0.3911,-0.4506,-0.539,-0.5974,-0.6169,-0.5798,-0.6075,-0.625,-0.6256,-0.6508,-0.6647,-0.6653,-0.687,-0.6975,-0.6975,-0.7315,-0.7859,-0.8641,-0.8581,-0.854,-0.8741,-0.8771,-0.8758,-0.8794,-0.8788,-0.8791,-0.8808,-0.8808,-0.8808,-0.8808,-0.8808,-0.8808,-0.8801,-0.8784,-0.8721,-0.8474,-0.83,-0.807,-0.7629,-0.7258,-0.6985,-0.6975,-0.6975,-0.6975,-0.6975,-0.6975,-0.6975,-0.6975,-0.6975,-0.6975,-1.6032,-1.5814,-1.5814,-1.5814,-1.5806,-1.5704,-1.5455,-1.5097,-1.4951,-1.4494,-1.3861,-1.3317,-1.3035,-1.3048,-1.3041,-1.3098,-1.321,-1.321,-1.321,-1.321,-1.321,-1.3107,-1.2933,-1.2933,-1.2671,-1.2141,-1.2106,-1.1537,-1.042,-0.9877,-0.9206,-0.8527,-0.7974,-0.7695,-0.7695,0.0,0.0,0.0,-0.7695,-0.7695,-0.7695,-0.7695,-0.7305,-0.645,-0.6411,0.0,-0.5146,-0.5093,-0.5069,-0.503,-0.4991,0.0,0.0,0.0,0.0,0.0,0.0,0.0,0.0,0.0,0.0,0.0,-0.4158,-0.4082,-0.3938,-0.4168,-0.4873,-0.6135,-0.665,-0.6647,-0.6169,-0.6374,-0.6506,-0.6516,-0.6767,-0.6902,-0.6944,-0.6991,-0.6975,-0.6985,-0.7457,-0.808,-0.8674,-0.8751,-0.8744,-0.8791,-0.8808,-0.8808,-0.8808,-0.8808,-0.8808,-0.8808,-0.8808,-0.8808,-0.8808,-0.8808,-0.8808,-0.8808,-0.8808,-0.8781,-0.8704,-0.844,-0.8163,-0.7862,-0.7398,-0.6975,-0.6975,-0.6975,-0.6975,-0.6975,-0.6975,-0.6975,-0.6975,-0.6975,-0.6975,-1.6123,0.0,-1.5814,-1.5814,0.0,-1.5814,-1.5675,-1.5433,-1.5195,-1.4658,-1.3901,-1.3648,-1.3419,-1.321,-1.321,-1.321,-1.321,-1.321,-1.321,-1.321,-1.321,-1.321,-1.321,-1.321,-1.306,-1.2873,-1.2832,-1.2471,-1.1745,-1.0654,-0.9864,-0.9398,-0.8279,-0.7695,-0.7695,-0.7695,-0.7695,-0.7695,-0.7695,-0.7695,-0.7695,-0.7695,-0.7417,-0.6772,-0.6523,0.0,0.0,0.0,0.0,0.0,0.0,0.0,0.0,0.0,0.0,-0.4913,-0.4693,-0.4544,-0.4533,-0.4545,-0.4619,-0.4869,-0.4863,-0.4721,-0.4355,-0.4933,-0.5631,-0.6404,-0.6797,-0.6904,-0.6623,-0.672,-0.6807,-0.6807,-0.6937,-0.6975,-0.6975,-0.6975,-0.7101,-0.7311,-0.7623,-0.8156,-0.8731,-0.8808,-0.8808,-0.8808,-0.8808,-0.8808,-0.8808,-0.8808,-0.8808,-0.8808,-0.8808,-0.8808,-0.8808,-0.8808,-0.8808,-0.8808,-0.8808,-0.8808,-0.8808,-0.8644,-0.834,-0.7948,-0.7387,-0.7024,-0.6975,-0.6975,-0.6975,-0.6975,-0.6975,-0.6975,-0.6975,-0.6975,-0.6975,-1.6163,-1.5814,-1.5814,-1.5814,-1.5814,-1.5814,-1.5814,-1.5777,0.0,0.0,0.0,-1.3927,-1.3642,-1.3204,-1.321,-1.321,-1.321,-1.321,-1.321,-1.321,-1.321,-1.321,-1.321,-1.321,-1.321,-1.321,-1.321,-1.3157,-1.3004,-1.1391,-1.0504,-1.0217,-0.8652,-0.7793,-0.7695,-0.7695,-0.7695,-0.7695,-0.7695,-0.7695,-0.7695,-0.7695,-0.7496,-0.7109,-0.6729,-0.6333,-0.5921,-0.5547,-0.5225,-0.502,-0.502,-0.4834,-0.4476,-0.4894,-0.5615,-0.6507,-0.6134,-0.5795,-0.5707,-0.5685,-0.5632,-0.5502,-0.5394,-0.5227,-0.4923,-0.5705,-0.6307,-0.6566,-0.684,-0.6975,-0.6975,-0.6975,-0.6975,-0.6975,-0.6975,-0.6975,-0.6979,-0.7078,-0.7241,-0.7562,-0.7842,-0.8206,-0.8724,-0.8808,-0.8808,-0.8808,-0.8808,-0.8808,-0.8808,-0.8808,-0.8808,-0.8808,-0.8808,-0.8808,-0.8808,-0.8808,-0.8808,-0.8808,-0.8808,-0.8808,-0.8808,-0.8808,-0.8574,-0.7978,-0.739,-0.7042,-0.6975,-0.6975,-0.6975,-0.6975,-0.6975,-0.6975,-0.6975,-0.6975,-0.6975,-1.6375,-1.5814,-1.5814,-1.5814,-1.5814,-1.5814,-1.5814,-1.577,-1.5306,-1.4845,-1.4406,-1.4072,-1.3655,-1.321,-1.321,-1.321,-1.321,-1.321,-1.321,-1.321,-1.321,-1.321,-1.321,-1.321,-1.321,-1.321,-1.321,-1.2978,-1.2489,-1.1476,-1.0556,-0.9788,-0.8731,-0.8033,-0.7725,-0.7695,-0.7695,-0.7695,-0.7695,-0.7695,-0.7695,-0.7695,-0.7496,-0.7124,-0.7036,-0.6792,-0.6343,-0.625,-0.6207,-0.6155,-0.6155,-0.5809,-0.5062,-0.554,-0.6367,-0.7384,-0.7,-0.6538,-0.6065,-0.6037,-0.5973,-0.5823,-0.5707,-0.5661,-0.5742,-0.6011,-0.6411,-0.687,-0.6987,-0.6975,-0.6975,-0.6975,-0.6975,-0.6975,-0.6975,-0.6975,-0.6979,-0.7228,-0.7428,-0.7609,-0.8026,-0.841,-0.8728,-0.8808,-0.8808,-0.8808,-0.8808,-0.8808,-0.8808,-0.8808,-0.8808,-0.8808,-0.8808,-0.8808,-0.8808,-0.8808,-0.8808,-0.8808,-0.8808,-0.8808,-0.8808,-0.8808,-0.8587,-0.7985,-0.739,-0.7028,-0.6975,-0.6975,-0.6975,-0.6975,-0.6975,-0.6975,-0.6975,-0.6975,-0.6975,-1.6784,-1.585,-1.5814,-1.5814,-1.5814,-1.5814,-1.5814,-1.577,-1.5573,-1.5111,-1.4501,-1.4317,-1.3842,-1.3239,-1.321,-1.321,-1.321,-1.321,-1.321,-1.321,-1.321,-1.321,-1.321,-1.321,-1.321,-1.321,-1.321,-1.3088,-1.2775,-1.1612,-1.0802,-1.0312,-0.8993,-0.8091,-0.7729,-0.7695,-0.7695,-0.7695,-0.7695,-0.7695,-0.7695,-0.7695,-0.7608,-0.7418,-0.7227,-0.7007,-0.6787,-0.6543,-0.6411,-0.6411,-0.6411,-0.6207,-0.5837,-0.624,-0.6855,-0.7622,-0.7457,-0.7219,-0.6983,-0.6568,-0.6341,-0.6438,-0.599,-0.5852,-0.6196,-0.6203,-0.6441,-0.6951,-0.6975,-0.6975,-0.6975,-0.6975,-0.6975,-0.6975,-0.6975,-0.6975,-0.7027,-0.7131,-0.7371,-0.7722,-0.7983,-0.8307,-0.8754,-0.8808,-0.8808,-0.8808,-0.8808,-0.8808,-0.8808,-0.8808,-0.8808,-0.8808,-0.8808,-0.8808,-0.8808,-0.8808,-0.8808,-0.8808,-0.8808,-0.8808,-0.8808,-0.8808,-0.8557,-0.7985,-0.739,-0.7028,-0.6975,-0.6975,-0.6975,-0.6975,-0.6975,-0.6975,-0.6975,-0.6975,-0.6975,-1.7452,-1.6174,-1.6153,-1.6049,-1.5814,-1.5814,-1.5814,-1.5814,-1.5806,-1.5359,-1.469,-1.4526,-1.4052,-1.3385,-1.326,-1.321,-1.321,-1.321,-1.321,-1.321,-1.321,-1.321,-1.321,-1.321,-1.321,-1.321,-1.321,-1.321,-1.3051,-1.1927,-1.108,-1.0561,-0.9085,-0.8091,-0.7695,-0.7695,-0.7695,-0.7695,-0.7695,-0.7695,-0.7695,-0.7695,-0.7695,-0.7676,-0.7384,-0.7246,-0.7194,-0.6895,-0.6704,-0.6704,-0.6709,-0.6709,-0.6714,-0.6934,-0.727,-0.7642,-0.7695,-0.7695,-0.7666,-0.7042,-0.6765,-0.7057,-0.6473,-0.6282,-0.6629,-0.6525,-0.6526,-0.6937,-0.6975,-0.6975,-0.6975,-0.6975,-0.6975,-0.6975,-0.6975,-0.6975,-0.6979,-0.7032,-0.7318,-0.7826,-0.7983,-0.8247,-0.8657,-0.8808,-0.8808,-0.8808,-0.8808,-0.8808,-0.8808,-0.8808,-0.8808,-0.8808,-0.8808,-0.8808,-0.8808,-0.8808,-0.8808,-0.8808,-0.8808,-0.8808,-0.8808,-0.8808,-0.8574,-0.7985,-0.739,-0.7038,-0.6975,-0.6975,-0.6975,-0.6975,-0.6975,-0.6975,-0.6975,-0.6975,-0.6975,-1.8542,-1.7338,-1.7205,-1.6688,-1.585,-1.5814,-1.5814,-1.5814,-1.5814,-1.5514,-1.5036,-1.4652,-1.4278,-1.3802,-1.3391,-1.3239,-1.321,-1.321,-1.321,-1.321,-1.321,-1.321,-1.321,-1.321,-1.321,-1.321,-1.321,-1.321,-1.3173,-1.2545,-1.1392,-0.9807,-0.8782,-0.815,-0.7759,-0.7739,-0.77,-0.7695,-0.7695,-0.7695,-0.7695,-0.7695,-0.7695,-0.7695,-0.7661,-0.7637,-0.7618,-0.7603,-0.7569,-0.7574,-0.7545,-0.7564,-0.7569,-0.7598,-0.7637,-0.7695,-0.7695,-0.7695,-0.7671,-0.7314,-0.7217,-0.7574,-0.7466,-0.7375,-0.7314,-0.7067,-0.6947,-0.7056,-0.7017,-0.6975,-0.6975,-0.6975,-0.6975,-0.6975,-0.6975,-0.6975,-0.7044,-0.7258,-0.7555,-0.7832,-0.8126,-0.8457,-0.8728,-0.8808,-0.8808,-0.8808,-0.8808,-0.8808,-0.8808,-0.8808,-0.8808,-0.8808,-0.8808,-0.8808,-0.8808,-0.8808,-0.8808,-0.8808,-0.8808,-0.8808,-0.8808,-0.8781,-0.8617,-0.8033,-0.7435,-0.7054,-0.6975,-0.6975,-0.6975,-0.6975,-0.6975,-0.6975,-0.6975,-0.6975,-0.6975,-1.9297,-1.7971,-1.7572,-1.6791,-1.5865,-1.5814,-1.5814,-1.5814,-1.5814,-1.5697,-1.5477,-1.5036,-1.4508,-1.3894,-1.3675,-1.3493,-1.3198,-1.321,-1.321,-1.321,-1.321,-1.321,-1.321,-1.321,-1.321,-1.321,-1.321,-1.321,-1.311,-1.2674,-1.17,-1.0543,-1.0064,-0.952,-0.8872,-0.8635,-0.8397,-0.8067,-0.7812,-0.7695,-0.7695,-0.7695,-0.7695,-0.7695,-0.7695,-0.7695,-0.7695,-0.7695,-0.7695,-0.7695,-0.7695,-0.7695,-0.7695,-0.7695,-0.7695,-0.7695,-0.7695,-0.7695,-0.7695,-0.7581,-0.7666,-0.7964,-0.7961,-0.7989,-0.8087,-0.7445,-0.7269,-0.7803,-0.7388,-0.6975,-0.7017,-0.6975,-0.6975,-0.6975,-0.6975,-0.7017,-0.6979,-0.7128,-0.7381,-0.7799,-0.8036,-0.8297,-0.8687,-0.8808,-0.8808,-0.8808,-0.8808,-0.8808,-0.8808,-0.8808,-0.8808,-0.8808,-0.8808,-0.8808,-0.8808,-0.8808,-0.8808,-0.8808,-0.8808,-0.8808,-0.8808,-0.8808,-0.8614,-0.8029,-0.7435,-0.7057,-0.6975,-0.6975,-0.6975,-0.6975,-0.6975,-0.6975,-0.6975,-0.6975,-0.6975,-2.0179,-1.8824,-1.788,-1.693,-1.6076,-1.6039,-1.5934,-1.5814,-1.5814,-1.5814,-1.5777,-1.5448,-1.4876,-1.4246,-1.3993,-1.3715,-1.3425,-1.3267,-1.321,-1.321,-1.321,-1.321,-1.321,-1.321,-1.321,-1.321,-1.321,-1.321,-1.3142,-1.2686,-1.1993,-1.1309,-1.1104,-1.0549,-0.969,-0.9357,-0.891,-0.8332,-0.801,-0.7812,-0.7725,-0.7695,-0.7695,-0.7695,-0.7695,-0.7695,-0.7695,-0.7695,-0.7695,-0.7695,-0.7695,-0.7695,-0.7695,-0.7695,-0.7695,-0.7695,-0.7695,-0.7695,-0.7695,-0.7878,-0.8094,-0.8378,-0.8517,-0.8664,-0.8745,-0.8292,-0.817,-0.8472,-0.8211,-0.7923,-0.7478,-0.7474,-0.7474,-0.7478,-0.7356,-0.7238,-0.7234,-0.7147,-0.7221,-0.7762,-0.7835,-0.809,-0.8627,-0.8738,-0.8687,-0.8784,-0.8808,-0.8808,-0.8808,-0.8808,-0.8808,-0.8808,-0.8808,-0.8808,-0.8808,-0.8808,-0.8808,-0.8808,-0.8808,-0.8808,-0.8808,-0.8808,-0.8611,-0.8033,-0.7435,-0.7078,-0.6985,-0.6975,-0.6975,-0.6975,-0.6975,-0.6975,-0.6975,-0.6975,-0.6975,-2.1346,-1.9778,-1.8304,-1.7281,-1.6659,-1.6644,-1.6331,-1.5814,-1.5814,-1.5814,-1.5814,-1.577,-1.5485,-1.4968,-1.4285,-1.3908,-1.3802,-1.3391,-1.321,-1.321,-1.321,-1.321,-1.321,-1.321,-1.321,-1.321,-1.321,-1.321,-1.316,-1.2672,-1.2191,-1.1796,-1.1349,-1.0591,-0.9871,-0.9713,-0.918,-0.8533,-0.8329,-0.8119,-0.7788,-0.7725,-0.7754,-0.7725,-0.7695,-0.7695,-0.7695,-0.7695,-0.7695,-0.7695,-0.7695,-0.7695,-0.7695,-0.7695,-0.7695,-0.7695,-0.7695,-0.7705,-0.7768,-0.8148,-0.8556,-0.8931,-0.9264,-0.9521,-0.9508,-0.9672,-0.9553,-0.8837,-0.9469,-0.9553,-0.8748,-0.8468,-0.8468,-0.8472,-0.8107,-0.787,-0.787,-0.7398,-0.7342,-0.7736,-0.7799,-0.8023,-0.8677,-0.8564,-0.8597,-0.8738,-0.8808,-0.8808,-0.8808,-0.8808,-0.8808,-0.8808,-0.8808,-0.8808,-0.8808,-0.8808,-0.8808,-0.8808,-0.8808,-0.8781,-0.8801,-0.8741,-0.8424,-0.8023,-0.7425,-0.7038,-0.6995,-0.6975,-0.6975,-0.6975,-0.6975,-0.6975,-0.6975,-0.6975,-0.6975,-2.1388,-1.9904,-1.8824,-1.7705,-1.6749,-1.6712,-1.6353,-1.5829,-1.5814,-1.5814,-1.5814,-1.5814,-1.5697,-1.5522,-1.4652,-1.4156,-1.3861,-1.3419,-1.321,-1.321,-1.321,-1.321,-1.321,-1.321,-1.321,-1.321,-1.321,-1.321,-1.3192,-1.2985,-1.283,-1.2704,-1.2531,-1.2056,-1.1422,-1.0783,-1.0178,-0.9517,-0.894,-0.8545,-0.841,-0.841,-0.8303,-0.8091,-0.7836,-0.7695,-0.7695,-0.7695,-0.7695,-0.7695,-0.7695,-0.7695,-0.7695,-0.7695,-0.7695,-0.7695,-0.7695,-0.7852,-0.814,-0.8535,-0.896,-0.938,-0.981,-1.0012,-1.0045,-1.0166,-1.0123,-0.9883,-1.0005,-1.004,-0.9716,-0.9119,-0.8712,-0.8675,-0.8517,-0.8398,-0.8316,-0.7949,-0.7752,-0.808,-0.8098,-0.8223,-0.8407,-0.8554,-0.8691,-0.8781,-0.8804,-0.8808,-0.8808,-0.8808,-0.8808,-0.8808,-0.8808,-0.8808,-0.8808,-0.8808,-0.8808,-0.8808,-0.8788,-0.8657,-0.8617,-0.8697,-0.8474,-0.7836,-0.7278,-0.7025,-0.6975,-0.6975,-0.6975,-0.6975,-0.6975,-0.6975,-0.6975,-0.6975,-0.6975,-2.1453,-2.0473,-1.9582,-1.8478,-1.7303,-1.708,-1.6563,-1.5866,-1.5814,-1.5814,-1.5814,-1.5814,-1.5814,-1.5646,-1.4876,-1.4374,-1.4019,-1.3486,-1.321,-1.321,-1.321,-1.321,-1.321,-1.321,-1.321,-1.321,-1.321,-1.321,-1.321,-1.321,-1.321,-1.3198,-1.321,-1.2829,-1.2133,-1.1505,-1.0804,-0.9998,-0.9317,-0.8926,-0.8811,-0.8783,-0.8634,-0.8313,-0.8033,-0.7841,-0.7695,-0.7695,-0.7695,-0.7695,-0.7695,-0.7695,-0.7695,-0.7695,-0.7695,-0.7695,-0.7695,-0.7915,-0.835,-0.8774,-0.9185,-0.9568,-1.0024,-1.0322,-1.0322,-1.0322,-1.0322,-1.0322,-1.0322,-1.0322,-1.0162,-0.9642,-0.9239,-0.9159,-0.9079,-0.8954,-0.8914,-0.8476,-0.8086,-0.7939,-0.831,-0.8528,-0.8619,-0.8699,-0.8812,-0.8896,-0.8835,-0.8804,-0.8808,-0.8808,-0.8808,-0.8808,-0.8808,-0.8744,-0.8671,-0.8614,-0.8621,-0.8624,-0.8607,-0.8494,-0.84,-0.85,-0.831,-0.7662,-0.7285,-0.7101,-0.6975,-0.6975,-0.6975,-0.6975,-0.6975,-0.6975,-0.6975,-0.6975,-0.6975,-2.1604,-2.1403,-2.0659,-1.9491,-1.8362,-1.7883,-1.6997,-1.6008,-1.5866,-1.5873,-1.5829,-1.5814,-1.5814,-1.5646,-1.4937,-1.4508,-1.431,-1.3648,-1.3232,-1.321,-1.321,-1.321,-1.321,-1.321,-1.321,-1.321,-1.321,-1.321,-1.321,-1.321,-1.321,-1.321,-1.321,-1.2787,-1.1682,-1.1634,-1.0949,-0.9984,-0.9668,-0.9335,-0.8877,-0.8955,-0.8812,-0.8432,-0.8342,-0.8148,-0.7749,-0.7695,-0.7695,-0.7695,-0.7695,-0.7695,-0.7695,-0.7695,-0.7695,-0.7695,-0.7695,-0.7944,-0.8384,-0.8784,-0.9194,-0.9627,-1.0059,-1.0322,-1.0322,-1.0322,-1.0322,-1.0322,-1.0322,-1.0322,-1.0322,-1.0201,-1.0123,-1.0249,-0.976,-0.9514,-0.9399,-0.9043,-0.8312,-0.7644,-0.8284,-0.9149,-0.9308,-0.9093,-0.8985,-0.9175,-0.9052,-0.8922,-0.8945,-0.8906,-0.8804,-0.8808,-0.8801,-0.8754,-0.8564,-0.8437,-0.839,-0.839,-0.8363,-0.829,-0.813,-0.813,-0.7936,-0.7412,-0.7204,-0.6985,-0.6975,-0.6975,-0.6975,-0.6975,-0.6975,-0.6975,-0.6975,-0.6975,-0.6975,-2.162,-2.1491,-2.0674,-1.9826,-1.9082,-1.8581,-1.7655,-1.6465,-1.6405,-1.6181,-1.5866,-1.5814,-1.5814,-1.5683,-1.5165,-1.4759,-1.4463,-1.3934,-1.352,-1.3267,-1.3204,-1.321,-1.321,-1.321,-1.321,-1.321,-1.321,-1.321,-1.321,-1.321,-1.321,-1.321,-1.321,-1.3041,-1.2634,-1.2347,-1.1858,-1.1492,-1.1096,-1.0644,-1.0177,-1.01,-0.9771,-0.9141,-0.9041,-0.8778,-0.8138,-0.7836,-0.7695,-0.7695,-0.7695,-0.7695,-0.7695,-0.7695,-0.7695,-0.7695,-0.7695,-0.8041,-0.8706,-0.8945,-0.9336,-0.9912,-1.0215,-1.0312,-1.0322,-1.0322,-1.0322,-1.0322,-1.0322,-1.0322,-1.0322,-1.0322,-1.0322,-1.0322,-1.0162,-1.004,-0.9966,-0.9558,-0.8954,-0.8422,-0.8736,-0.9317,-0.9783,-0.9562,-0.9431,-0.9687,-0.941,-0.9188,-0.9533,-0.9141,-0.8801,-0.8808,-0.8794,-0.8746,-0.8457,-0.8373,-0.8337,-0.824,-0.8153,-0.8086,-0.7926,-0.7715,-0.7505,-0.7335,-0.7128,-0.6992,-0.6979,-0.6975,-0.6975,-0.6975,-0.6975,-0.6975,-0.6975,-0.6975,-0.6975,-2.1861,-2.1773,-2.091,-2.0198,-1.9562,-1.8992,-1.8111,-1.7122,-1.6809,-1.6488,-1.6159,-1.5896,-1.5814,-1.5712,-1.5299,-1.4975,-1.4683,-1.4149,-1.3742,-1.3452,-1.3226,-1.3204,-1.321,-1.321,-1.321,-1.321,-1.321,-1.321,-1.321,-1.321,-1.321,-1.321,-1.321,-1.3073,-1.2904,-1.2592,-1.2341,-1.2102,-1.1738,-1.1406,-1.1129,-1.1013,-1.0603,-0.9839,-0.97,-0.9285,-0.8527,-0.8114,-0.7836,-0.7729,-0.7695,-0.7695,-0.7695,-0.7695,-0.7695,-0.7725,-0.789,-0.8291,-0.8916,-0.9165,-0.9521,-1.0165,-1.0322,-1.0322,-1.0322,-1.0322,-1.0322,-1.0322,-1.0322,-1.0322,-1.0322,-1.0322,-1.0322,-1.0322,-1.0283,-1.0322,-1.0239,-1.0,-0.9716,-0.9399,-0.9482,-0.9807,-1.0032,-0.9979,-0.9783,-0.9944,-0.9632,-0.9368,-0.9733,-0.9429,-0.912,-0.8928,-0.8905,-0.8726,-0.834,-0.826,-0.8287,-0.8133,-0.7956,-0.7862,-0.7736,-0.7482,-0.7251,-0.7188,-0.6985,-0.6982,-0.6975,-0.6975,-0.6975,-0.6975,-0.6975,-0.6975,-0.6975,-0.6975,-0.6975,-2.2282,-2.218,-2.1354,-2.0647,-2.001,-1.9183,-1.8373,-1.763,-1.7085,-1.6719,-1.6465,-1.5987,-1.5814,-1.5704,-1.5389,-1.5157,-1.4975,-1.4349,-1.3934,-1.3735,-1.3452,-1.321,-1.321,-1.321,-1.321,-1.321,-1.321,-1.321,-1.321,-1.321,-1.321,-1.321,-1.3192,-1.2973,-1.2659,-1.2485,-1.2297,-1.1977,-1.1807,-1.1763,-1.1644,-1.1632,-1.1243,-1.0359,-1.0305,-0.9884,-0.9057,-0.8556,-0.8118,-0.7759,-0.7695,-0.7695,-0.7695,-0.7695,-0.77,-0.7836,-0.8203,-0.8569,-0.9004,-0.934,-0.9775,-1.0244,-1.0322,-1.0322,-1.0322,-1.0322,-1.0322,-1.0322,-1.0322,-1.0322,-1.0322,-1.0322,-1.0322,-1.0322,-1.0322,-1.0322,-1.0322,-1.0283,-1.0162,-1.0201,-1.0283,-1.0278,-1.0293,-1.0072,-1.0011,-0.9981,-0.9773,-0.9666,-0.9764,-0.9687,-0.9275,-0.9064,-0.8925,-0.8592,-0.8176,-0.81,-0.812,-0.8033,-0.7832,-0.7682,-0.7569,-0.7321,-0.7085,-0.7012,-0.6975,-0.6975,-0.6975,-0.6975,-0.6975,-0.6975,-0.6975,-0.6975,-0.6975,-0.6975,-0.6975,-2.2319,-2.2217,-2.1354,-2.0895,-2.0639,-1.9825,-1.8762,-1.7749,-1.7518,-1.6883,-1.6189,-1.5896,-1.5814,-1.5777,-1.5675,-1.5455,-1.5081,-1.4603,-1.4156,-1.3835,-1.3419,-1.3239,-1.321,-1.321,-1.321,-1.321,-1.321,-1.321,-1.321,-1.321,-1.321,-1.321,-1.3204,-1.3142,-1.2998,-1.296,-1.2922,-1.2791,-1.2793,-1.2515,-1.2228,-1.219,-1.1889,-1.1335,-1.1213,-1.0747,-0.9857,-0.9131,-0.8398,-0.7749,-0.7695,-0.7695,-0.77,-0.7725,-0.7982,-0.8464,-0.8501,-0.8721,-0.9307,-0.9534,-0.9807,-1.0258,-1.0322,-1.0322,-1.0322,-1.0322,-1.0322,-1.0322,-1.0322,-1.0322,-1.0322,-1.0322,-1.0322,-1.0322,-1.0322,-1.0322,-1.0322,-1.0322,-1.0322,-1.0322,-1.0322,-1.0322,-1.0278,-1.0273,-1.025,-1.0399,-1.0208,-0.9935,-1.0131,-0.9853,-0.9453,-0.8977,-0.869,-0.8371,-0.8102,-0.7983,-0.7933,-0.7896,-0.7732,-0.7532,-0.7408,-0.7241,-0.7104,-0.6975,-0.6975,-0.6975,-0.6975,-0.6975,-0.6975,-0.6975,-0.6975,-0.6975,-0.6975,-0.6975,-0.6975,-2.2319,-2.2254,-2.1546,-2.1158,-2.0934,-2.0269,-1.9242,-1.8208,-1.7772,-1.7122,-1.6278,-1.5888,-1.5814,-1.5814,-1.5806,-1.5683,-1.5352,-1.4944,-1.4627,-1.4356,-1.3802,-1.3425,-1.3267,-1.321,-1.321,-1.321,-1.321,-1.321,-1.321,-1.321,-1.321,-1.321,-1.321,-1.321,-1.3185,-1.321,-1.321,-1.3192,-1.3204,-1.3023,-1.2747,-1.2722,-1.2422,-1.2052,-1.192,-1.1511,-1.06,-0.987,-0.9176,-0.8654,-0.8282,-0.7963,-0.7744,-0.7983,-0.8374,-0.896,-0.8921,-0.9145,-0.9495,-0.9743,-1.0015,-1.0263,-1.0322,-1.0322,-1.0322,-1.0322,-1.0322,-1.0322,-1.0322,-1.0322,-1.0322,-1.0322,-1.0322,-1.0322,-1.0322,-1.0322,-1.0322,-1.0322,-1.0322,-1.0322,-1.0322,-1.0322,-1.0322,-1.0322,-1.044,-1.0522,-1.0319,-1.0354,-1.0462,-1.0036,-0.9528,-0.8969,-0.8689,-0.8442,-0.8007,-0.7794,-0.7774,-0.775,-0.7757,-0.7564,-0.7445,-0.7276,-0.7088,-0.6975,-0.6975,-0.6975,-0.6975,-0.6975,-0.6975,-0.6975,-0.6975,-0.6975,-0.6975,-0.6975,-0.6975,-2.2319,-2.2282,-2.1794,-2.1399,-2.1023,-2.0493,-1.9622,-1.8658,-1.7947,-1.7234,-1.6517,-1.5994,-1.5821,-1.5814,-1.5814,-1.5785,-1.5741,-1.5255,-1.5036,-1.4697,-1.4188,-1.3675,-1.3357,-1.3232,-1.3204,-1.321,-1.321,-1.321,-1.321,-1.321,-1.321,-1.321,-1.321,-1.321,-1.321,-1.321,-1.321,-1.321,-1.321,-1.3185,-1.311,-1.3091,-1.2872,-1.2547,-1.2341,-1.2005,-1.1282,-1.0656,-1.0135,-0.9863,-0.9119,-0.8475,-0.8049,-0.8418,-0.8843,-0.9145,-0.9393,-0.9539,-0.9714,-1.0063,-1.0288,-1.0322,-1.0322,-1.0322,-1.0322,-1.0322,-1.0322,-1.0322,-1.0322,-1.0322,-1.0322,-1.0322,-1.0322,-1.0322,-1.0322,-1.0322,-1.0322,-1.0322,-1.0322,-1.0322,-1.0322,-1.0322,-1.0322,-1.0322,-1.0337,-1.0445,-1.0302,-1.037,-1.0439,-1.0226,-0.9581,-0.8853,-0.8664,-0.8586,-0.8061,-0.7525,-0.762,-0.7674,-0.7763,-0.7676,-0.7595,-0.7437,-0.7122,-0.6975,-0.6975,-0.6975,-0.6975,-0.6975,-0.6975,-0.6975,-0.6975,-0.6975,-0.6975,-0.6975,-0.6975,-2.2319,-2.2274,-2.1786,-2.1552,-2.1352,-2.0626,-1.9592,-1.8399,-1.7936,-1.7041,-1.6151,-1.5866,-1.5814,-1.5814,-1.5814,-1.5814,-1.5748,-1.5359,-1.4937,-1.4571,-1.4156,-1.3868,-1.3648,-1.3419,-1.3232,-1.3204,-1.321,-1.321,-1.321,-1.321,-1.321,-1.321,-1.321,-1.321,-1.321,-1.321,-1.321,-1.321,-1.321,-1.321,-1.321,-1.321,-1.3142,-1.2954,-1.2622,-1.2386,-1.2033,-1.1268,-1.0774,-1.052,-0.9911,-0.9276,-0.8931,-0.9048,-0.9434,-0.9746,-0.968,-0.979,-1.0078,-1.0244,-1.0322,-1.0322,-1.0322,-1.0322,-1.0322,-1.0322,-1.0322,-1.0322,-1.0322,-1.0322,-1.0322,-1.0322,-1.0322,-1.0322,-1.0322,-1.0322,-1.0322,-1.0322,-1.0322,-1.0322,-1.0322,-1.0322,-1.0322,-1.0322,-1.0322,-1.0322,-1.0322,-1.0322,-1.0322,-1.0322,-0.9721,-0.8999,-0.8969,-0.8886,-0.8341,-0.794,-0.7987,-0.7983,-0.7995,-0.7972,-0.7889,-0.7565,-0.7314,-0.7105,-0.6975,-0.6975,-0.6975,-0.6975,-0.6975,-0.6975,-0.6975,-0.6975,-0.6975,-0.6975,-0.6975,-2.2319,-2.224,-2.1655,-2.128,-2.0985,-2.0194,-1.9113,-1.8004,-1.7654,-1.6887,-1.6,-1.5814,-1.5814,-1.5814,-1.5814,-1.5814,-1.5777,-1.5551,-1.5202,-1.4859,-1.4526,-1.4278,-1.3901,-1.3642,-1.3452,-1.3273,-1.321,-1.321,-1.321,-1.321,-1.321,-1.321,-1.321,-1.321,-1.321,-1.321,-1.321,-1.321,-1.321,-1.321,-1.321,-1.321,-1.321,-1.3116,-1.2747,-1.2541,-1.27,-1.2095,-1.1742,-1.1547,-1.1096,-1.0405,-0.9781,-0.9727,-0.998,-1.0146,-1.0103,-1.002,-1.0234,-1.0322,-1.0322,-1.0322,-1.0322,-1.0322,-1.0322,-1.0322,-1.0322,-1.0322,-1.0322,-1.0322,-1.0322,-1.0322,-1.0322,-1.0322,-1.0322,-1.0322,-1.0322,-1.0322,-1.0322,-1.0322,-1.0322,-1.0322,-1.0322,-1.0322,-1.0322,-1.0322,-1.0322,-1.0322,-1.0322,-1.0244,-0.9922,-0.9443,-0.9443,-0.919,-0.8667,-0.8422,-0.8504,-0.8484,-0.8435,-0.8427,-0.8386,-0.7979,-0.7492,-0.736,-0.7231,-0.7017,-0.6975,-0.6975,-0.6975,-0.6975,-0.6975,-0.6975,-0.6975,-0.6975,-0.6975,-2.2319,-2.2243,-2.149,-2.0982,-2.0519,-1.9761,-1.868,-1.7522,-1.7308,-1.6776,-1.5946,-1.5814,-1.5814,-1.5814,-1.5814,-1.5814,-1.5806,-1.577,-1.5522,-1.5239,-1.5036,-1.462,-1.4149,-1.3894,-1.3608,-1.3239,-1.321,-1.321,-1.321,-1.321,-1.321,-1.321,-1.321,-1.321,-1.321,-1.321,-1.321,-1.321,-1.321,-1.321,-1.321,-1.321,-1.321,-1.3116,-1.2912,-1.273,-1.2867,-1.2561,-1.2372,-1.2401,-1.2217,-1.1557,-1.0873,-1.0472,-1.0361,-1.0312,-1.0234,-1.0283,-1.0298,-1.0322,-1.0322,-1.0322,-1.0322,-1.0322,-1.0322,-1.0322,-1.0322,-1.0322,-1.0322,-1.0322,-1.0322,-1.0322,-1.0322,-1.0322,-1.0322,-1.0322,-1.0322,-1.0322,-1.0322,-1.0322,-1.0322,-1.0322,-1.0322,-1.0322,-1.0322,-1.0322,-1.0322,-1.0322,-1.0322,-1.0244,-0.9927,-0.9765,-0.9721,-0.9799,-0.9319,-0.9123,-0.9195,-0.9075,-0.8994,-0.8873,-0.8793,-0.8185,-0.7739,-0.7617,-0.7485,-0.7189,-0.6975,-0.6975,-0.6975,-0.6975,-0.6975,-0.6975,-0.6975,-0.6975,-0.6975,-2.2319,-2.2251,-2.1498,-2.1142,-2.0874,-1.9876,-1.8719,-1.7856,-1.741,-1.6736,-1.5901,-1.5814,-1.5835,-1.5814,-1.5814,-1.5814,-1.5814,-1.5785,-1.5748,-1.5588,-1.5322,-1.4845,-1.4431,-1.4149,-1.3735,-1.3335,-1.3273,-1.3307,-1.321,-1.321,-1.321,-1.321,-1.321,-1.321,-1.321,-1.321,-1.321,-1.321,-1.321,-1.321,-1.321,-1.321,-1.321,-1.3204,-1.306,-1.2943,-1.2691,-1.2579,-1.2324,-1.1962,-1.1872,-1.1763,-1.1547,-1.1287,-1.0916,-1.0549,-1.0472,-1.0505,-1.0395,-1.0361,-1.0322,-1.0322,-1.0322,-1.0322,-1.0322,-1.0322,-1.0322,-1.0322,-1.0322,-1.0322,-1.0322,-1.0322,-1.0322,-1.0322,-1.0322,-1.0322,-1.0322,-1.0322,-1.0322,-1.0322,-1.0322,-1.0322,-1.0322,-1.0322,-1.0322,-1.0322,-1.0322,-1.0322,-1.0322,-1.0244,-1.0088,-0.9961,-0.9957,-1.0074,-1.0074,-1.0,-0.9961,-0.976,-0.9597,-0.9275,-0.8994,-0.8353,-0.7987,-0.7825,-0.7489,-0.7101,-0.6975,-0.6975,-0.6975,-0.6975,-0.6975,-0.6975,-0.6975,-0.6975,-0.6975,-2.2073,-2.1642,-2.0898,-2.0348,-1.9875,-1.8985,-1.8211,-1.7621,-1.7374,-1.6942,-1.6425,-1.6143,-1.606,-1.6011,-1.5856,-1.5806,-1.5814,-1.5814,-1.5814,-1.5748,-1.5544,-1.5225,-1.4845,-1.4589,-1.4285,-1.4,-1.3868,-1.3588,-1.3226,-1.321,-1.3204,-1.321,-1.321,-1.321,-1.321,-1.321,-1.321,-1.321,-1.321,-1.321,-1.321,-1.321,-1.321,-1.321,-1.321,-1.3088,-1.2943,-1.2867,-1.2797,-1.2615,-1.2538,-1.2544,-1.2389,-1.209,-1.1653,-1.118,-1.1029,-1.0916,-1.0731,-1.0654,-1.0572,-1.0361,-1.0322,-1.0322,-1.0322,-1.0322,-1.0322,-1.0322,-1.0322,-1.0322,-1.0322,-1.0322,-1.0322,-1.0322,-1.0322,-1.0322,-1.0322,-1.0322,-1.0322,-1.0322,-1.0322,-1.0322,-1.0322,-1.0322,-1.0322,-1.0322,-1.0322,-1.0322,-1.0322,-1.0244,-1.0166,-1.0162,-1.0118,-1.0157,-1.0278,-1.0317,-1.0205,-1.0083,-0.9799,-0.9474,-0.907,-0.8349,-0.8032,-0.7878,-0.7492,-0.7017,-0.6975,-0.6975,-0.6975,-0.6975,-0.6975,-0.6975,-0.6975,-0.6975,-0.6975,-2.1862,-2.1144,-2.0348,-1.9672,-1.9037,-1.8175,-1.7738,-1.7509,-1.7387,-1.7051,-1.6686,-1.6436,-1.6246,-1.6143,-1.5934,-1.5814,-1.5814,-1.5814,-1.5814,-1.5814,-1.577,-1.5544,-1.5225,-1.5074,-1.4828,-1.4406,-1.4367,-1.4084,-1.3554,-1.3397,-1.3295,-1.3239,-1.321,-1.321,-1.321,-1.321,-1.321,-1.321,-1.321,-1.321,-1.321,-1.321,-1.321,-1.321,-1.321,-1.3204,-1.3163,-1.3163,-1.317,-1.3135,-1.3135,-1.317,-1.3123,-1.2826,-1.2467,-1.2144,-1.1926,-1.151,-1.1132,-1.0981,-1.072,-1.0351,-1.0322,-1.0322,-1.0322,-1.0322,-1.0322,-1.0322,-1.0322,-1.0322,-1.0322,-1.0322,-1.0322,-1.0322,-1.0322,-1.0322,-1.0322,-1.0322,-1.0322,-1.0322,-1.0322,-1.0322,-1.0322,-1.0322,-1.0322,-1.0322,-1.0322,-1.0322,-1.0322,-1.0322,-1.0283,-1.0283,-1.0283,-1.0283,-1.0322,-1.0322,-1.0162,-0.9927,-0.9523,-0.9119,-0.8712,-0.8185,-0.7987,-0.7704,-0.7405,-0.6975,-0.6975,-0.7017,-0.6975,-0.6975,-0.6975,-0.6975,-0.6975,-0.6975,-0.6975,-2.1862,-2.1144,-2.034,-1.9942,-1.9588,-1.8338,-1.7972,-1.8129,-1.7575,-1.6926,-1.6501,-1.632,-1.6163,-1.5906,-1.5856,-1.5814,-1.5814,-1.5814,-1.5814,-1.5814,-1.5785,-1.5588,-1.5195,-1.5097,-1.4975,-1.4721,-1.462,-1.4253,-1.3875,-1.3769,-1.3547,-1.3301,-1.321,-1.321,-1.321,-1.321,-1.321,-1.321,-1.321,-1.321,-1.321,-1.321,-1.321,-1.321,-1.321,-1.321,-1.321,-1.321,-1.321,-1.321,-1.321,-1.321,-1.3204,-1.3163,-1.3129,-1.2803,-1.2324,-1.159,-1.1201,-1.1089,-1.0905,-1.05,-1.0356,-1.0322,-1.0322,-1.0322,-1.0322,-1.0322,-1.0322,-1.0322,-1.0322,-1.0322,-1.0322,-1.0322,-1.0322,-1.0322,-1.0322,-1.0322,-1.0322,-1.0322,-1.0322,-1.0322,-1.0322,-1.0322,-1.0322,-1.0322,-1.0322,-1.0322,-1.0322,-1.0322,-1.0322,-1.0322,-1.0322,-1.0322,-1.0322,-1.0322,-1.0162,-0.9887,-0.9403,-0.8918,-0.863,-0.83,-0.7641,-0.7353,-0.714,-0.7143,-0.7189,-0.7147,-0.7059,-0.6975,-0.6975,-0.6975,-0.6975,-0.6975,-0.6975,-2.1608,-2.0475,-2.0137,-1.9495,-1.8709,-1.8025,-1.788,-1.7972,-1.7731,-1.7312,-1.6901,-1.6659,-1.6293,-1.5885,-1.5814,-1.5814,-1.5814,-1.5814,-1.5814,-1.5814,-1.5785,-1.5683,-1.5544,-1.5477,-1.5352,-1.5232,-1.5157,-1.4876,-1.4431,-1.396,-1.3648,-1.326,-1.321,-1.321,-1.321,-1.321,-1.321,-1.321,-1.321,-1.321,-1.321,-1.321,-1.321,-1.321,-1.321,-1.321,-1.321,-1.321,-1.321,-1.321,-1.321,-1.321,-1.321,-1.3204,-1.3204,-1.3163,-1.2873,-1.2395,-1.1945,-1.161,-1.1201,-1.0759,-1.05,-1.0322,-1.0322,-1.0322,-1.0322,-1.0322,-1.0322,-1.0322,-1.0322,-1.0322,-1.0322,-1.0322,-1.0322,-1.0322,-1.0322,-1.0322,-1.0322,-1.0322,-1.0322,-1.0322,-1.0322,-1.0322,-1.0322,-1.0322,-1.0322,-1.0322,-1.0322,-1.0322,-1.0322,-1.0322,-1.0322,-1.0322,-1.0322,-1.0322,-1.0283,-1.0005,-0.9642,-0.9195,-0.8905,-0.8456,-0.7882,-0.772,-0.7841,-0.7765,-0.7523,-0.7273,-0.7101,-0.7059,-0.6975,-0.6975,-0.6975,-0.6975,-0.6975,-2.1253,-2.001,-1.9993,-1.9233,-1.8082,-1.7887,-1.7938,-1.809,-1.7873,-1.7557,-1.7126,-1.6704,-1.6219,-1.5906,-1.5814,-1.5814,-1.5814,-1.5814,-1.5814,-1.5814,-1.5814,-1.5814,-1.5748,-1.577,-1.577,-1.5814,-1.5683,-1.5292,-1.4783,-1.4342,-1.396,-1.326,-1.321,-1.321,-1.321,-1.321,-1.321,-1.321,-1.321,-1.321,-1.321,-1.321,-1.321,-1.321,-1.321,-1.321,-1.321,-1.321,-1.321,-1.321,-1.321,-1.321,-1.321,-1.321,-1.321,-1.3204,-1.306,-1.2943,-1.2573,-1.221,-1.1726,-1.1282,-1.0948,-1.0769,-1.0582,-1.0472,-1.0472,-1.0621,-1.0351,-1.0356,-1.0322,-1.0322,-1.0322,-1.0322,-1.0322,-1.0322,-1.0322,-1.0322,-1.0322,-1.0322,-1.0322,-1.0322,-1.0322,-1.0322,-1.0322,-1.0322,-1.0322,-1.0322,-1.0322,-1.0322,-1.0322,-1.0322,-1.0322,-1.0322,-1.0322,-1.0322,-1.0283,-1.0123,-0.976,-0.9399,-0.903,-0.8744,-0.8337,-0.8337,-0.846,-0.8259,-0.7983,-0.7565,-0.7143,-0.7059,-0.6975,-0.6975,-0.6975,-0.6975,-0.6975,-2.0779,-1.9993,-1.9993,-1.9495,-1.8691,-1.8099,-1.8183,-1.8564,-1.8039,-1.7457,-1.6833,-1.6238,-1.5955,-1.5806,-1.5814,-1.5814,-1.5814,-1.5814,-1.5814,-1.5814,-1.5814,-1.5814,-1.5814,-1.5814,-1.5814,-1.5814,-1.5806,-1.5514,-1.5127,-1.4876,-1.4214,-1.3391,-1.3369,-1.3273,-1.321,-1.321,-1.321,-1.321,-1.321,-1.321,-1.321,-1.321,-1.321,-1.321,-1.321,-1.321,-1.321,-1.321,-1.321,-1.321,-1.321,-1.321,-1.321,-1.321,-1.321,-1.321,-1.321,-1.3129,-1.2949,-1.2621,-1.221,-1.1884,-1.1621,-1.1362,-1.1175,-1.0621,-1.0659,-1.1024,-1.0649,-1.039,-1.0356,-1.0322,-1.0322,-1.0322,-1.0322,-1.0322,-1.0322,-1.0322,-1.0322,-1.0322,-1.0322,-1.0322,-1.0322,-1.0322,-1.0322,-1.0322,-1.0322,-1.0322,-1.0322,-1.0322,-1.0322,-1.0322,-1.0322,-1.0322,-1.0322,-1.0283,-1.0239,-1.0123,-0.9839,-0.9439,-0.9039,-0.8833,-0.895,-0.8829,-0.8905,-0.8675,-0.8357,-0.7863,-0.7447,-0.7147,-0.6975,-0.6975,-0.6975,-0.6975,-0.6975,-2.072,-1.9968,-1.9519,-1.8902,-1.8208,-1.7929,-1.7963,-1.8158,-1.7907,-1.7416,-1.6789,-1.632,-1.5975,-1.5856,-1.5814,-1.5814,-1.5814,-1.5814,-1.5814,-1.5814,-1.5814,-1.5814,-1.5814,-1.5814,-1.5814,-1.5814,-1.577,-1.5544,-1.5142,-1.5165,-1.454,-1.3908,-1.3682,-1.3431,-1.3335,-1.321,-1.321,-1.321,-1.321,-1.321,-1.321,-1.321,-1.321,-1.321,-1.321,-1.321,-1.321,-1.321,-1.321,-1.321,-1.321,-1.321,-1.321,-1.321,-1.321,-1.321,-1.321,-1.321,-1.3135,-1.2768,-1.2288,-1.192,-1.1774,-1.1774,-1.1695,-1.1367,-1.1324,-1.1282,-1.0873,-1.05,-1.0682,-1.0505,-1.0322,-1.0322,-1.0322,-1.0322,-1.0322,-1.0322,-1.0322,-1.0322,-1.0322,-1.0322,-1.0322,-1.0322,-1.0322,-1.0322,-1.0322,-1.0322,-1.0322,-1.0322,-1.0322,-1.0322,-1.0322,-1.0322,-1.0322,-1.0244,-1.0201,-1.0079,-0.9922,-0.9681,-0.9478,-0.9721,-0.9755,-0.9593,-0.9155,-0.8716,-0.8357,-0.804,-0.7663,-0.7192,-0.7017,-0.6975,-0.6975,-0.6975,-0.6975,-2.0179,-1.9612,-1.8885,-1.8276,-1.7836,-1.7789,-1.7789,-1.7789,-1.7797,-1.7511,-1.6909,-1.6528,-1.6191,-1.5983,-1.5835,-1.5814,-1.5814,-1.5814,-1.5814,-1.5814,-1.5814,-1.5814,-1.5814,-1.5814,-1.5814,-1.5814,-1.577,-1.558,-1.5366,-1.5322,-1.4914,-1.4508,-1.4214,-1.3934,-1.3307,-1.321,-1.321,-1.321,-1.321,-1.321,-1.321,-1.321,-1.321,-1.321,-1.321,-1.321,-1.321,-1.321,-1.321,-1.321,-1.321,-1.321,-1.321,-1.321,-1.321,-1.321,-1.321,-1.321,-1.31,-1.2914,-1.2544,-1.2395,-1.2318,-1.2294,-1.2222,-1.2216,-1.224,-1.2162,-1.1394,-1.0802,-1.1051,-1.0616,-1.0361,-1.0322,-1.0322,-1.0322,-1.0322,-1.0322,-1.0322,-1.0322,-1.0322,-1.0322,-1.0322,-1.0322,-1.0322,-1.0322,-1.0322,-1.0322,-1.0322,-1.0322,-1.0322,-1.0322,-1.0322,-1.0322,-1.0322,-1.0283,-1.0244,-1.0239,-1.0162,-1.0201,-1.0123,-1.0322,-1.0283,-0.9957,-0.9434,-0.8752,-0.8353,-0.8118,-0.7659,-0.7112,-0.7021,-0.6975,-0.6975,-0.6975,-0.6975,-1.8987,-1.8817,-1.8158,-1.7822,-1.7789,-1.7789,-1.7789,-1.7789,-1.7789,-1.7581,-1.7118,-1.6591,-1.6274,-1.6136,-1.5885,-1.5806,-1.5814,-1.5814,-1.5814,-1.5814,-1.5814,-1.5814,-1.5814,-1.5814,-1.5814,-1.5814,-1.5806,-1.5777,-1.5719,-1.5683,-1.5396,-1.5043,-1.4721,-1.4335,-1.3335,-1.3198,-1.3204,-1.3245,-1.3239,-1.321,-1.321,-1.321,-1.321,-1.321,-1.321,-1.321,-1.321,-1.321,-1.321,-1.321,-1.321,-1.321,-1.321,-1.321,-1.321,-1.321,-1.321,-1.321,-1.321,-1.317,-1.3053,-1.2978,-1.2838,-1.2914,-1.3066,-1.3094,-1.2902,-1.2615,-1.2029,-1.1436,-1.1062,-1.0611,-1.0433,-1.0322,-1.0322,-1.0322,-1.0322,-1.0322,-1.0322,-1.0322,-1.0322,-1.0322,-1.0322,-1.0322,-1.0322,-1.0322,-1.0322,-1.0322,-1.0322,-1.0322,-1.0322,-1.0322,-1.0322,-1.0322,-1.0322,-1.0322,-1.0322,-1.0322,-1.0322,-1.0322,-1.0322,-1.0322,-1.0244,-1.0123,-0.943,-0.8541,-0.8304,-0.8193,-0.761,-0.707,-0.7021,-0.6975,-0.6975,-0.6975,-0.6975,-1.8885,-1.8826,-1.8107,-1.7789,-1.7789,-1.7789,-1.7789,-1.7789,-1.7758,-1.7502,-1.7027,-1.6693,-1.6355,-1.6067,-1.5906,-1.5827,-1.5835,-1.5814,-1.5814,-1.5814,-1.5814,-1.5814,-1.5814,-1.5814,-1.5814,-1.5814,-1.5814,-1.5814,-1.5785,-1.5814,-1.5522,-1.5165,-1.4937,-1.4494,-1.4084,-1.3861,-1.3675,-1.3615,-1.3425,-1.321,-1.321,-1.321,-1.321,-1.321,-1.321,-1.321,-1.321,-1.321,-1.321,-1.321,-1.321,-1.321,-1.321,-1.321,-1.321,-1.321,-1.321,-1.321,-1.321,-1.321,-1.321,-1.321,-1.321,-1.321,-1.321,-1.321,-1.306,-1.2733,-1.2216,-1.1584,-1.1057,-1.0572,-1.0356,-1.0322,-1.0322,-1.0322,-1.0322,-1.0322,-1.0322,-1.0322,-1.0322,-1.0322,-1.0322,-1.0322,-1.0322,-1.0322,-1.0322,-1.0322,-1.0322,-1.0322,-1.0322,-1.0322,-1.0322,-1.0322,-1.0322,-1.0322,-1.0322,-1.0322,-1.0322,-1.0322,-1.0322,-1.0322,-0.9961,-0.9721,-0.8981,-0.8285,-0.8013,-0.7735,-0.7402,-0.7066,-0.7021,-0.6975,-0.6975,-0.6975,-0.6975,-1.8521,-1.8462,-1.8014,-1.7789,-1.7789,-1.7789,-1.7789,-1.7789,-1.7789,-1.7534,-1.7216,-1.7035,-1.6781,-1.6413,-1.6203,-1.6024,-1.6011,-1.5983,-1.5835,-1.5835,-1.5814,-1.5814,-1.5814,-1.5814,-1.5814,-1.5814,-1.5814,-1.5814,-1.5814,-1.5814,-1.5646,-1.5381,-1.5066,-1.5043,-1.4759,-1.4367,-1.3742,-1.3581,-1.3295,-1.321,-1.321,-1.321,-1.321,-1.321,-1.321,-1.321,-1.321,-1.321,-1.321,-1.321,-1.321,-1.321,-1.321,-1.321,-1.321,-1.321,-1.321,-1.321,-1.321,-1.321,-1.321,-1.321,-1.321,-1.321,-1.321,-1.321,-1.306,-1.2726,-1.2174,-1.1842,-1.1425,-1.0948,-1.0572,-1.0577,-1.0428,-1.0467,-1.0395,-1.0395,-1.0356,-1.0356,-1.0322,-1.0322,-1.0322,-1.0322,-1.0322,-1.0322,-1.0322,-1.0322,-1.0322,-1.0322,-1.0322,-1.0322,-1.0322,-1.0322,-1.0322,-1.0322,-1.0322,-1.0322,-1.0322,-1.0322,-1.0322,-1.0283,-0.9799,-0.9399,-0.9022,-0.8529,-0.7724,-0.728,-0.7154,-0.7066,-0.7017,-0.6975,-0.6975,-0.6975,-0.6975,-1.7797,-1.7789,-1.7789,-1.7789,-1.7789,-1.7789,-1.7789,-1.7789,-1.7789,-1.7774,-1.7704,-1.7344,-1.7118,-1.7109,-1.6842,-1.6528,-1.6246,-1.6211,-1.6032,-1.5885,-1.5814,-1.5814,-1.5814,-1.5814,-1.5814,-1.5814,-1.5814,-1.5814,-1.5814,-1.5814,-1.577,-1.5741,-1.5617,-1.5522,-1.5165,-1.4627,-1.4,-1.3808,-1.3486,-1.3391,-1.3363,-1.3232,-1.3204,-1.321,-1.321,-1.321,-1.321,-1.321,-1.321,-1.321,-1.321,-1.321,-1.321,-1.321,-1.321,-1.321,-1.321,-1.321,-1.321,-1.321,-1.321,-1.321,-1.321,-1.321,-1.321,-1.321,-1.3053,-1.2867,-1.2431,-1.236,-1.2132,-1.1573,-1.1051,-1.0905,-1.0725,-1.0616,-1.0544,-1.0467,-1.0428,-1.0395,-1.0322,-1.0322,-1.0322,-1.0322,-1.0322,-1.0322,-1.0322,-1.0322,-1.0322,-1.0322,-1.0322,-1.0322,-1.0322,-1.0322,-1.0322,-1.0322,-1.0322,-1.0322,-1.0322,-1.0322,-1.0322,-1.0283,-0.9961,-0.9632,-0.9381,-0.8816,-0.7897,-0.7405,-0.715,-0.7063,-0.7017,-0.6975,-0.6975,-0.6975,-0.6975,-1.7789,-1.7789,-1.7789,-1.7789,-1.7789,-1.7789,-1.7789,-1.7789,-1.7789,-1.7673,-1.7447,-1.7336,-1.724,-1.6934,-1.6615,-1.6455,-1.6274,-1.6088,-1.5934,-1.5856,-1.5913,-1.5835,-1.5842,-1.5863,-1.5814,-1.5799,-1.5799,-1.5814,-1.5814,-1.5814,-1.5814,-1.5814,-1.5814,-1.5646,-1.5352,-1.4937,-1.4697,-1.4381,-1.396,-1.3735,-1.3581,-1.3425,-1.3335,-1.3267,-1.3204,-1.3204,-1.321,-1.321,-1.321,-1.321,-1.321,-1.321,-1.321,-1.321,-1.321,-1.321,-1.321,-1.321,-1.321,-1.321,-1.321,-1.321,-1.321,-1.321,-1.321,-1.317,-1.3088,-1.2873,-1.2762,-1.2685,-1.2395,-1.1909,-1.1573,-1.1468,-1.1244,-1.1099,-1.0992,-1.0759,-1.0682,-1.0505,-1.0433,-1.0322,-1.0322,-1.0322,-1.0322,-1.0322,-1.0322,-1.0322,-1.0322,-1.0322,-1.0322,-1.0322,-1.0322,-1.0322,-1.0322,-1.0322,-1.0322,-1.0322,-1.0322,-1.0322,-1.0322,-1.0239,-1.0083,-0.9799,-0.9469,-0.8829,-0.8032,-0.7701,-0.7569,-0.715,-0.7021,-0.7017,-0.6975,-0.6975,-0.6975,-1.7789,-1.7789,-1.7789,-1.7789,-1.7789,-1.7789,-1.7789,-1.7789,-1.7789,-1.7689,-1.7509,-1.7494,-1.7368,-1.724,-1.706,-1.6876,-1.6722,-1.6617,-1.644,-1.6274,-1.6171,-1.6254,-1.6199,-1.6075,-1.6032,-1.5947,-1.5877,-1.5814,-1.5814,-1.5814,-1.5814,-1.5814,-1.5814,-1.5646,-1.5448,-1.5381,-1.5396,-1.5043,-1.4652,-1.4278,-1.3967,-1.3715,-1.3547,-1.3385,-1.3323,-1.3204,-1.321,-1.321,-1.321,-1.321,-1.321,-1.321,-1.321,-1.321,-1.321,-1.321,-1.321,-1.321,-1.321,-1.321,-1.321,-1.321,-1.321,-1.321,-1.321,-1.321,-1.3053,-1.2943,-1.3012,-1.2978,-1.2573,-1.221,-1.2138,-1.2066,-1.1884,-1.1664,-1.1431,-1.1121,-1.0905,-1.0687,-1.0505,-1.0356,-1.0322,-1.0322,-1.0322,-1.0322,-1.0322,-1.0322,-1.0322,-1.0322,-1.0322,-1.0322,-1.0322,-1.0322,-1.0322,-1.0322,-1.0322,-1.0322,-1.0322,-1.0322,-1.0322,-1.0283,-1.0201,-0.9843,-0.9443,-0.8922,-0.8517,-0.8275,-0.8107,-0.7648,-0.7276,-0.7234,-0.7147,-0.6975,-0.6975,-1.7789,-1.7789,-1.7789,-1.7789,-1.7789,-1.7789,-1.7789,-1.7789,-1.7789,-1.7789,-1.778,-1.7789,-1.7735,-1.7612,-1.7502,-1.7344,-1.715,-1.6994,-1.6781,-1.6797,-1.6659,-1.6633,-1.6554,-1.6482,-1.6246,-1.6136,-1.6011,-1.5814,-1.5814,-1.5814,-1.5814,-1.5814,-1.5814,-1.5741,-1.5712,-1.5683,-1.5654,-1.5514,-1.5097,-1.4652,-1.4335,-1.4084,-1.3835,-1.3702,-1.3459,-1.321,-1.321,-1.321,-1.321,-1.321,-1.321,-1.321,-1.321,-1.321,-1.321,-1.321,-1.321,-1.321,-1.321,-1.321,-1.321,-1.321,-1.321,-1.321,-1.321,-1.321,-1.3094,-1.3094,-1.3129,-1.3163,-1.2838,-1.265,-1.2579,-1.2431,-1.2252,-1.2029,-1.1757,-1.1345,-1.0867,-1.0616,-1.0433,-1.0322,-1.0322,-1.0322,-1.0322,-1.0322,-1.0322,-1.0322,-1.0322,-1.0322,-1.0322,-1.0322,-1.0322,-1.0322,-1.0322,-1.0322,-1.0322,-1.0322,-1.0322,-1.0322,-1.0322,-1.0322,-1.0322,-1.0044,-0.9765,-0.9602,-0.9279,-0.8958,-0.8557,-0.8107,-0.7776,-0.7614,-0.7402,-0.7105,-0.6975,-1.7789,-1.7789,-1.7789,-1.7789,-1.7789,-1.7789,-1.7789,-1.7789,-1.7789,-1.7789,-1.7789,-1.7789,-1.7789,-1.7789,-1.7581,-1.7415,-1.7344,-1.7207,-1.6909,-1.6892,-1.6866,-1.6942,-1.6763,-1.6607,-1.6375,-1.6183,-1.6004,-1.5814,-1.5814,-1.5814,-1.5814,-1.5814,-1.5814,-1.5814,-1.5814,-1.5814,-1.5777,-1.577,-1.5477,-1.4968,-1.4526,-1.3842,-1.3363,-1.3391,-1.3232,-1.321,-1.321,-1.321,-1.321,-1.321,-1.321,-1.321,-1.321,-1.321,-1.321,-1.321,-1.321,-1.321,-1.321,-1.321,-1.321,-1.321,-1.321,-1.321,-1.321,-1.321,-1.321,-1.321,-1.321,-1.321,-1.317,-1.3053,-1.2908,-1.2762,-1.2544,-1.2276,-1.1976,-1.1388,-1.0797,-1.0577,-1.0356,-1.0322,-1.0322,-1.0322,-1.0322,-1.0322,-1.0322,-1.0322,-1.0322,-1.0322,-1.0322,-1.0322,-1.0322,-1.0322,-1.0322,-1.0322,-1.0322,-1.0322,-1.0322,-1.0322,-1.0322,-1.0322,-1.0322,-1.0288,-1.0127,-0.9922,-0.9721,-0.9478,-0.9039,-0.8513,-0.8073,-0.7742,-0.7492,-0.7238,-0.7105,-1.7789,-1.7789,-1.7789,-1.7861,-1.7957,-1.7847,-1.7789,-1.7789,-1.7789,-1.7789,-1.7789,-1.7789,-1.7789,-1.7789,-1.7604,-1.7494,-1.7471,-1.7361,-1.7337,-1.7288,-1.7199,-1.7297,-1.7117,-1.6858,-1.6712,-1.6493,-1.6039,-1.5814,-1.5814,-1.5814,-1.5814,-1.5814,-1.5814,-1.5814,-1.5814,-1.5814,-1.5814,-1.5814,-1.5639,-1.5262,-1.4721,-1.4163,-1.3808,-1.3769,-1.3452,-1.3335,-1.321,-1.321,-1.321,-1.321,-1.321,-1.321,-1.321,-1.321,-1.321,-1.321,-1.321,-1.321,-1.321,-1.321,-1.321,-1.321,-1.321,-1.321,-1.321,-1.321,-1.321,-1.321,-1.321,-1.321,-1.3094,-1.2978,-1.2797,-1.2615,-1.2252,-1.1915,-1.1499,-1.0981,-1.0616,-1.0433,-1.0322,-1.0322,-1.0322,-1.0322,-1.0322,-1.0322,-1.0322,-1.0322,-1.0322,-1.0322,-1.0322,-1.0322,-1.0322,-1.0322,-1.0322,-1.0322,-1.0322,-1.0322,-1.0322,-1.0322,-1.0322,-1.0322,-1.0322,-1.0283,-1.0283,-1.0162,-0.9961,-0.9681,-0.9239,-0.8671,-0.8234,-0.7791,-0.7579,-0.7321,-0.7147,-1.7869,-1.7856,-1.7811,-1.7927,-1.81,-1.7922,-1.7789,-1.7789,-1.7789,-1.7789,-1.7789,-1.7789,-1.7789,-1.7789,-1.7789,-1.7789,-1.7735,-1.7635,-1.7712,-1.7712,-1.7712,-1.7643,-1.7534,-1.74,-1.701,-1.6581,-1.6143,-1.5913,-1.5814,-1.5814,-1.5814,-1.5814,-1.5814,-1.5814,-1.5814,-1.5814,-1.5814,-1.5741,-1.5573,-1.5329,-1.502,-1.4735,-1.4438,-1.4084,-1.3769,-1.3323,-1.3232,-1.321,-1.321,-1.321,-1.321,-1.321,-1.321,-1.321,-1.321,-1.321,-1.321,-1.321,-1.321,-1.321,-1.321,-1.321,-1.321,-1.321,-1.321,-1.321,-1.321,-1.321,-1.321,-1.317,-1.3053,-1.2943,-1.2756,-1.2395,-1.2029,-1.1584,-1.1062,-1.0649,-1.0467,-1.0322,-1.0322,-1.0322,-1.0322,-1.0322,-1.0322,-1.0322,-1.0322,-1.0322,-1.0322,-1.0322,-1.0322,-1.0322,-1.0322,-1.0322,-1.0322,-1.0322,-1.0322,-1.0322,-1.0322,-1.0322,-1.0322,-1.0322,-1.0322,-1.0322,-1.0283,-1.0201,-1.0005,-0.9686,-0.9239,-0.8833,-0.8275,-0.7833,-0.7576,-0.736,-0.7105,-1.8125,-1.8095,-1.7883,-1.7842,-1.79,-1.7833,-1.7789,-1.7789,-1.7789,-1.7789,-1.7789,-1.7789,-1.7789,-1.7789,-1.7789,-1.7789,-1.7789,-1.7789,-1.7789,-1.7789,-1.7789,-1.7789,-1.7681,-1.7447,-1.6952,-1.6573,-1.6301,-1.6095,-1.5913,-1.5835,-1.5814,-1.5814,-1.5814,-1.5814,-1.5814,-1.5814,-1.5814,-1.5741,-1.5741,-1.5588,-1.5389,-1.5006,-1.4374,-1.4117,-1.396,-1.3575,-1.3357,-1.3245,-1.321,-1.321,-1.321,-1.321,-1.321,-1.321,-1.321,-1.321,-1.321,-1.321,-1.321,-1.321,-1.321,-1.321,-1.321,-1.321,-1.321,-1.321,-1.321,-1.321,-1.321,-1.321,-1.3129,-1.3053,-1.2867,-1.2324,-1.1884,-1.1287,-1.0769,-1.0582,-1.0433,-1.0361,-1.0322,-1.0322,-1.0322,-1.0322,-1.0322,-1.0322,-1.0322,-1.0322,-1.0322,-1.0322,-1.0322,-1.0322,-1.0322,-1.0322,-1.0322,-1.0322,-1.0322,-1.0322,-1.0322,-1.0322,-1.0322,-1.0322,-1.0322,-1.0322,-1.0239,-1.0162,-0.9922,-0.9725,-0.9364,-0.8922,-0.8316,-0.7829,-0.7614,-0.752,-0.7433]},{"header":{"parameterUnit":"m.s-1","parameterCategory":1,"la1":31.0,"la2":29.5877,"lo1":-88.7671,"lo2":-86.6584,"dy":0.0162,"dx":0.0185,"nx":115,"ny":88,"refTime":"2024-09-17T06:00:00:Z","depth":0,"parameterNumber":3,"parameterNumberName":"V-component_of_WINDS"},"data":[0.0,0.0,0.0,0.0,0.0,0.0,0.0,0.0,0.0,0.0,0.0,0.0,0.0,0.0,0.0,0.0,0.0,0.0,0.0,0.0,0.0,0.0,0.0,0.0,0.0,0.0,0.0,0.0,0.0,0.0,0.0,0.0,0.0,0.0,0.0,0.0,0.0,0.0,0.0,0.0,0.0,0.0,0.0,0.0,0.0,0.0,0.0,0.0,0.0,0.0,0.0,0.0,0.0,0.0,0.0,0.0,0.0,0.0,0.0,0.0,0.0,0.0,0.0,0.0,0.0,0.0,0.0,0.0,0.0,0.0,0.0,0.0,0.0,0.0,0.0,0.0,0.0,0.0,0.0,0.0,0.0,0.0,0.0,0.0,0.0,0.0,0.0,0.0,0.0,0.0,0.0,0.0,0.0,0.0,0.0,0.0,0.0,0.0,0.0,0.0,0.0,0.0,0.0,0.0,0.0,0.0,0.0,0.0,0.0,0.0,0.0,0.0,0.0,0.0,0.0,0.0,0.0,0.0,0.0,0.0,0.0,0.0,0.0,0.0,0.0,0.0,0.0,0.0,0.0,0.0,0.0,0.0,0.0,0.0,0.0,0.0,0.0,0.0,0.0,0.0,0.0,0.0,0.0,0.0,0.0,0.0,0.0,0.0,0.0,0.0,0.0,0.0,0.0,0.0,0.0,0.0,0.0,0.0,0.0,0.0,0.0,0.0,0.0,0.0,0.0,0.0,0.0,0.0,0.0,0.0,0.0,0.0,0.0,0.0,0.0,0.0,0.0,0.0,0.0,0.0,0.0,0.0,0.0,0.0,0.0,0.0,0.0,0.0,0.0,0.0,0.0,0.0,0.0,0.0,0.0,0.0,0.0,0.0,0.0,0.0,0.0,0.0,0.0,0.0,0.0,0.0,0.0,0.0,0.0,0.0,0.0,0.0,0.0,0.0,0.0,0.0,0.0,0.0,0.0,0.0,0.0,0.0,0.0,0.0,0.0,0.0,0.0,0.0,0.0,0.0,0.0,0.0,0.0,0.0,0.0,0.0,0.0,0.0,0.0,0.0,0.0,0.0,0.0,0.0,0.0,0.0,0.0,0.0,0.0,0.0,0.0,0.0,0.0,0.0,0.0,0.0,0.0,0.0,0.0,0.0,0.0,0.0,0.0,0.0,0.0,0.0,0.0,0.0,0.0,0.0,0.0,0.0,0.0,0.0,0.0,0.0,0.0,0.0,0.0,0.0,0.0,0.0,0.0,0.0,0.0,0.0,0.0,0.0,0.0,0.0,0.0,0.0,0.0,0.0,0.0,0.0,0.0,0.0,0.0,0.0,0.0,0.0,0.0,0.0,0.0,0.0,0.0,0.0,0.0,0.0,0.0,0.0,0.0,0.0,0.0,0.0,0.0,0.0,0.0,0.0,0.0,0.0,0.0,0.0,0.0,0.0,0.0,0.0,0.0,0.0,0.0,0.0,0.0,0.0,0.0,0.0,0.0,0.0,0.0,0.0,0.0,0.0,0.0,0.0,0.0,0.0,0.0,0.0,0.0,0.0,0.0,0.0,0.0,0.0,0.0,0.0,0.0,0.0,0.0,0.0,0.0,0.0,0.0,0.0,0.0,0.0,0.0,0.0,0.0,0.0,0.0,0.0,0.0,0.0,0.0,0.0,0.0,0.0,0.0,0.0,0.0,0.0,0.0,0.0,0.0,0.0,0.0,0.0,0.0,0.0,0.0,0.0,0.0,0.0,0.0,0.0,0.0,0.0,0.0,0.0,0.0,0.0,0.0,0.0,0.0,0.0,0.0,0.0,0.0,0.0,0.0,0.0,0.0,0.0,0.0,0.0,0.0,0.0,0.0,0.0,0.0,0.0,0.0,0.0,0.0,0.0,0.0,0.0,0.0,0.0,0.0,0.0,0.0,0.0,0.0,0.0,0.0,0.0,0.0,0.0,0.0,0.0,0.0,0.0,0.0,0.0,0.0,0.0,0.0,0.0,0.0,0.0,0.0,0.0,0.0,0.0,0.0,0.0,0.0,0.0,0.0,0.0,0.0,0.0,0.0,0.0,0.0,0.0,0.0,0.0,0.0,0.0,0.0,0.0,0.0,0.0,0.0,0.0,0.0,0.0,0.0,0.0,0.0,0.0,0.0,0.0,0.0,0.0,0.0,0.0,0.0,0.0,0.0,0.0,0.0,0.0,0.0,0.0,0.0,0.0,0.0,0.0,0.0,0.0,0.0,0.0,0.0,0.0,0.0,0.0,0.0,0.0,0.0,0.0,0.0,0.0,0.0,0.0,0.0,0.0,0.0,0.0,0.0,0.0,0.0,0.0,0.0,0.0,0.0,0.0,0.0,0.0,0.0,0.0,0.0,0.0,0.0,0.0,0.0,0.0,0.0,0.0,0.0,0.0,0.0,0.0,0.0,0.0,0.0,0.0,0.0,0.0,0.0,0.0,0.0,0.0,0.0,0.0,0.0,0.0,0.0,0.0,0.0,0.0,0.0,0.0,0.0,0.0,0.0,0.0,0.0,0.0,0.0,0.0,0.0,0.0,0.0,0.0,0.0,0.0,0.0,0.0,0.0,0.0,0.0,0.0,0.0,0.0,0.0,0.0,0.0,0.0,0.0,0.0,0.0,0.0,0.0,0.0,0.0,0.0,0.0,0.0,0.0,0.0,0.0,0.0,0.0,0.0,0.0,0.0,0.0,0.0,0.0,0.0,0.0,0.0,0.0,0.0,0.0,0.0,0.0,0.0,0.0,0.0,0.0,0.0,0.0,0.0,0.0,0.0,0.0,0.0,0.0,0.0,0.0,0.0,0.0,0.0,0.0,0.0,0.0,0.0,0.0,0.0,0.0,0.0,0.0,0.0,0.0,0.0,0.0,0.0,0.0,0.0,0.0,0.0,0.0,0.0,0.0,0.0,0.0,0.0,0.0,0.0,0.0,0.0,0.0,0.0,0.0,0.0,0.0,0.0,0.0,0.0,0.0,0.0,0.0,0.0,0.0,0.0,0.0,0.0,0.0,0.0,0.0,0.0,0.0,0.0,0.0,0.0,0.0,0.0,0.0,0.0,0.0,0.0,0.0,0.0,0.0,0.0,0.0,0.0,0.0,0.0,0.0,0.0,0.0,0.0,0.0,0.0,0.0,0.0,0.0,0.0,0.0,0.0,0.0,0.0,0.0,0.0,0.0,0.0,0.0,0.0,0.0,0.0,0.0,0.0,0.0,0.0,0.0,0.0,0.0,0.0,0.0,0.0,0.0,0.0,0.0,0.0,0.0,0.0,0.0,0.0,0.0,0.0,0.0,0.0,0.0,0.0,0.0,0.0,0.0,0.0,0.0,0.0,0.0,0.0,0.0,0.0,0.0,0.0,0.0,0.0,0.0,0.0,0.0,0.0,0.0,0.0,0.0,0.0,0.0,0.0,0.0,0.0,0.0,0.0,0.0,0.0,0.0,0.0,0.0,0.0,0.0,0.0,0.0,0.0,0.0,0.0,0.0,0.0,0.0,0.0,0.0,0.0,0.0,0.0,0.0,0.0,0.0,0.0,0.0,0.0,0.0,0.0,0.0,0.0,0.0,0.0,0.0,0.0,0.0,0.0,0.0,0.0,0.0,0.0,0.0,0.0,0.0,0.0,0.0,0.0,0.0,0.0,0.0,0.0,0.0,0.0,0.0,0.0,0.0,0.0,0.0,0.0,0.0,0.0,0.0,0.0,0.0,0.0,0.0,0.0,0.0,0.0,0.0,0.0,0.0,0.0,0.0,0.0,0.0,0.0,0.0,0.0,0.0,0.0,0.0,0.0,0.0,0.0,0.0,0.0,0.0,0.0,0.0,0.0,0.0,0.0,0.0,0.0,0.0,0.0,0.0,0.0,0.0,0.0,0.0,0.0,0.0,0.0,0.0,0.0,0.0,0.0,0.0,0.0,0.0,0.0,0.0,0.0,0.0,0.0,0.0,0.0,0.0,0.0,0.0,0.0,0.0,0.0,0.0,0.0,0.0,0.0,0.0,0.0,0.0,0.0,0.0,0.0,0.0,0.0,0.0,0.0,0.0,0.0,0.0,0.0,0.0,0.0,0.0,0.0,0.0,0.0,0.0,0.0,0.0,0.0,0.0,0.0,0.0,0.0,0.0,0.0,0.0,0.0,0.0,0.0,0.0,0.0,0.0,0.0,0.0,0.0,0.0,0.0,0.0,0.0,0.0,0.0,0.0,0.0,0.0,0.0,0.0,0.0,0.0,0.0,0.0,0.0,0.0,0.0,0.0,0.0,-0.5862,0.0,0.0,0.0,0.0,0.0,0.0,0.0,0.0,0.0,0.0,0.0,0.0,0.0,0.0,0.0,0.0,0.0,0.0,0.0,0.0,0.0,0.0,0.0,0.0,0.0,0.0,0.0,0.0,0.0,0.0,0.0,0.0,0.0,0.0,0.0,0.0,0.0,0.0,0.0,0.0,0.0,0.0,0.0,0.0,0.0,0.0,0.0,0.0,0.0,0.0,0.0,0.0,0.0,0.0,0.0,0.0,0.0,0.0,0.0,0.0,0.0,0.0,0.0,0.0,0.0,0.0,0.0,0.0,0.0,0.0,0.0,0.0,0.0,0.0,0.0,0.0,0.0,0.0,0.0,0.0,0.0,0.0,0.0,0.0,0.0,0.0,0.0,0.0,0.0,0.0,0.0,0.0,0.0,0.0,0.0,0.0,0.0,0.0,0.0,0.0,0.0,0.0,0.0,0.0,0.0,0.0,0.0,0.0,0.0,0.0,-0.7727,-0.7367,-0.6414,-0.5732,-0.5364,0.0,0.0,0.0,0.0,0.0,0.0,0.0,0.0,0.0,0.0,0.0,0.0,0.0,0.0,0.0,0.0,0.0,0.0,0.0,0.0,0.0,0.0,0.0,0.0,0.0,0.0,0.0,0.0,0.0,0.0,0.0,0.0,0.0,0.0,0.0,0.0,0.0,0.0,0.0,0.0,0.0,0.0,0.0,0.0,0.0,0.0,0.0,0.0,0.0,0.0,0.0,0.0,0.0,0.0,0.0,0.0,0.0,0.0,0.0,0.0,0.0,0.0,0.0,0.0,0.0,0.0,0.0,0.0,0.0,0.0,0.0,0.0,0.0,0.0,0.0,0.0,0.0,0.0,0.0,0.0,0.0,0.0,0.0,0.0,0.0,0.0,0.0,0.0,0.0,0.0,0.0,0.0,0.0,0.0,0.0,0.0,0.0,0.0,0.0,0.0,0.0,0.0,0.0,0.0,0.0,0.0,0.0,0.0,0.0,0.0,0.0,0.0,-0.6482,-0.575,-0.4961,0.0,0.0,0.0,0.0,0.0,0.0,0.0,0.0,0.0,0.0,0.0,0.0,0.0,0.0,0.0,0.0,0.0,0.0,0.0,0.0,0.0,0.0,0.0,0.0,0.0,0.0,0.0,0.0,0.0,0.0,0.0,0.0,0.0,0.0,0.0,0.0,0.0,0.0,0.0,0.0,0.0,0.0,0.0,0.0,0.0,0.0,0.0,0.0,0.0,0.0,0.0,0.0,0.0,0.0,0.0,0.0,0.0,0.0,0.0,0.0,0.0,0.0,0.0,0.0,0.0,0.0,0.0,0.0,0.0,0.0,0.0,0.0,0.0,0.0,0.0,0.0,0.0,0.0,0.0,0.0,0.0,0.0,0.0,0.0,0.0,0.0,0.0,0.0,0.0,0.0,0.0,0.0,0.0,0.0,0.0,0.0,0.0,0.0,0.0,0.0,0.0,0.0,0.0,0.0,0.0,0.0,0.0,0.0,0.0,0.0,-0.7869,-0.7802,-0.7144,0.0,-0.5027,0.0,0.0,0.0,0.0,0.0,0.0,0.0,0.0,0.0,0.0,0.0,0.0,0.0,0.0,0.0,0.0,0.0,0.0,0.0,0.0,0.0,0.0,0.0,0.0,0.0,0.0,0.0,0.0,0.0,0.0,0.0,0.0,0.0,0.0,0.0,0.0,0.0,0.0,0.0,0.0,0.0,0.0,0.0,0.0,0.0,0.0,0.0,0.0,0.0,0.0,0.0,0.0,0.0,0.0,0.0,0.0,0.0,0.0,0.0,0.0,0.0,0.0,0.0,0.0,0.0,0.0,0.0,0.0,0.0,0.0,0.0,0.0,0.0,0.0,0.0,0.0,0.0,0.0,0.0,0.0,0.0,0.0,0.0,0.0,0.0,0.0,0.0,0.0,0.0,0.0,0.0,0.0,0.0,0.0,0.0,0.0,0.0,0.0,0.0,0.0,0.0,0.0,0.0,0.0,0.0,0.0,0.0,0.0,0.0,0.0,-0.7704,-0.7324,-0.6269,-0.5454,0.0,0.0,0.0,0.0,0.0,0.0,0.0,0.0,0.0,0.0,0.0,0.0,0.0,0.0,0.0,0.0,0.0,0.0,0.0,0.0,0.0,0.0,0.0,0.0,0.0,0.0,0.0,0.0,0.0,0.0,0.0,0.0,0.0,0.0,0.0,0.0,0.0,0.0,0.0,0.0,0.0,0.0,0.0,0.0,0.0,0.0,0.0,0.0,0.0,0.0,0.0,0.0,0.0,0.0,0.0,0.0,0.0,0.0,0.0,0.0,0.0,0.0,0.0,0.0,0.0,0.0,0.0,0.0,0.0,0.0,0.0,0.0,0.0,0.0,0.0,0.0,0.0,0.0,0.0,0.0,0.0,0.0,0.0,0.0,0.0,0.0,0.0,0.0,0.0,0.0,0.0,0.0,0.0,0.0,0.0,0.0,0.0,0.0,0.0,0.0,0.0,0.0,0.0,0.0,0.0,0.0,0.0,0.0,0.0,0.0,-0.7742,-0.7653,-0.7152,-0.588,-0.5094,-0.4892,0.0,0.0,0.0,0.0,0.0,0.0,0.0,0.0,0.0,0.0,0.0,0.0,0.0,0.0,0.0,0.0,0.0,0.0,0.0,0.0,0.0,0.0,0.0,0.0,0.0,0.0,0.0,0.0,0.0,0.0,0.0,0.0,0.0,0.0,0.0,0.0,0.0,0.0,0.0,0.0,0.0,0.0,0.0,0.0,0.0,0.0,0.0,0.0,0.0,0.0,0.0,0.0,0.0,0.0,0.0,0.0,0.0,0.0,0.0,0.0,0.0,0.0,0.0,0.0,0.0,0.0,0.0,0.0,0.0,0.0,0.0,0.0,0.0,0.0,0.0,0.0,0.0,0.0,0.0,0.0,0.0,0.0,0.0,0.0,0.0,0.0,0.0,0.0,0.0,0.0,0.0,0.0,0.0,0.0,0.0,0.0,0.0,0.0,0.0,0.0,0.0,0.0,0.0,0.0,0.0,0.0,0.0,0.0,0.0,-0.8169,-0.7877,-0.7809,-0.6549,-0.5553,0.0,0.0,0.0,0.0,0.0,0.0,0.0,0.0,0.0,0.0,0.0,0.0,0.0,0.0,0.0,0.0,0.0,0.0,0.0,0.0,0.0,0.0,0.0,0.0,0.0,0.0,0.0,0.0,0.0,0.0,0.0,0.0,0.0,0.0,0.0,0.0,0.0,0.0,0.0,0.0,0.0,0.0,0.0,0.0,0.0,0.0,0.0,0.0,0.0,0.0,0.0,0.0,0.0,0.0,0.0,0.0,0.0,0.0,0.0,0.0,0.0,0.0,0.0,0.0,0.0,0.0,0.0,0.0,0.0,0.0,0.0,0.0,0.0,0.0,0.0,0.0,0.0,0.0,0.0,0.0,0.0,0.0,0.0,0.0,0.0,0.0,0.0,0.0,0.0,0.0,0.0,0.0,0.0,0.0,0.0,0.0,0.0,0.0,0.0,0.0,0.0,0.0,0.0,0.0,0.0,0.0,0.0,0.0,0.0,-0.6284,-0.6504,-0.7025,-0.7794,-0.6198,-0.5339,0.0,0.0,0.0,0.0,0.0,0.0,0.0,0.0,0.0,0.0,0.0,0.0,0.0,0.0,0.0,0.0,0.0,0.0,0.0,0.0,0.0,0.0,0.0,0.0,0.0,0.0,0.0,0.0,0.0,0.0,0.0,0.0,0.0,0.0,0.0,0.0,0.0,0.0,0.0,0.0,0.0,0.0,0.0,0.0,0.0,0.0,0.0,0.0,0.0,0.0,0.0,0.0,0.0,0.0,0.0,0.0,0.0,0.0,0.0,0.0,0.0,0.0,0.0,0.0,0.0,0.0,0.0,0.0,0.0,0.0,0.0,0.0,0.0,0.0,0.0,0.0,0.0,0.0,0.0,0.0,0.0,0.0,0.0,0.0,0.0,0.0,0.0,0.0,0.0,0.0,0.0,0.0,0.0,0.0,0.0,0.0,0.0,0.0,0.0,0.0,0.0,0.0,0.0,0.0,0.0,0.0,0.0,0.0,0.0,-0.5513,0.0,-0.6875,0.0,-0.6052,-0.5249,0.0,0.0,0.0,0.0,0.0,0.0,0.0,0.0,0.0,0.0,0.0,0.0,0.0,0.0,0.0,0.0,0.0,0.0,0.0,0.0,0.0,0.0,0.0,0.0,0.0,0.0,0.0,0.0,0.0,0.0,0.0,0.0,0.0,0.0,0.0,0.0,0.0,0.0,0.0,0.0,0.0,0.0,0.0,0.0,0.0,0.0,0.0,0.0,0.0,0.0,0.0,0.0,0.0,0.0,0.0,0.0,0.0,0.0,0.0,0.0,0.0,0.0,0.0,0.0,0.0,0.0,0.0,0.0,0.0,0.0,0.0,0.0,0.0,0.0,0.0,0.0,0.0,0.0,0.0,0.0,0.0,0.0,0.0,0.0,0.0,0.0,0.0,0.0,0.0,0.0,0.0,0.0,0.0,0.0,0.0,0.0,0.0,0.0,0.0,0.0,0.0,0.0,0.0,0.0,0.0,0.0,0.0,0.0,-0.4915,-0.6798,-0.7458,-0.7495,-0.6935,-0.625,-0.5292,0.0,0.0,0.0,0.0,0.0,0.0,0.0,0.0,0.0,0.0,0.0,0.0,0.0,0.0,0.0,0.0,0.0,0.0,0.0,0.0,0.0,0.0,0.0,0.0,0.0,0.0,0.0,0.0,0.0,0.0,0.0,0.0,0.0,0.0,0.0,0.0,0.0,0.0,0.0,0.0,0.0,0.0,0.0,0.0,0.0,0.0,0.0,0.0,0.0,0.0,0.0,0.0,0.0,0.0,0.0,0.0,0.0,0.0,0.0,0.0,0.0,0.0,0.0,0.0,0.0,0.0,0.0,0.0,0.0,0.0,0.0,0.0,0.0,0.0,0.0,0.0,0.0,0.0,0.0,0.0,0.0,0.0,0.0,0.0,0.0,0.0,0.0,0.0,0.0,0.0,0.0,0.0,0.0,0.0,0.0,0.0,0.0,0.0,0.0,0.0,0.0,0.0,0.0,0.0,0.0,0.0,0.0,0.0,0.0,-0.6531,-0.6531,-0.691,-0.7633,-0.6533,-0.5951,0.0,0.0,0.0,0.0,0.0,0.0,0.0,0.0,0.0,0.0,0.0,0.0,0.0,0.0,0.0,0.0,0.0,0.0,0.0,0.0,0.0,0.0,0.0,0.0,0.0,0.0,0.0,0.0,0.0,0.0,0.0,0.0,0.0,0.0,0.0,0.0,0.0,0.0,0.0,0.0,0.0,0.0,0.0,0.0,0.0,0.0,0.0,0.0,0.0,0.0,0.0,0.0,0.0,0.0,0.0,0.0,0.0,0.0,0.0,0.0,0.0,0.0,0.0,0.0,0.0,0.0,0.0,0.0,0.0,0.0,0.0,0.0,0.0,0.0,0.0,0.0,0.0,0.0,0.0,0.0,0.0,0.0,0.0,0.0,0.0,0.0,0.0,0.0,0.0,0.0,0.0,0.0,0.0,0.0,0.0,0.0,0.0,0.0,0.0,0.0,0.0,0.0,0.0,0.0,0.0,0.0,0.0,0.0,0.0,-0.7506,-0.7203,-0.7338,-0.8008,-0.7174,-0.6588,-0.6289,0.0,0.0,0.0,0.0,0.0,0.0,0.0,0.0,0.0,0.0,0.0,0.0,0.0,0.0,0.0,0.0,0.0,0.0,0.0,0.0,0.0,0.0,0.0,0.0,0.0,0.0,0.0,0.0,0.0,0.0,0.0,0.0,0.0,0.0,0.0,0.0,0.0,0.0,0.0,0.0,0.0,0.0,0.0,0.0,0.0,0.0,0.0,0.0,0.0,0.0,0.0,0.0,0.0,0.0,0.0,0.0,0.0,0.0,0.0,0.0,0.0,0.0,0.0,0.0,0.0,0.0,0.0,0.0,0.0,0.0,0.0,0.0,0.0,0.0,0.0,0.0,0.0,0.0,0.0,0.0,0.0,0.0,0.0,0.0,0.0,0.0,0.0,0.0,0.0,0.0,0.0,0.0,0.0,0.0,0.0,0.0,0.0,0.0,0.0,0.0,0.0,0.0,0.0,0.0,0.0,0.0,0.0,0.0,-0.9445,-0.9204,-0.8741,-0.8124,-0.8137,-0.7259,0.0,0.0,0.0,0.0,0.0,0.0,0.0,0.0,0.0,0.0,0.0,0.0,0.0,0.0,0.0,0.0,0.0,0.0,0.0,0.0,0.0,0.0,0.0,0.0,0.0,0.0,0.0,0.0,0.0,0.0,0.0,0.0,0.0,0.0,0.0,0.0,0.0,0.0,0.0,0.0,0.0,0.0,0.0,0.0,0.0,0.0,0.0,0.0,0.0,0.0,0.0,0.0,0.0,0.0,0.0,0.0,0.0,0.0,0.0,0.0,0.0,0.0,0.0,0.0,0.0,0.0,0.0,0.0,0.0,0.0,0.0,0.0,0.0,0.0,0.0,0.0,0.0,0.0,0.0,0.0,0.0,0.0,0.0,0.0,0.0,0.0,0.0,0.0,0.0,0.0,0.0,0.0,0.0,0.0,0.0,0.0,0.0,0.0,0.0,0.0,0.0,0.0,0.0,0.0,0.0,0.0,0.0,0.0,0.0,-1.0207,-1.0661,-1.069,-1.0251,-0.935,-0.8646,0.0,0.0,0.0,0.0,0.0,0.0,0.0,0.0,0.0,0.0,0.0,0.0,0.0,0.0,0.0,0.0,0.0,0.0,0.0,0.0,0.0,0.0,0.0,0.0,0.0,0.0,0.0,0.0,0.0,0.0,0.0,0.0,0.0,0.0,0.0,0.0,0.0,0.0,0.0,0.0,0.0,0.0,0.0,0.0,0.0,0.0,0.0,0.0,0.0,0.0,0.0,0.0,0.0,0.0,0.0,0.0,0.0,0.0,0.0,0.0,0.0,0.0,0.0,0.0,0.0,0.0,0.0,0.0,0.0,0.0,0.0,0.0,0.0,0.0,0.0,0.0,0.0,0.0,0.0,0.0,0.0,0.0,0.0,0.0,0.0,0.0,0.0,0.0,0.0,0.0,0.0,0.0,0.0,0.0,0.0,0.0,0.0,0.0,0.0,0.0,0.0,0.0,0.0,0.0,0.0,0.0,0.0,0.0,-1.0625,-1.1412,-1.1821,-1.2063,-1.2199,-1.0944,-0.9889,0.0,0.0,0.0,0.0,0.0,0.0,0.0,0.0,0.0,0.0,0.0,0.0,0.0,0.0,0.0,0.0,0.0,0.0,0.0,0.0,0.0,0.0,0.0,0.0,0.0,0.0,0.0,0.0,0.0,0.0,0.0,0.0,0.0,0.0,0.0,0.0,0.0,0.0,0.0,0.0,0.0,0.0,0.0,0.0,0.0,0.0,0.0,0.0,0.0,0.0,0.0,0.0,0.0,0.0,0.0,0.0,0.0,0.0,0.0,0.0,0.0,0.0,0.0,0.0,0.0,0.0,0.0,0.0,0.0,0.0,0.0,0.0,0.0,0.0,0.0,0.0,0.0,0.0,0.0,0.0,0.0,0.0,0.0,0.0,0.0,0.0,0.0,0.0,0.0,0.0,0.0,0.0,0.0,0.0,0.0,0.0,0.0,0.0,0.0,0.0,0.0,0.0,0.0,0.0,0.0,0.0,0.0,0.0,-1.154,-1.2724,-1.277,-1.3106,-1.3727,-1.2487,-1.0888,0.0,0.0,0.0,0.0,0.0,0.0,0.0,0.0,0.0,0.0,0.0,0.0,0.0,0.0,0.0,0.0,0.0,0.0,0.0,0.0,0.0,0.0,0.0,0.0,0.0,0.0,0.0,0.0,0.0,0.0,0.0,0.0,0.0,0.0,0.0,0.0,0.0,0.0,0.0,0.0,0.0,0.0,0.0,0.0,0.0,0.0,0.0,0.0,0.0,0.0,0.0,0.0,0.0,0.0,0.0,0.0,0.0,0.0,0.0,0.0,0.0,0.0,0.0,0.0,0.0,0.0,0.0,0.0,0.0,0.0,0.0,0.0,0.0,0.0,0.0,0.0,0.0,0.0,0.0,0.0,0.0,0.0,0.0,0.0,0.0,0.0,0.0,0.0,0.0,0.0,0.0,0.0,0.0,0.0,0.0,0.0,0.0,0.0,0.0,0.0,0.0,0.0,0.0,0.0,0.0,0.0,0.0,0.0,-1.2314,-1.3026,-1.3705,-1.4172,-1.4312,-1.2191,-1.081,0.0,0.0,0.0,0.0,0.0,0.0,0.0,0.0,0.0,0.0,0.0,0.0,0.0,0.0,0.0,0.0,0.0,0.0,0.0,0.0,0.0,0.0,0.0,0.0,0.0,0.0,0.0,0.0,0.0,0.0,0.0,0.0,0.0,0.0,0.0,0.0,0.0,0.0,0.0,0.0,0.0,0.0,0.0,0.0,0.0,0.0,0.0,0.0,-0.8727,0.0,0.0,0.0,0.0,0.0,0.0,0.0,0.0,0.0,0.0,0.0,0.0,0.0,0.0,0.0,0.0,0.0,0.0,0.0,0.0,0.0,0.0,0.0,0.0,0.0,0.0,0.0,0.0,0.0,0.0,0.0,0.0,0.0,0.0,0.0,0.0,0.0,0.0,0.0,0.0,0.0,0.0,0.0,0.0,0.0,0.0,0.0,0.0,0.0,0.0,0.0,0.0,0.0,0.0,0.0,0.0,0.0,0.0,0.0,-1.2377,-1.3704,-1.3893,-1.4141,-1.441,-1.2556,-1.1332,0.0,0.0,0.0,0.0,0.0,0.0,0.0,0.0,0.0,0.0,0.0,0.0,0.0,0.0,0.0,0.0,0.0,0.0,0.0,0.0,0.0,0.0,0.0,0.0,0.0,0.0,0.0,0.0,0.0,0.0,0.0,0.0,0.0,0.0,0.0,0.0,0.0,0.0,0.0,0.0,0.0,0.0,0.0,0.0,0.0,0.0,0.0,0.0,0.0,0.0,0.0,0.0,0.0,0.0,0.0,0.0,0.0,0.0,0.0,0.0,0.0,0.0,0.0,0.0,0.0,0.0,0.0,0.0,0.0,0.0,0.0,0.0,0.0,0.0,0.0,0.0,0.0,0.0,0.0,0.0,0.0,0.0,0.0,0.0,0.0,0.0,0.0,0.0,0.0,0.0,0.0,0.0,0.0,0.0,0.0,0.0,0.0,0.0,0.0,0.0,0.0,0.0,0.0,0.0,0.0,0.0,0.0,-1.0901,-1.2331,-1.4351,-1.3878,-1.387,-1.4452,-1.3066,-1.1925,-1.1096,0.0,0.0,0.0,0.0,0.0,0.0,0.0,0.0,0.0,0.0,0.0,0.0,0.0,0.0,0.0,0.0,0.0,0.0,0.0,0.0,0.0,0.0,0.0,0.0,0.0,0.0,0.0,0.0,0.0,0.0,0.0,0.0,0.0,0.0,0.0,0.0,0.0,0.0,-0.8507,-0.9478,0.0,0.0,0.0,0.0,0.0,0.0,0.0,0.0,-0.9772,0.0,0.0,0.0,0.0,0.0,0.0,0.0,0.0,0.0,0.0,0.0,0.0,0.0,0.0,0.0,0.0,0.0,0.0,0.0,0.0,0.0,0.0,0.0,0.0,0.0,0.0,0.0,0.0,0.0,0.0,0.0,0.0,0.0,0.0,0.0,0.0,0.0,0.0,0.0,0.0,0.0,0.0,0.0,0.0,0.0,0.0,0.0,0.0,0.0,0.0,0.0,0.0,0.0,0.0,0.0,0.0,-1.0876,-1.1696,-1.2897,-1.4453,-1.4386,-1.4368,-1.4444,-1.3075,-1.1925,-1.1079,0.0,0.0,0.0,0.0,0.0,0.0,0.0,0.0,0.0,0.0,0.0,0.0,0.0,0.0,0.0,0.0,0.0,0.0,0.0,0.0,0.0,0.0,0.0,0.0,0.0,0.0,0.0,0.0,0.0,0.0,0.0,0.0,0.0,0.0,0.0,0.0,0.0,0.0,0.0,-1.0782,-1.1205,0.0,0.0,0.0,0.0,0.0,0.0,0.0,0.0,-0.9928,0.0,0.0,0.0,0.0,0.0,0.0,0.0,0.0,0.0,0.0,0.0,0.0,0.0,0.0,0.0,0.0,0.0,0.0,0.0,0.0,0.0,0.0,0.0,0.0,0.0,0.0,0.0,0.0,0.0,0.0,0.0,0.0,0.0,0.0,0.0,0.0,0.0,0.0,0.0,0.0,0.0,0.0,0.0,0.0,0.0,0.0,0.0,0.0,0.0,0.0,0.0,0.0,0.0,0.0,0.0,-1.1044,-1.152,-1.2398,-1.3861,-1.3929,-1.3929,-1.3912,-1.2872,-1.1946,0.0,0.0,0.0,0.0,0.0,0.0,0.0,0.0,0.0,0.0,0.0,0.0,0.0,0.0,0.0,0.0,0.0,0.0,0.0,0.0,0.0,0.0,0.0,0.0,0.0,0.0,0.0,0.0,0.0,0.0,0.0,0.0,0.0,0.0,0.0,0.0,0.0,0.0,0.0,0.0,-1.0994,-1.1352,-1.0984,0.0,0.0,0.0,0.0,0.0,0.0,-1.0315,-1.0315,0.0,0.0,0.0,0.0,0.0,0.0,0.0,0.0,0.0,0.0,0.0,0.0,0.0,0.0,0.0,0.0,0.0,0.0,0.0,0.0,0.0,0.0,0.0,0.0,0.0,0.0,0.0,0.0,0.0,0.0,0.0,0.0,0.0,0.0,0.0,0.0,0.0,0.0,0.0,0.0,0.0,0.0,0.0,0.0,0.0,0.0,0.0,0.0,0.0,0.0,0.0,0.0,0.0,0.0,0.0,-1.1175,-1.117,-1.1849,-1.3312,-1.3396,-1.3396,-1.3379,-1.2541,-1.182,0.0,0.0,0.0,0.0,0.0,0.0,0.0,0.0,0.0,0.0,0.0,0.0,0.0,0.0,0.0,0.0,0.0,0.0,0.0,0.0,0.0,0.0,0.0,0.0,0.0,0.0,0.0,0.0,0.0,0.0,0.0,0.0,0.0,0.0,0.0,0.0,0.0,0.0,0.0,0.0,0.0,-1.1434,-1.159,-1.1507,0.0,0.0,0.0,0.0,-1.0542,-1.1104,0.0,0.0,0.0,0.0,0.0,0.0,0.0,0.0,0.0,0.0,0.0,0.0,0.0,0.0,0.0,0.0,0.0,0.0,0.0,0.0,0.0,0.0,0.0,0.0,0.0,0.0,0.0,0.0,0.0,0.0,0.0,0.0,0.0,0.0,0.0,0.0,0.0,0.0,0.0,0.0,0.0,0.0,0.0,0.0,0.0,0.0,0.0,0.0,0.0,0.0,0.0,0.0,0.0,0.0,0.0,0.0,-1.1158,-1.1179,-1.1855,-1.3303,-1.3396,-1.3396,-1.3379,-1.1984,-1.125,0.0,0.0,0.0,0.0,0.0,0.0,0.0,0.0,0.0,0.0,0.0,0.0,0.0,0.0,0.0,0.0,0.0,0.0,0.0,0.0,0.0,0.0,0.0,0.0,0.0,0.0,0.0,0.0,0.0,0.0,0.0,0.0,0.0,0.0,0.0,0.0,0.0,0.0,0.0,0.0,0.0,-1.2279,-1.0258,-1.1826,-1.2724,0.0,0.0,-1.3123,-1.2905,-1.3563,0.0,0.0,0.0,0.0,0.0,0.0,0.0,0.0,0.0,0.0,0.0,0.0,0.0,0.0,0.0,0.0,0.0,0.0,0.0,0.0,0.0,0.0,0.0,0.0,0.0,0.0,0.0,0.0,0.0,0.0,0.0,0.0,0.0,0.0,0.0,0.0,0.0,0.0,0.0,0.0,0.0,0.0,0.0,0.0,0.0,0.0,0.0,0.0,0.0,0.0,0.0,0.0,0.0,0.0,0.0,-0.8369,-1.1277,-1.122,-1.1832,-1.3328,-1.3396,-1.3193,-1.277,-1.1671,-1.1001,0.0,0.0,0.0,0.0,0.0,0.0,0.0,0.0,0.0,0.0,0.0,0.0,0.0,0.0,0.0,0.0,0.0,0.0,0.0,0.0,0.0,0.0,0.0,0.0,0.0,0.0,0.0,0.0,0.0,0.0,0.0,0.0,0.0,0.0,0.0,0.0,0.0,0.0,0.0,0.0,0.0,0.0,-1.2603,-1.3486,0.0,0.0,0.0,-1.4126,-1.4,0.0,0.0,0.0,0.0,0.0,0.0,0.0,0.0,0.0,0.0,0.0,0.0,0.0,0.0,0.0,0.0,0.0,0.0,0.0,0.0,0.0,0.0,0.0,0.0,0.0,0.0,0.0,0.0,0.0,0.0,0.0,0.0,0.0,0.0,0.0,0.0,0.0,0.0,0.0,0.0,0.0,0.0,0.0,0.0,0.0,0.0,0.0,0.0,0.0,0.0,0.0,0.0,0.0,0.0,0.0,0.0,0.0,-1.141,-1.1229,-1.1838,-1.3328,-1.3202,-1.2871,-1.2305,-1.135,0.0,0.0,0.0,0.0,0.0,0.0,0.0,0.0,0.0,0.0,0.0,0.0,0.0,0.0,0.0,0.0,0.0,0.0,0.0,0.0,0.0,0.0,0.0,0.0,0.0,0.0,0.0,-0.5031,0.0,0.0,0.0,0.0,0.0,0.0,0.0,0.0,0.0,0.0,0.0,0.0,0.0,0.0,-1.3627,-1.4528,-1.5023,-1.5592,0.0,0.0,-1.5407,-1.4871,-1.5148,-1.4667,0.0,0.0,0.0,0.0,0.0,0.0,0.0,0.0,0.0,0.0,0.0,0.0,0.0,0.0,0.0,0.0,0.0,0.0,0.0,0.0,0.0,0.0,0.0,0.0,0.0,0.0,0.0,0.0,0.0,0.0,0.0,0.0,0.0,0.0,0.0,0.0,0.0,0.0,0.0,0.0,0.0,0.0,0.0,0.0,0.0,0.0,0.0,0.0,0.0,0.0,0.0,0.0,0.0,0.0,0.0,-1.1354,-1.1229,-1.1855,-1.3312,-1.2711,-1.2348,-1.228,-1.0837,-1.0171,0.0,0.0,0.0,0.0,0.0,0.0,0.0,0.0,0.0,0.0,0.0,0.0,0.0,0.0,0.0,0.0,0.0,0.0,0.0,0.0,0.0,0.0,0.0,0.0,0.0,0.0,0.0,0.0,0.0,0.0,0.0,0.0,0.0,0.0,0.0,0.0,0.0,0.0,0.0,0.0,0.0,-1.3612,-1.44,-1.5908,-1.7,0.0,0.0,-1.7491,-1.5864,-1.6867,-1.6601,-1.2905,0.0,0.0,0.0,0.0,0.0,0.0,0.0,0.0,0.0,0.0,0.0,0.0,0.0,0.0,0.0,0.0,0.0,0.0,0.0,0.0,0.0,0.0,0.0,0.0,0.0,0.0,0.0,0.0,0.0,0.0,0.0,0.0,0.0,0.0,0.0,0.0,0.0,0.0,0.0,0.0,0.0,0.0,0.0,0.0,0.0,0.0,0.0,0.0,0.0,0.0,0.0,0.0,0.0,-0.8416,-1.1437,-1.1238,-1.1832,-1.3303,-1.2693,-1.2052,-1.157,-1.0546,-0.9874,0.0,0.0,0.0,0.0,0.0,0.0,0.0,0.0,0.0,0.0,0.0,0.0,0.0,0.0,0.0,0.0,0.0,0.0,0.0,0.0,0.0,0.0,0.0,0.0,0.0,0.0,0.0,0.0,-0.7098,-0.7434,-0.6994,0.0,0.0,0.0,0.0,0.0,0.0,0.0,0.0,0.0,0.0,-1.5226,-1.6478,-1.734,0.0,0.0,-1.8395,-1.822,-1.796,-1.7601,-1.6529,-1.4109,-1.357,0.0,0.0,0.0,0.0,0.0,0.0,0.0,0.0,0.0,0.0,0.0,0.0,0.0,0.0,0.0,0.0,0.0,0.0,0.0,0.0,0.0,0.0,0.0,0.0,0.0,0.0,0.0,0.0,0.0,0.0,0.0,0.0,0.0,0.0,0.0,0.0,0.0,0.0,0.0,0.0,0.0,0.0,0.0,0.0,0.0,0.0,0.0,0.0,0.0,0.0,0.0,0.0,-0.8425,-1.1446,-1.1221,-1.1832,-1.3362,-1.2441,-1.1671,-1.111,-1.0174,-0.9483,0.0,0.0,0.0,0.0,0.0,0.0,0.0,0.0,0.0,0.0,0.0,0.0,0.0,0.0,0.0,0.0,0.0,0.0,0.0,0.0,0.0,0.0,0.0,0.0,0.0,0.0,0.0,0.0,-0.7353,-0.7665,-0.7095,0.0,0.0,0.0,0.0,0.0,0.0,0.0,0.0,0.0,0.0,-1.6515,-1.7738,-1.8313,-1.8795,-1.9307,-1.8989,-1.8696,-1.8689,-1.7954,-1.6661,-1.4631,0.0,0.0,0.0,0.0,0.0,0.0,0.0,0.0,0.0,0.0,0.0,0.0,0.0,0.0,0.0,0.0,0.0,0.0,0.0,0.0,0.0,0.0,0.0,0.0,0.0,0.0,0.0,-0.5589,0.0,0.0,-0.4553,0.0,0.0,0.0,0.0,0.0,0.0,0.0,0.0,0.0,0.0,0.0,0.0,0.0,0.0,0.0,0.0,0.0,0.0,0.0,0.0,0.0,0.0,-0.8434,-1.1446,-1.1238,-1.1847,-1.3312,-1.1899,-1.1138,-1.1071,-0.9696,-0.8985,-0.9071,0.0,0.0,0.0,0.0,0.0,0.0,0.0,0.0,0.0,0.0,0.0,0.0,0.0,0.0,0.0,0.0,0.0,0.0,0.0,0.0,0.0,0.0,0.0,0.0,0.0,0.0,-0.5089,-0.5723,-0.63,0.0,0.0,0.0,0.0,0.0,0.0,0.0,0.0,0.0,0.0,-1.5866,-1.7083,-1.7674,-1.861,-1.9339,-1.9557,-1.9553,-1.9057,-1.7645,-1.7912,-1.7296,0.0,0.0,0.0,0.0,0.0,0.0,0.0,0.0,0.0,0.0,0.0,0.0,0.0,0.0,0.0,0.0,0.0,0.0,0.0,0.0,0.0,0.0,0.0,0.0,0.0,0.0,0.0,-0.6819,-0.6672,0.0,0.0,0.0,0.0,0.0,0.0,0.0,0.0,0.0,0.0,0.0,-0.9942,-0.9977,0.0,0.0,0.0,0.0,0.0,0.0,0.0,0.0,0.0,0.0,0.0,0.0,-0.8896,-1.123,-1.1197,-1.1849,-1.332,-1.1906,-1.1104,-1.1079,-0.9658,-0.8697,-0.832,0.0,0.0,0.0,0.0,0.0,0.0,0.0,0.0,0.0,0.0,0.0,0.0,0.0,0.0,0.0,0.0,0.0,0.0,0.0,0.0,0.0,0.0,0.0,0.0,0.0,-0.702,0.0,0.0,0.0,0.0,0.0,0.0,0.0,0.0,0.0,0.0,0.0,-1.4361,-1.5946,-1.7063,-1.7968,-1.8665,-1.9051,-1.9326,0.0,0.0,0.0,0.0,0.0,0.0,0.0,0.0,0.0,0.0,0.0,0.0,0.0,0.0,-1.7289,-1.4092,-1.3293,-1.2986,-1.247,0.0,0.0,0.0,0.0,0.0,0.0,0.0,0.0,0.0,0.0,0.0,0.0,0.0,0.0,-0.7888,0.0,-0.7684,0.0,0.0,0.0,0.0,0.0,0.0,0.0,0.0,-0.9229,-0.9836,-1.0772,-1.0664,-1.0823,0.0,-1.0925,-0.9899,0.0,0.0,0.0,0.0,0.0,0.0,0.0,0.0,-0.9359,-1.1201,-1.1437,-1.2134,-1.3286,-1.2162,-1.1392,-1.1101,-0.967,-0.8693,-0.8259,-0.83,-0.8237,0.0,0.0,0.0,0.0,0.0,0.0,0.0,0.0,0.0,0.0,0.0,0.0,0.0,0.0,0.0,0.0,0.0,0.0,0.0,0.0,0.0,0.0,0.0,-0.7638,0.0,0.0,0.0,0.0,0.0,0.0,0.0,0.0,0.0,-1.4309,-1.4829,-1.5577,-1.7161,-1.8047,-1.8702,-1.924,0.0,0.0,0.0,0.0,0.0,0.0,0.0,-1.807,-1.7534,-1.7253,-1.6914,-1.6399,-1.7615,-1.8273,-1.7152,0.0,0.0,-1.5618,-1.4892,-1.4559,-1.4064,-1.4148,-1.44,-1.4699,-1.5115,-1.5417,0.0,0.0,0.0,0.0,0.0,0.0,0.0,0.0,-0.9048,-0.9212,0.0,-0.8684,0.0,0.0,0.0,0.0,0.0,-0.9075,0.0,0.0,-1.0568,-1.0832,-1.0822,-1.0481,-1.0717,-1.154,-1.186,-1.1687,-1.1017,-0.9108,0.0,0.0,0.0,0.0,0.0,0.0,-0.9812,-1.1317,-1.1957,-1.2659,-1.3345,-1.2677,-1.1882,-1.1054,-0.9645,-0.8902,-0.8894,-0.8988,-0.8738,-0.7991,-0.8125,0.0,0.0,0.0,0.0,0.0,0.0,0.0,0.0,0.0,0.0,0.0,0.0,0.0,0.0,0.0,0.0,0.0,0.0,0.0,0.0,-0.7,0.0,0.0,0.0,0.0,0.0,0.0,0.0,0.0,0.0,0.0,-1.4768,-1.5383,-1.6353,-1.7931,0.0,0.0,0.0,0.0,-1.9429,-1.9667,-2.0336,-2.056,-1.9879,-2.0303,-2.0229,-1.8677,0.0,0.0,-1.7248,-1.8271,-1.8785,-1.7284,-1.8289,-1.9051,-1.8216,-1.7397,-1.6948,-1.6922,-1.6323,-1.6191,-1.6882,-1.6962,-1.6848,-0.9334,0.0,0.0,0.0,0.0,-0.8496,-0.9117,-0.9957,-1.0008,-1.015,-1.0353,-1.0171,0.0,0.0,0.0,0.0,0.0,0.0,-1.0352,-1.0812,-1.0952,-1.1303,-1.1803,-1.1683,-1.1954,-1.2575,-1.2683,-1.2457,-1.195,-1.1367,-1.0173,-0.8457,0.0,0.0,0.0,0.0,-1.1101,-1.1959,-1.2217,-1.2659,-1.3379,-1.2669,-1.1663,-1.0356,-0.9408,-0.8911,-0.8911,-0.8936,-0.8898,-0.8756,-0.8265,0.0,0.0,0.0,0.0,0.0,0.0,0.0,0.0,0.0,0.0,0.0,0.0,0.0,0.0,0.0,0.0,0.0,0.0,0.0,-0.7852,-0.8052,-0.8486,0.0,0.0,0.0,0.0,0.0,0.0,0.0,0.0,0.0,-1.5806,-1.677,-1.7794,0.0,0.0,-1.9519,-2.0069,-2.017,-2.0398,-2.1078,-2.1371,0.0,-2.1235,-2.0852,-2.0636,-2.0784,-2.045,-1.9812,-1.8785,-1.8977,-1.9143,-1.8656,-1.9002,-1.9231,-1.8977,-1.8313,-1.7624,-1.7122,-1.7192,-1.7495,-1.7767,-1.8208,-1.8546,-1.0767,-0.9954,-0.9669,-0.9525,-0.9473,-0.9996,-1.0493,-1.1017,-1.1241,-1.1579,-1.1947,-1.1417,-1.1042,-1.0773,-1.0565,0.0,0.0,0.0,-1.1729,-1.2158,-1.2166,-1.2328,-1.2592,-1.271,-1.2832,-1.2995,-1.3111,-1.3017,-1.2744,-1.2728,-1.1921,-1.0369,0.0,0.0,-0.9884,-1.1069,-1.1903,-1.2304,-1.2584,-1.2948,-1.3388,-1.2669,-1.1696,-1.0495,-0.9717,-0.9205,-0.8919,-0.8911,-0.8944,-0.9015,-0.8663,-0.8742,0.0,0.0,0.0,0.0,0.0,0.0,0.0,0.0,0.0,0.0,0.0,-0.6126,-0.5479,0.0,0.0,0.0,-0.747,-0.9259,-0.9435,-0.9741,0.0,0.0,0.0,0.0,0.0,0.0,0.0,-1.2891,-1.5075,-1.6866,-1.7433,-1.8397,-1.9234,-1.9711,-2.006,-2.0464,-2.096,0.0,-2.1198,-2.1738,-2.2061,-2.2226,-2.2133,-2.1776,-2.1574,-2.174,-2.1372,-2.0739,-1.9932,-1.9767,-1.9666,-1.9381,-1.9295,-1.9295,-1.9295,-1.8886,-1.8445,-1.7968,-1.8234,-1.8555,-1.8574,-1.8968,-1.9295,-1.172,-1.1698,-1.107,-1.061,-1.0424,-1.1622,-1.2083,-1.1992,-1.2541,-1.317,-1.368,-1.2501,-1.1962,-1.1925,-1.1495,0.0,-1.3153,-1.3153,-1.3371,-1.3802,-1.3802,-1.3603,-1.3259,-1.35,-1.346,-1.3149,-1.3392,-1.3498,-1.3489,-1.3498,-1.3109,-1.239,-1.1646,-1.1257,-1.1248,-1.1999,-1.2398,-1.2381,-1.3066,-1.3396,-1.3388,-1.2693,-1.1916,-1.1127,-1.0389,-0.965,-0.8934,-0.8911,-0.8911,-0.8911,-0.9129,-0.9168,-0.8915,0.0,0.0,0.0,0.0,0.0,0.0,0.0,0.0,0.0,0.0,0.0,0.0,0.0,0.0,0.0,-0.9241,0.0,-1.1067,-1.1719,0.0,0.0,0.0,-1.3532,-1.3651,-1.498,-1.5622,-1.4952,0.0,0.0,-1.9381,-2.0207,-2.0686,-2.0695,-2.1327,-2.1821,-2.1894,-2.1877,-2.1896,-2.2052,-2.263,-2.3006,-2.2832,-2.2905,-2.2776,-2.2088,-2.1886,-2.1584,-2.0803,-2.0466,-2.0198,-1.9583,-1.9369,-1.9295,-1.9295,-1.9243,-1.9295,-1.9216,-1.925,-1.9268,-1.925,-1.9277,-1.9295,-1.281,-1.2818,-1.2652,-1.2082,-1.1279,-1.1616,-1.202,-1.2512,-1.2667,-1.3145,-1.3787,-1.3473,-1.3331,-1.3316,-1.3214,-1.3327,-1.362,-1.3645,-1.3702,-1.3802,-1.3802,-1.3753,-1.3662,-1.3727,-1.3961,-1.4288,-1.4349,-1.4336,-1.4241,-1.425,-1.3853,-1.3168,-1.2947,-1.2566,-1.206,-1.2778,-1.3151,-1.3142,-1.3312,-1.3396,-1.3379,-1.2685,-1.1925,-1.1121,-1.0389,-0.965,-0.8936,-0.8911,-0.8911,-0.8911,-0.8968,-0.9066,-0.9189,-0.8373,0.0,0.0,0.0,0.0,0.0,0.0,0.0,0.0,0.0,-0.7543,-0.648,0.0,-0.7488,0.0,-0.9243,-1.2021,-1.1838,-1.2545,0.0,0.0,-1.4637,-1.5383,-1.5993,-1.6944,-1.7225,-1.6483,-1.8478,-2.0244,-2.1105,-2.1905,-2.241,-2.2392,-2.2061,-2.2006,-2.2602,-2.2712,-2.2932,-2.3483,-2.374,-2.3887,-2.3795,-2.3859,-2.3621,-2.2859,-2.2731,-2.2437,-2.1639,-2.0923,-2.0411,-2.02,-1.9684,-1.9351,-1.9295,-1.9295,-1.9295,-1.9295,-1.9295,-1.9295,-1.9295,-1.9295,-1.9295,-1.321,-1.321,-1.321,-1.2835,-1.2316,-1.2532,-1.2856,-1.3239,-1.3624,-1.3998,-1.4361,-1.4277,-1.4244,-1.4236,-1.4244,-1.4408,-1.4677,-1.4685,-1.4692,-1.4692,-1.4685,-1.46,-1.4435,-1.4427,-1.4509,-1.4651,-1.4651,-1.4607,-1.4537,-1.4375,-1.4074,-1.3657,-1.3489,-1.3201,-1.2829,-1.3201,-1.3396,-1.3396,-1.3396,-1.3396,-1.3388,-1.3015,-1.2262,-1.113,-1.0715,-0.9988,-0.8953,-0.8911,-0.8925,-0.8973,-0.9045,-0.9088,-0.9119,-0.8576,-0.7835,0.0,0.0,0.0,0.0,0.0,0.0,0.0,0.0,0.0,0.0,0.0,-1.0058,-0.9208,-1.2241,-1.4093,-1.3728,-1.4417,-1.5086,-1.5515,-1.6279,-1.6949,-1.7394,-1.8151,-1.8463,-1.8032,-1.9448,-2.1116,-2.263,-2.2951,-2.3134,-2.3474,-2.3144,-2.3015,-2.3428,-2.3529,-2.3712,-2.4116,-2.4199,-2.4199,-2.4199,-2.4199,-2.4043,-2.3657,-2.3547,-2.3263,-2.2474,-2.185,-2.1262,-2.0604,-1.9849,-1.9305,-1.9295,-1.9295,-1.9295,-1.9295,-1.9295,-1.9295,-1.9295,-1.9295,-1.9295,-1.3163,-1.3204,-1.321,-1.321,-1.3245,-1.3648,-1.3828,-1.3934,-1.4665,-1.5006,-1.5091,-1.4989,-1.4917,-1.4924,-1.4944,-1.5259,-1.5799,-1.5814,-1.5814,-1.5814,-1.5814,-1.5616,-1.5288,-1.5272,-1.5125,-1.4821,-1.4821,-1.4805,-1.481,-1.4356,-1.4123,-1.404,-1.3612,-1.3396,-1.3396,-1.3396,-1.3396,-1.3396,-1.3396,-1.3396,-1.3396,-1.3396,-1.2668,-1.1189,-1.1104,-1.0394,-0.8996,-0.8911,-0.8957,-0.9066,-0.9196,-0.9168,-0.8951,-0.8665,-0.885,0.0,-0.821,0.0,0.0,0.0,0.0,0.0,0.0,0.0,0.0,-1.0819,-1.2379,-1.4708,-1.6303,-1.6835,-1.5931,-1.6578,-1.7055,-1.7073,-1.7761,-1.8262,-1.828,-1.8876,-1.9295,-1.9295,-2.0097,-2.1593,-2.374,-2.3575,-2.3465,-2.4015,-2.4098,-2.4061,-2.4162,-2.4144,-2.4153,-2.4199,-2.4199,-2.4199,-2.4199,-2.4199,-2.4199,-2.4181,-2.4135,-2.396,-2.3281,-2.2804,-2.2171,-2.096,-1.9941,-1.9323,-1.9295,-1.9295,-1.9295,-1.9295,-1.9295,-1.9295,-1.9295,-1.9295,-1.9295,-1.2867,-1.321,-1.321,-1.321,-1.3204,-1.3295,-1.3554,-1.3894,-1.4065,-1.4494,-1.5127,-1.5455,-1.5604,-1.5619,-1.5611,-1.5679,-1.5814,-1.5814,-1.5814,-1.5814,-1.5814,-1.576,-1.5689,-1.5689,-1.5788,-1.5967,-1.5993,-1.5953,-1.5893,-1.5209,-1.4733,-1.4404,-1.3743,-1.3396,-1.3396,0.0,0.0,0.0,-1.3396,-1.3396,-1.3396,-1.3396,-1.2652,-1.1172,-1.1104,0.0,-0.9004,-0.8911,-0.8913,-0.8936,-0.8957,0.0,0.0,0.0,0.0,0.0,0.0,0.0,0.0,0.0,0.0,0.0,-1.1425,-1.1214,-1.0746,-1.1452,-1.3389,-1.6743,-1.8146,-1.8262,-1.6835,-1.7394,-1.7876,-1.7904,-1.8592,-1.9093,-1.9078,-1.9207,-1.9295,-1.9323,-2.0627,-2.2198,-2.3832,-2.4043,-2.4025,-2.4153,-2.4199,-2.4199,-2.4199,-2.4199,-2.4199,-2.4199,-2.4199,-2.4199,-2.4199,-2.4199,-2.4199,-2.4199,-2.4199,-2.4125,-2.3914,-2.3189,-2.2428,-2.1602,-2.0326,-1.9295,-1.9295,-1.9295,-1.9295,-1.9295,-1.9295,-1.9295,-1.9295,-1.9295,-1.9295,-1.2768,0.0,-1.321,-1.321,0.0,-1.321,-1.3329,-1.3594,-1.3802,-1.4342,-1.5104,-1.5359,-1.5573,-1.5814,-1.5814,-1.5814,-1.5814,-1.5814,-1.5814,-1.5814,-1.5814,-1.5814,-1.5814,-1.5814,-1.5913,-1.6039,-1.606,-1.6034,-1.5946,-1.5215,-1.4762,-1.4542,-1.3778,-1.3396,-1.3396,-1.3396,-1.3396,-1.3396,-1.3396,-1.3396,-1.3396,-1.3396,-1.2847,-1.173,-1.1299,0.0,0.0,0.0,0.0,0.0,0.0,0.0,0.0,0.0,0.0,-1.0359,-1.0063,-1.0088,-1.0552,-1.0579,-1.1151,-1.244,-1.3007,-1.2883,-1.1966,-1.3461,-1.5368,-1.7477,-1.8675,-1.8968,-1.8197,-1.8463,-1.8702,-1.8702,-1.906,-1.9295,-1.9295,-1.9295,-1.951,-2.0088,-2.1086,-2.2409,-2.3988,-2.4199,-2.4199,-2.4199,-2.4199,-2.4199,-2.4199,-2.4199,-2.4199,-2.4199,-2.4199,-2.4199,-2.4199,-2.4199,-2.4199,-2.4199,-2.4199,-2.4199,-2.4199,-2.3749,-2.307,-2.1986,-2.0434,-1.9299,-1.9295,-1.9295,-1.9295,-1.9295,-1.9295,-1.9295,-1.9295,-1.9295,-1.9295,-1.2685,-1.321,-1.321,-1.321,-1.321,-1.321,-1.321,-1.3239,0.0,0.0,0.0,-1.5066,-1.5352,-1.5806,-1.5814,-1.5814,-1.5814,-1.5814,-1.5814,-1.5814,-1.5814,-1.5814,-1.5814,-1.5814,-1.5814,-1.5814,-1.5814,-1.582,-1.5845,-1.4979,-1.4591,-1.4591,-1.3778,-1.3362,-1.3396,-1.3396,-1.3396,-1.3396,-1.3396,-1.3396,-1.3396,-1.3396,-1.3049,-1.2314,-1.1654,-1.0969,-1.0203,-0.9607,-0.933,-0.9442,-0.9442,-0.9385,-0.928,-0.9978,-1.0729,-1.1443,-1.1537,-1.1624,-1.17,-1.1721,-1.2147,-1.3122,-1.4143,-1.4361,-1.3526,-1.557,-1.7211,-1.7917,-1.8794,-1.9295,-1.9295,-1.9295,-1.9295,-1.9295,-1.9295,-1.9295,-1.9305,-1.9445,-1.9895,-2.0776,-2.1547,-2.2547,-2.3969,-2.4199,-2.4199,-2.4199,-2.4199,-2.4199,-2.4199,-2.4199,-2.4199,-2.4199,-2.4199,-2.4199,-2.4199,-2.4199,-2.4199,-2.4199,-2.4199,-2.4199,-2.4199,-2.4199,-2.3556,-2.2069,-2.0443,-1.9479,-1.9295,-1.9295,-1.9295,-1.9295,-1.9295,-1.9295,-1.9295,-1.9295,-1.9295,-1.2395,-1.321,-1.321,-1.321,-1.321,-1.321,-1.321,-1.3232,-1.3722,-1.4149,-1.4596,-1.4959,-1.5366,-1.5814,-1.5814,-1.5814,-1.5814,-1.5814,-1.5814,-1.5814,-1.5814,-1.5814,-1.5814,-1.5814,-1.5814,-1.5814,-1.5814,-1.5955,-1.6057,-1.4889,-1.4529,-1.4788,-1.3705,-1.3173,-1.3379,-1.3396,-1.3396,-1.3396,-1.3396,-1.3396,-1.3396,-1.3396,-1.3049,-1.2339,-1.2187,-1.1764,-1.0986,-1.0825,-1.0805,-1.0824,-1.0824,-1.0267,-0.9085,-0.9892,-1.1197,-1.2854,-1.2309,-1.2041,-1.2503,-1.2517,-1.2957,-1.3972,-1.4964,-1.5554,-1.567,-1.6404,-1.7495,-1.8876,-1.9198,-1.9295,-1.9295,-1.9295,-1.9295,-1.9295,-1.9295,-1.9295,-1.9305,-1.9858,-2.0409,-2.0904,-2.2052,-2.3107,-2.3979,-2.4199,-2.4199,-2.4199,-2.4199,-2.4199,-2.4199,-2.4199,-2.4199,-2.4199,-2.4199,-2.4199,-2.4199,-2.4199,-2.4199,-2.4199,-2.4199,-2.4199,-2.4199,-2.4199,-2.3593,-2.2087,-2.0443,-1.9442,-1.9295,-1.9295,-1.9295,-1.9295,-1.9295,-1.9295,-1.9295,-1.9295,-1.9295,-1.2533,-1.3182,-1.321,-1.321,-1.321,-1.321,-1.321,-1.3232,-1.3419,-1.3908,-1.4501,-1.4697,-1.5172,-1.5777,-1.5814,-1.5814,-1.5814,-1.5814,-1.5814,-1.5814,-1.5814,-1.5814,-1.5814,-1.5814,-1.5814,-1.5814,-1.5814,-1.5877,-1.5918,-1.4796,-1.4335,-1.4524,-1.3523,-1.3138,-1.3388,-1.3396,-1.3396,-1.3396,-1.3396,-1.3396,-1.3396,-1.3396,-1.3244,-1.2914,-1.2517,-1.2136,-1.1756,-1.1333,-1.1104,-1.1104,-1.1104,-1.0805,-1.0161,-1.0808,-1.1874,-1.3269,-1.2981,-1.2825,-1.3065,-1.3246,-1.3755,-1.4632,-1.5305,-1.6078,-1.6908,-1.6927,-1.7578,-1.9097,-1.9295,-1.9295,-1.9295,-1.9295,-1.9295,-1.9295,-1.9295,-1.9295,-1.9308,-1.9592,-2.0253,-2.1216,-2.1932,-2.2822,-2.4052,-2.4199,-2.4199,-2.4199,-2.4199,-2.4199,-2.4199,-2.4199,-2.4199,-2.4199,-2.4199,-2.4199,-2.4199,-2.4199,-2.4199,-2.4199,-2.4199,-2.4199,-2.4199,-2.4199,-2.3511,-2.2087,-2.0443,-1.9442,-1.9295,-1.9295,-1.9295,-1.9295,-1.9295,-1.9295,-1.9295,-1.9295,-1.9295,-1.268,-1.3156,-1.3198,-1.3171,-1.321,-1.321,-1.321,-1.321,-1.3204,-1.3648,-1.431,-1.4463,-1.4937,-1.5602,-1.5733,-1.5814,-1.5814,-1.5814,-1.5814,-1.5814,-1.5814,-1.5814,-1.5814,-1.5814,-1.5814,-1.5814,-1.5814,-1.5814,-1.5692,-1.4795,-1.4245,-1.4015,-1.3343,-1.3138,-1.3396,-1.3396,-1.3396,-1.3396,-1.3396,-1.3396,-1.3396,-1.3396,-1.3396,-1.3362,-1.2854,-1.2551,-1.2524,-1.1942,-1.1612,-1.1612,-1.162,-1.162,-1.1629,-1.2009,-1.2593,-1.3303,-1.3396,-1.3396,-1.3413,-1.3674,-1.4182,-1.4962,-1.5531,-1.6365,-1.7497,-1.7568,-1.7931,-1.906,-1.9295,-1.9295,-1.9295,-1.9295,-1.9295,-1.9295,-1.9295,-1.9295,-1.9305,-1.9452,-2.0106,-2.1501,-2.1932,-2.2657,-2.3786,-2.4199,-2.4199,-2.4199,-2.4199,-2.4199,-2.4199,-2.4199,-2.4199,-2.4199,-2.4199,-2.4199,-2.4199,-2.4199,-2.4199,-2.4199,-2.4199,-2.4199,-2.4199,-2.4199,-2.3556,-2.2087,-2.0443,-1.947,-1.9295,-1.9295,-1.9295,-1.9295,-1.9295,-1.9295,-1.9295,-1.9295,-1.9295,-1.2625,-1.3065,-1.3142,-1.3156,-1.3182,-1.321,-1.321,-1.321,-1.321,-1.3486,-1.396,-1.4335,-1.4721,-1.5195,-1.561,-1.5777,-1.5814,-1.5814,-1.5814,-1.5814,-1.5814,-1.5814,-1.5814,-1.5814,-1.5814,-1.5814,-1.5814,-1.5814,-1.5769,-1.5084,-1.4385,-1.3685,-1.3206,-1.317,-1.3371,-1.3405,-1.3405,-1.3396,-1.3396,-1.3396,-1.3396,-1.3396,-1.3396,-1.3396,-1.3337,-1.3295,-1.3261,-1.3235,-1.3176,-1.3185,-1.3134,-1.3168,-1.3176,-1.3227,-1.3295,-1.3396,-1.3396,-1.3396,-1.3421,-1.3542,-1.4012,-1.4784,-1.5741,-1.6663,-1.7657,-1.8532,-1.9087,-1.9256,-1.928,-1.9295,-1.9295,-1.9295,-1.9295,-1.9295,-1.9295,-1.9295,-1.9354,-1.9941,-2.0758,-2.1665,-2.2327,-2.3235,-2.3979,-2.4199,-2.4199,-2.4199,-2.4199,-2.4199,-2.4199,-2.4199,-2.4199,-2.4199,-2.4199,-2.4199,-2.4199,-2.4199,-2.4199,-2.4199,-2.4199,-2.4199,-2.4199,-2.4125,-2.3676,-2.207,-2.0427,-1.9381,-1.9295,-1.9295,-1.9295,-1.9295,-1.9295,-1.9295,-1.9295,-1.9295,-1.9295,-1.3077,-1.3604,-1.3241,-1.3119,-1.3195,-1.321,-1.321,-1.321,-1.321,-1.3288,-1.3514,-1.396,-1.4508,-1.5097,-1.5322,-1.5522,-1.5799,-1.5814,-1.5814,-1.5814,-1.5814,-1.5814,-1.5814,-1.5814,-1.5814,-1.5814,-1.5814,-1.5814,-1.5694,-1.5104,-1.4514,-1.3992,-1.3788,-1.366,-1.3532,-1.3685,-1.3569,-1.3164,-1.3329,-1.3396,-1.3396,-1.3396,-1.3396,-1.3396,-1.3396,-1.3396,-1.3396,-1.3396,-1.3396,-1.3396,-1.3396,-1.3396,-1.3396,-1.3396,-1.3396,-1.3396,-1.3396,-1.3396,-1.3396,-1.3963,-1.4648,-1.5462,-1.6413,-1.7329,-1.8164,-1.8899,-1.9187,-1.8955,-1.912,-1.9295,-1.928,-1.9295,-1.9295,-1.9295,-1.9295,-1.928,-1.9305,-1.9583,-2.028,-2.1573,-2.2079,-2.2795,-2.3869,-2.4199,-2.4199,-2.4199,-2.4199,-2.4199,-2.4199,-2.4199,-2.4199,-2.4199,-2.4199,-2.4199,-2.4199,-2.4199,-2.4199,-2.4199,-2.4199,-2.4199,-2.4199,-2.4199,-2.3667,-2.2061,-2.0427,-1.939,-1.9295,-1.9295,-1.9295,-1.9295,-1.9295,-1.9295,-1.9295,-1.9295,-1.9295,-1.3356,-1.3865,-1.3658,-1.3527,-1.343,-1.3458,-1.337,-1.321,-1.321,-1.321,-1.3239,-1.3547,-1.4117,-1.4752,-1.5006,-1.5299,-1.558,-1.5741,-1.5814,-1.5814,-1.5814,-1.5814,-1.5814,-1.5814,-1.5814,-1.5814,-1.5814,-1.5814,-1.5731,-1.5119,-1.4679,-1.4475,-1.4276,-1.3999,-1.3648,-1.3808,-1.359,-1.3079,-1.3199,-1.3329,-1.3379,-1.3396,-1.3396,-1.3396,-1.3396,-1.3396,-1.3396,-1.3396,-1.3396,-1.3396,-1.3396,-1.3396,-1.3396,-1.3396,-1.3396,-1.3396,-1.3396,-1.3396,-1.3396,-1.4213,-1.5063,-1.5841,-1.6715,-1.757,-1.8334,-1.8735,-1.8789,-1.8698,-1.8771,-1.8894,-1.9106,-1.9097,-1.9097,-1.9106,-1.9164,-1.923,-1.9221,-1.9243,-1.9975,-2.1472,-2.1674,-2.2226,-2.3703,-2.4006,-2.3869,-2.4135,-2.4199,-2.4199,-2.4199,-2.4199,-2.4199,-2.4199,-2.4199,-2.4199,-2.4199,-2.4199,-2.4199,-2.4199,-2.4199,-2.4199,-2.4199,-2.4199,-2.3657,-2.207,-2.0427,-1.9445,-1.9323,-1.9295,-1.9295,-1.9295,-1.9295,-1.9295,-1.9295,-1.9295,-1.9295,-1.3274,-1.3978,-1.456,-1.45,-1.4041,-1.4028,-1.3703,-1.321,-1.321,-1.321,-1.321,-1.3232,-1.352,-1.4019,-1.4728,-1.5111,-1.5195,-1.561,-1.5814,-1.5814,-1.5814,-1.5814,-1.5814,-1.5814,-1.5814,-1.5814,-1.5814,-1.5814,-1.5754,-1.5169,-1.4921,-1.5098,-1.4592,-1.4054,-1.3711,-1.368,-1.342,-1.3077,-1.3012,-1.3121,-1.3354,-1.3379,-1.3363,-1.3379,-1.3396,-1.3396,-1.3396,-1.3396,-1.3396,-1.3396,-1.3396,-1.3396,-1.3396,-1.3396,-1.3396,-1.3396,-1.3396,-1.3413,-1.3523,-1.4184,-1.4895,-1.5626,-1.6458,-1.7176,-1.8071,-1.8095,-1.8158,-1.8528,-1.8191,-1.8158,-1.8548,-1.8689,-1.8689,-1.8698,-1.8869,-1.9001,-1.9001,-1.9148,-2.0035,-2.1253,-2.1428,-2.2042,-2.3841,-2.3529,-2.3621,-2.4006,-2.4199,-2.4199,-2.4199,-2.4199,-2.4199,-2.4199,-2.4199,-2.4199,-2.4199,-2.4199,-2.4199,-2.4199,-2.4199,-2.4125,-2.4181,-2.4015,-2.3144,-2.2042,-2.04,-1.947,-1.9351,-1.9295,-1.9295,-1.9295,-1.9295,-1.9295,-1.9295,-1.9295,-1.9295,-1.33,-1.4002,-1.4973,-1.4922,-1.4116,-1.4085,-1.3783,-1.3223,-1.321,-1.321,-1.321,-1.321,-1.3288,-1.3493,-1.4335,-1.4852,-1.5127,-1.5573,-1.5814,-1.5814,-1.5814,-1.5814,-1.5814,-1.5814,-1.5814,-1.5814,-1.5814,-1.5814,-1.5791,-1.5544,-1.5495,-1.5548,-1.5337,-1.4954,-1.4424,-1.4116,-1.3692,-1.3159,-1.2886,-1.2789,-1.2889,-1.2889,-1.297,-1.3138,-1.3303,-1.3396,-1.3396,-1.3396,-1.3396,-1.3396,-1.3396,-1.3396,-1.3396,-1.3396,-1.3396,-1.3396,-1.3396,-1.3599,-1.4098,-1.4783,-1.5519,-1.6246,-1.6991,-1.7517,-1.7846,-1.7878,-1.7892,-1.8014,-1.7957,-1.7927,-1.8082,-1.8391,-1.8576,-1.8604,-1.8688,-1.8752,-1.8789,-1.8957,-1.9555,-2.0643,-2.1515,-2.2593,-2.2942,-2.3501,-2.3878,-2.4125,-2.419,-2.4199,-2.4199,-2.4199,-2.4199,-2.4199,-2.4199,-2.4199,-2.4199,-2.4199,-2.4199,-2.4199,-2.4144,-2.3786,-2.3676,-2.3896,-2.3281,-2.1528,-1.9996,-1.9433,-1.9295,-1.9295,-1.9295,-1.9295,-1.9295,-1.9295,-1.9295,-1.9295,-1.9295,-1.3471,-1.4005,-1.5162,-1.503,-1.4137,-1.4269,-1.3898,-1.3254,-1.321,-1.321,-1.321,-1.321,-1.321,-1.3363,-1.4117,-1.4627,-1.4968,-1.5514,-1.5814,-1.5814,-1.5814,-1.5814,-1.5814,-1.5814,-1.5814,-1.5814,-1.5814,-1.5814,-1.5814,-1.5814,-1.5814,-1.5799,-1.5814,-1.5356,-1.4588,-1.4207,-1.3705,-1.2971,-1.2592,-1.2514,-1.2583,-1.2602,-1.2741,-1.2987,-1.3173,-1.3311,-1.3396,-1.3396,-1.3396,-1.3396,-1.3396,-1.3396,-1.3396,-1.3396,-1.3396,-1.3396,-1.3396,-1.3709,-1.4462,-1.5198,-1.5908,-1.6656,-1.7363,-1.7789,-1.7789,-1.7789,-1.7789,-1.7789,-1.7789,-1.7789,-1.7869,-1.8133,-1.833,-1.8371,-1.841,-1.8461,-1.848,-1.8706,-1.9165,-1.99,-2.0962,-2.1789,-2.2162,-2.2811,-2.326,-2.3635,-2.3949,-2.419,-2.4199,-2.4199,-2.4199,-2.4199,-2.4199,-2.4025,-2.3823,-2.3667,-2.3685,-2.3694,-2.3648,-2.3336,-2.3079,-2.3355,-2.2832,-2.1051,-2.0014,-1.951,-1.9295,-1.9295,-1.9295,-1.9295,-1.9295,-1.9295,-1.9295,-1.9295,-1.9295,-1.3763,-1.3966,-1.5078,-1.5024,-1.4217,-1.4677,-1.4262,-1.3373,-1.3254,-1.3261,-1.3223,-1.321,-1.321,-1.3363,-1.4052,-1.4508,-1.469,-1.5359,-1.577,-1.5814,-1.5814,-1.5814,-1.5814,-1.5814,-1.5814,-1.5814,-1.5814,-1.5814,-1.5814,-1.5814,-1.5814,-1.5814,-1.5814,-1.5239,-1.3922,-1.3988,-1.3401,-1.2722,-1.2486,-1.2444,-1.2561,-1.2613,-1.2702,-1.2922,-1.2969,-1.3103,-1.3354,-1.3396,-1.3396,-1.3396,-1.3396,-1.3396,-1.3396,-1.3396,-1.3396,-1.3396,-1.3396,-1.376,-1.4521,-1.5215,-1.5925,-1.6758,-1.7422,-1.7789,-1.7789,-1.7789,-1.7789,-1.7789,-1.7789,-1.7789,-1.7789,-1.7847,-1.7892,-1.7842,-1.807,-1.8179,-1.8249,-1.8439,-1.878,-1.9282,-1.9876,-2.0192,-2.0784,-2.1421,-2.1963,-2.2709,-2.3429,-2.4022,-2.4086,-2.4142,-2.419,-2.4199,-2.4181,-2.4052,-2.3529,-2.3024,-2.3052,-2.3052,-2.2978,-2.2776,-2.2336,-2.2336,-2.1804,-2.0363,-1.9794,-1.9323,-1.9295,-1.9295,-1.9295,-1.9295,-1.9295,-1.9295,-1.9295,-1.9295,-1.9295,-1.3774,-1.3956,-1.509,-1.5213,-1.4642,-1.5181,-1.4814,-1.3877,-1.3827,-1.3578,-1.3254,-1.321,-1.321,-1.3335,-1.3835,-1.4253,-1.4526,-1.5074,-1.5485,-1.5741,-1.5806,-1.5814,-1.5814,-1.5814,-1.5814,-1.5814,-1.5814,-1.5814,-1.5814,-1.5814,-1.5814,-1.5814,-1.5814,-1.5611,-1.5124,-1.4715,-1.4258,-1.4003,-1.352,-1.3145,-1.2794,-1.2755,-1.2677,-1.2467,-1.2443,-1.2654,-1.3086,-1.3303,-1.3396,-1.3396,-1.3396,-1.3396,-1.3396,-1.3396,-1.3396,-1.3396,-1.3396,-1.3997,-1.5079,-1.5494,-1.617,-1.7168,-1.7693,-1.7772,-1.7789,-1.7789,-1.7789,-1.7789,-1.7789,-1.7789,-1.7789,-1.7789,-1.7789,-1.7789,-1.7869,-1.7927,-1.7979,-1.8166,-1.8461,-1.8806,-1.9393,-1.9532,-1.9303,-1.9935,-2.1307,-2.2016,-2.2718,-2.3177,-2.3596,-2.3814,-2.4181,-2.4199,-2.4162,-2.3868,-2.3235,-2.285,-2.2905,-2.2639,-2.24,-2.2217,-2.1776,-2.1198,-2.062,-2.0152,-1.9583,-1.9341,-1.9305,-1.9295,-1.9295,-1.9295,-1.9295,-1.9295,-1.9295,-1.9295,-1.9295,-1.3462,-1.3605,-1.4778,-1.4946,-1.4607,-1.5311,-1.5197,-1.4431,-1.4167,-1.3896,-1.3559,-1.3279,-1.321,-1.3301,-1.3715,-1.4026,-1.4303,-1.4845,-1.5262,-1.5544,-1.5762,-1.5806,-1.5814,-1.5814,-1.5814,-1.5814,-1.5814,-1.5814,-1.5814,-1.5814,-1.5814,-1.5814,-1.5814,-1.5649,-1.5446,-1.5007,-1.4707,-1.4423,-1.3989,-1.3593,-1.3264,-1.3183,-1.2977,-1.265,-1.2584,-1.2664,-1.2883,-1.3112,-1.3303,-1.3388,-1.3396,-1.3396,-1.3396,-1.3396,-1.3396,-1.3447,-1.3735,-1.436,-1.5443,-1.5874,-1.6492,-1.7518,-1.7789,-1.7789,-1.7789,-1.7789,-1.7789,-1.7789,-1.7789,-1.7789,-1.7789,-1.7789,-1.7789,-1.7789,-1.7811,-1.7789,-1.7825,-1.7949,-1.8082,-1.8348,-1.8711,-1.8543,-1.8477,-1.9169,-2.0511,-2.1083,-2.1634,-2.2069,-2.2518,-2.2763,-2.3004,-2.3257,-2.335,-2.3031,-2.2758,-2.2694,-2.2767,-2.2345,-2.1859,-2.1602,-2.1253,-2.0556,-1.9923,-1.9748,-1.9323,-1.9314,-1.9295,-1.9295,-1.9295,-1.9295,-1.9295,-1.9295,-1.9295,-1.9295,-1.9295,-1.2929,-1.3065,-1.4201,-1.4457,-1.4207,-1.5259,-1.5417,-1.4859,-1.44,-1.4091,-1.3877,-1.3414,-1.321,-1.3295,-1.3615,-1.3828,-1.4026,-1.4665,-1.5074,-1.5255,-1.5544,-1.5814,-1.5814,-1.5814,-1.5814,-1.5814,-1.5814,-1.5814,-1.5814,-1.5814,-1.5814,-1.5814,-1.5791,-1.5529,-1.5154,-1.4879,-1.4655,-1.4274,-1.4072,-1.4019,-1.3877,-1.3862,-1.3639,-1.3259,-1.319,-1.3058,-1.2816,-1.3051,-1.3248,-1.3371,-1.3396,-1.3396,-1.3396,-1.3396,-1.3405,-1.3642,-1.4208,-1.4842,-1.5595,-1.6258,-1.6931,-1.7653,-1.7789,-1.7789,-1.7789,-1.7789,-1.7789,-1.7789,-1.7789,-1.7789,-1.7789,-1.7789,-1.7789,-1.7789,-1.7789,-1.7789,-1.7789,-1.7811,-1.7869,-1.7847,-1.7811,-1.7803,-1.7828,-1.8745,-1.923,-1.9695,-2.0375,-2.0847,-2.1059,-2.1256,-2.1205,-2.1614,-2.223,-2.2382,-2.2163,-2.2253,-2.2308,-2.207,-2.1519,-2.1106,-2.0794,-2.0115,-1.9599,-1.9396,-1.9295,-1.9295,-1.9295,-1.9295,-1.9295,-1.9295,-1.9295,-1.9295,-1.9295,-1.9295,-1.9295,-1.2886,-1.3022,-1.4201,-1.4631,-1.4654,-1.577,-1.5743,-1.496,-1.4765,-1.423,-1.3584,-1.3279,-1.321,-1.3239,-1.3329,-1.3554,-1.3941,-1.4413,-1.4852,-1.5165,-1.5573,-1.5777,-1.5814,-1.5814,-1.5814,-1.5814,-1.5814,-1.5814,-1.5814,-1.5814,-1.5814,-1.5814,-1.5806,-1.5731,-1.5559,-1.5514,-1.5469,-1.5311,-1.5246,-1.4982,-1.4573,-1.4528,-1.4232,-1.369,-1.3664,-1.3451,-1.314,-1.3537,-1.3637,-1.3422,-1.3396,-1.3396,-1.3405,-1.3447,-1.3896,-1.4734,-1.4724,-1.5105,-1.612,-1.6597,-1.7071,-1.7679,-1.7789,-1.7789,-1.7789,-1.7789,-1.7789,-1.7789,-1.7789,-1.7789,-1.7789,-1.7789,-1.7789,-1.7789,-1.7789,-1.7789,-1.7789,-1.7789,-1.7789,-1.7789,-1.7789,-1.7789,-1.7893,-1.8065,-1.8492,-1.8956,-1.9402,-1.9817,-1.9882,-2.0315,-2.0504,-2.077,-2.124,-2.1525,-2.167,-2.1786,-2.1795,-2.1694,-2.1244,-2.0693,-2.0354,-1.9895,-1.9519,-1.9295,-1.9295,-1.9295,-1.9295,-1.9295,-1.9295,-1.9295,-1.9295,-1.9295,-1.9295,-1.9295,-1.9295,-1.2886,-1.2978,-1.3925,-1.4474,-1.4795,-1.5694,-1.5792,-1.5279,-1.4979,-1.4431,-1.3659,-1.3273,-1.321,-1.321,-1.3204,-1.3335,-1.3642,-1.4058,-1.4374,-1.4672,-1.5195,-1.558,-1.5741,-1.5814,-1.5814,-1.5814,-1.5814,-1.5814,-1.5814,-1.5814,-1.5814,-1.5814,-1.5814,-1.5814,-1.5784,-1.5814,-1.5814,-1.5791,-1.5806,-1.5589,-1.5259,-1.5229,-1.4869,-1.4363,-1.4206,-1.4026,-1.3752,-1.4095,-1.4266,-1.4122,-1.406,-1.3862,-1.3481,-1.3828,-1.4504,-1.5519,-1.5451,-1.584,-1.6529,-1.6961,-1.7346,-1.7687,-1.7789,-1.7789,-1.7789,-1.7789,-1.7789,-1.7789,-1.7789,-1.7789,-1.7789,-1.7789,-1.7789,-1.7789,-1.7789,-1.7789,-1.7789,-1.7789,-1.7789,-1.7789,-1.7789,-1.7789,-1.7789,-1.7789,-1.7991,-1.8316,-1.852,-1.868,-1.8776,-1.9382,-1.9864,-2.0027,-2.0224,-2.0508,-2.0724,-2.0846,-2.0792,-2.0727,-2.061,-2.0098,-1.9913,-1.9591,-1.9473,-1.9295,-1.9295,-1.9295,-1.9295,-1.9295,-1.9295,-1.9295,-1.9295,-1.9295,-1.9295,-1.9295,-1.9295,-1.2886,-1.2929,-1.3552,-1.4097,-1.4652,-1.5303,-1.5538,-1.538,-1.5059,-1.4525,-1.3921,-1.3421,-1.3217,-1.321,-1.321,-1.3245,-1.3267,-1.3735,-1.396,-1.4317,-1.4821,-1.5322,-1.5639,-1.577,-1.5806,-1.5814,-1.5814,-1.5814,-1.5814,-1.5814,-1.5814,-1.5814,-1.5814,-1.5814,-1.5814,-1.5814,-1.5814,-1.5814,-1.5814,-1.5784,-1.5694,-1.5671,-1.5409,-1.5019,-1.4707,-1.4694,-1.4571,-1.4734,-1.4956,-1.5334,-1.5028,-1.4389,-1.3801,-1.458,-1.5316,-1.584,-1.6351,-1.6606,-1.691,-1.743,-1.7729,-1.7789,-1.7789,-1.7789,-1.7789,-1.7789,-1.7789,-1.7789,-1.7789,-1.7789,-1.7789,-1.7789,-1.7789,-1.7789,-1.7789,-1.7789,-1.7789,-1.7789,-1.7789,-1.7789,-1.7789,-1.7789,-1.7789,-1.7789,-1.7814,-1.8,-1.8116,-1.8144,-1.8172,-1.8449,-1.8803,-1.8985,-1.9232,-1.9513,-1.9704,-1.9862,-1.9722,-1.9606,-1.9582,-1.9364,-1.9406,-1.9248,-1.9304,-1.9295,-1.9295,-1.9295,-1.9295,-1.9295,-1.9295,-1.9295,-1.9295,-1.9295,-1.9295,-1.9295,-1.9295,-1.2886,-1.2925,-1.3547,-1.3862,-1.4133,-1.5123,-1.5101,-1.444,-1.472,-1.4299,-1.3552,-1.3254,-1.321,-1.321,-1.321,-1.321,-1.3273,-1.3648,-1.4052,-1.4445,-1.4852,-1.5134,-1.5359,-1.5573,-1.577,-1.5806,-1.5814,-1.5814,-1.5814,-1.5814,-1.5814,-1.5814,-1.5814,-1.5814,-1.5814,-1.5814,-1.5814,-1.5814,-1.5814,-1.5814,-1.5814,-1.5814,-1.5731,-1.5506,-1.5109,-1.5228,-1.5681,-1.5653,-1.5974,-1.62,-1.5408,-1.4701,-1.5163,-1.5671,-1.6339,-1.6881,-1.6851,-1.6957,-1.7456,-1.7653,-1.7789,-1.7789,-1.7789,-1.7789,-1.7789,-1.7789,-1.7789,-1.7789,-1.7789,-1.7789,-1.7789,-1.7789,-1.7789,-1.7789,-1.7789,-1.7789,-1.7789,-1.7789,-1.7789,-1.7789,-1.7789,-1.7789,-1.7789,-1.7789,-1.7789,-1.7789,-1.7789,-1.7789,-1.7789,-1.7789,-1.8091,-1.845,-1.8594,-1.8948,-1.9183,-1.9289,-1.9164,-1.9038,-1.8949,-1.8895,-1.893,-1.9082,-1.918,-1.9259,-1.9295,-1.9295,-1.9295,-1.9295,-1.9295,-1.9295,-1.9295,-1.9295,-1.9295,-1.9295,-1.9295,-1.2886,-1.2905,-1.3012,-1.3233,-1.3498,-1.3944,-1.395,-1.3753,-1.398,-1.3797,-1.3307,-1.321,-1.321,-1.321,-1.321,-1.321,-1.3239,-1.3459,-1.3808,-1.4163,-1.4463,-1.4721,-1.5104,-1.5352,-1.5544,-1.5748,-1.5814,-1.5814,-1.5814,-1.5814,-1.5814,-1.5814,-1.5814,-1.5814,-1.5814,-1.5814,-1.5814,-1.5814,-1.5814,-1.5814,-1.5814,-1.5814,-1.5814,-1.5841,-1.5601,-1.5767,-1.5965,-1.6051,-1.6311,-1.6414,-1.5847,-1.5645,-1.6441,-1.6847,-1.7287,-1.7574,-1.7498,-1.7354,-1.7726,-1.7789,-1.7789,-1.7789,-1.7789,-1.7789,-1.7789,-1.7789,-1.7789,-1.7789,-1.7789,-1.7789,-1.7789,-1.7789,-1.7789,-1.7789,-1.7789,-1.7789,-1.7789,-1.7789,-1.7789,-1.7789,-1.7789,-1.7789,-1.7789,-1.7789,-1.7789,-1.7789,-1.7789,-1.7789,-1.7789,-1.7833,-1.7992,-1.8237,-1.8237,-1.8432,-1.8694,-1.8806,-1.8769,-1.8724,-1.8725,-1.8707,-1.8725,-1.8913,-1.9143,-1.9173,-1.9212,-1.928,-1.9295,-1.9295,-1.9295,-1.9295,-1.9295,-1.9295,-1.9295,-1.9295,-1.9295,-1.2886,-1.2842,-1.2407,-1.2483,-1.2884,-1.2711,-1.2838,-1.3144,-1.3281,-1.3344,-1.3204,-1.321,-1.321,-1.321,-1.321,-1.321,-1.3204,-1.3232,-1.3493,-1.3782,-1.396,-1.4367,-1.4845,-1.5097,-1.5381,-1.5777,-1.5814,-1.5814,-1.5814,-1.5814,-1.5814,-1.5814,-1.5814,-1.5814,-1.5814,-1.5814,-1.5814,-1.5814,-1.5814,-1.5814,-1.5814,-1.5814,-1.5814,-1.5841,-1.5945,-1.6004,-1.6032,-1.6149,-1.6343,-1.6382,-1.6435,-1.6894,-1.74,-1.7689,-1.7766,-1.7772,-1.7726,-1.7721,-1.7746,-1.7789,-1.7789,-1.7789,-1.7789,-1.7789,-1.7789,-1.7789,-1.7789,-1.7789,-1.7789,-1.7789,-1.7789,-1.7789,-1.7789,-1.7789,-1.7789,-1.7789,-1.7789,-1.7789,-1.7789,-1.7789,-1.7789,-1.7789,-1.7789,-1.7789,-1.7789,-1.7789,-1.7789,-1.7789,-1.7789,-1.7833,-1.8001,-1.8078,-1.8091,-1.8048,-1.829,-1.8399,-1.8342,-1.8402,-1.8441,-1.85,-1.8538,-1.8825,-1.9034,-1.9093,-1.9124,-1.9227,-1.9295,-1.9295,-1.9295,-1.9295,-1.9295,-1.9295,-1.9295,-1.9295,-1.9295,-1.2886,-1.2847,-1.2412,-1.2268,-1.2357,-1.242,-1.2449,-1.2619,-1.3001,-1.3253,-1.3166,-1.321,-1.317,-1.321,-1.321,-1.321,-1.321,-1.3245,-1.3273,-1.3431,-1.3675,-1.4149,-1.4557,-1.4845,-1.5255,-1.5683,-1.5748,-1.5719,-1.5814,-1.5814,-1.5814,-1.5814,-1.5814,-1.5814,-1.5814,-1.5814,-1.5814,-1.5814,-1.5814,-1.5814,-1.5814,-1.5814,-1.5814,-1.5806,-1.5913,-1.5983,-1.6171,-1.6246,-1.6429,-1.6693,-1.6722,-1.6799,-1.696,-1.7134,-1.7384,-1.7643,-1.7689,-1.7658,-1.7735,-1.7766,-1.7789,-1.7789,-1.7789,-1.7789,-1.7789,-1.7789,-1.7789,-1.7789,-1.7789,-1.7789,-1.7789,-1.7789,-1.7789,-1.7789,-1.7789,-1.7789,-1.7789,-1.7789,-1.7789,-1.7789,-1.7789,-1.7789,-1.7789,-1.7789,-1.7789,-1.7789,-1.7789,-1.7789,-1.7789,-1.7833,-1.7922,-1.7971,-1.7962,-1.7897,-1.7897,-1.7949,-1.7971,-1.807,-1.8146,-1.8302,-1.8441,-1.8762,-1.8931,-1.9009,-1.9134,-1.9249,-1.9295,-1.9295,-1.9295,-1.9295,-1.9295,-1.9295,-1.9295,-1.9295,-1.9295,-1.2744,-1.2495,-1.2065,-1.1748,-1.1533,-1.1407,-1.149,-1.1719,-1.1997,-1.2253,-1.249,-1.2726,-1.2832,-1.2908,-1.3129,-1.3204,-1.321,-1.321,-1.321,-1.3273,-1.3452,-1.3769,-1.4149,-1.4399,-1.4728,-1.5013,-1.5134,-1.5426,-1.5762,-1.5814,-1.5806,-1.5814,-1.5814,-1.5814,-1.5814,-1.5814,-1.5814,-1.5814,-1.5814,-1.5814,-1.5814,-1.5814,-1.5814,-1.5814,-1.5814,-1.5877,-1.5983,-1.6032,-1.6088,-1.6219,-1.6266,-1.6274,-1.6367,-1.6565,-1.6876,-1.7216,-1.7313,-1.7384,-1.7511,-1.7557,-1.7595,-1.7766,-1.7789,-1.7789,-1.7789,-1.7789,-1.7789,-1.7789,-1.7789,-1.7789,-1.7789,-1.7789,-1.7789,-1.7789,-1.7789,-1.7789,-1.7789,-1.7789,-1.7789,-1.7789,-1.7789,-1.7789,-1.7789,-1.7789,-1.7789,-1.7789,-1.7789,-1.7789,-1.7789,-1.7833,-1.7878,-1.7869,-1.7883,-1.7861,-1.7803,-1.778,-1.7856,-1.7914,-1.8048,-1.8199,-1.8393,-1.8753,-1.8922,-1.9019,-1.9143,-1.928,-1.9295,-1.9295,-1.9295,-1.9295,-1.9295,-1.9295,-1.9295,-1.9295,-1.9295,-1.2622,-1.2146,-1.1748,-1.1357,-1.0991,-1.0493,-1.0658,-1.1047,-1.1077,-1.1447,-1.1957,-1.233,-1.2579,-1.2726,-1.3019,-1.321,-1.321,-1.321,-1.321,-1.321,-1.3232,-1.3452,-1.3769,-1.3934,-1.4195,-1.4596,-1.462,-1.4907,-1.5455,-1.5617,-1.5704,-1.5777,-1.5814,-1.5814,-1.5814,-1.5814,-1.5814,-1.5814,-1.5814,-1.5814,-1.5814,-1.5814,-1.5814,-1.5814,-1.5814,-1.5806,-1.5827,-1.5827,-1.5835,-1.5863,-1.5863,-1.5835,-1.5848,-1.6052,-1.632,-1.6562,-1.672,-1.6985,-1.7224,-1.732,-1.7494,-1.7749,-1.7789,-1.7789,-1.7789,-1.7789,-1.7789,-1.7789,-1.7789,-1.7789,-1.7789,-1.7789,-1.7789,-1.7789,-1.7789,-1.7789,-1.7789,-1.7789,-1.7789,-1.7789,-1.7789,-1.7789,-1.7789,-1.7789,-1.7789,-1.7789,-1.7789,-1.7789,-1.7789,-1.7789,-1.7811,-1.7811,-1.7811,-1.7811,-1.7789,-1.7789,-1.7869,-1.8001,-1.8196,-1.8391,-1.8576,-1.8825,-1.8931,-1.9069,-1.9166,-1.9295,-1.9295,-1.928,-1.9295,-1.9295,-1.9295,-1.9295,-1.9295,-1.9295,-1.9295,-1.2622,-1.2146,-1.1743,-1.1572,-1.1366,-1.0641,-1.0799,-1.1438,-1.1089,-1.1579,-1.221,-1.2467,-1.2685,-1.3053,-1.3129,-1.321,-1.321,-1.321,-1.321,-1.321,-1.3245,-1.3431,-1.3802,-1.3894,-1.4026,-1.4278,-1.4367,-1.4759,-1.5142,-1.5225,-1.5448,-1.5712,-1.5814,-1.5814,-1.5814,-1.5814,-1.5814,-1.5814,-1.5814,-1.5814,-1.5814,-1.5814,-1.5814,-1.5814,-1.5814,-1.5814,-1.5814,-1.5814,-1.5814,-1.5814,-1.5814,-1.5814,-1.5806,-1.5827,-1.5856,-1.6095,-1.6429,-1.6942,-1.7167,-1.724,-1.7368,-1.765,-1.7758,-1.7789,-1.7789,-1.7789,-1.7789,-1.7789,-1.7789,-1.7789,-1.7789,-1.7789,-1.7789,-1.7789,-1.7789,-1.7789,-1.7789,-1.7789,-1.7789,-1.7789,-1.7789,-1.7789,-1.7789,-1.7789,-1.7789,-1.7789,-1.7789,-1.7789,-1.7789,-1.7789,-1.7789,-1.7789,-1.7789,-1.7789,-1.7789,-1.7789,-1.7869,-1.8023,-1.8258,-1.8489,-1.8614,-1.8753,-1.9031,-1.9155,-1.9225,-1.9234,-1.9227,-1.9243,-1.9265,-1.9295,-1.9295,-1.9295,-1.9295,-1.9295,-1.9295,-1.2476,-1.1881,-1.1685,-1.1312,-1.0856,-1.0459,-1.0532,-1.0799,-1.0707,-1.0976,-1.1616,-1.1993,-1.2502,-1.3094,-1.321,-1.321,-1.321,-1.321,-1.321,-1.321,-1.3245,-1.3335,-1.3452,-1.3514,-1.3642,-1.3775,-1.3828,-1.4117,-1.4557,-1.5036,-1.5359,-1.5733,-1.5814,-1.5814,-1.5814,-1.5814,-1.5814,-1.5814,-1.5814,-1.5814,-1.5814,-1.5814,-1.5814,-1.5814,-1.5814,-1.5814,-1.5814,-1.5814,-1.5814,-1.5814,-1.5814,-1.5814,-1.5814,-1.5806,-1.5806,-1.5827,-1.6039,-1.6375,-1.667,-1.6893,-1.7167,-1.7471,-1.765,-1.7789,-1.7789,-1.7789,-1.7789,-1.7789,-1.7789,-1.7789,-1.7789,-1.7789,-1.7789,-1.7789,-1.7789,-1.7789,-1.7789,-1.7789,-1.7789,-1.7789,-1.7789,-1.7789,-1.7789,-1.7789,-1.7789,-1.7789,-1.7789,-1.7789,-1.7789,-1.7789,-1.7789,-1.7789,-1.7789,-1.7789,-1.7789,-1.7789,-1.7811,-1.7957,-1.8133,-1.8342,-1.8463,-1.8662,-1.8912,-1.8989,-1.8929,-1.8981,-1.9099,-1.9196,-1.9249,-1.9265,-1.9295,-1.9295,-1.9295,-1.9295,-1.9295,-1.227,-1.1611,-1.1601,-1.116,-1.0439,-1.0327,-1.0356,-1.0444,-1.0371,-1.0654,-1.1282,-1.1915,-1.2615,-1.3053,-1.321,-1.321,-1.321,-1.321,-1.321,-1.321,-1.321,-1.321,-1.3273,-1.3232,-1.3232,-1.321,-1.3335,-1.3709,-1.4214,-1.4658,-1.5036,-1.5733,-1.5814,-1.5814,-1.5814,-1.5814,-1.5814,-1.5814,-1.5814,-1.5814,-1.5814,-1.5814,-1.5814,-1.5814,-1.5814,-1.5814,-1.5814,-1.5814,-1.5814,-1.5814,-1.5814,-1.5814,-1.5814,-1.5814,-1.5814,-1.5806,-1.5913,-1.5983,-1.6238,-1.6501,-1.6825,-1.7126,-1.7352,-1.7487,-1.7612,-1.7689,-1.7689,-1.7589,-1.7749,-1.7758,-1.7789,-1.7789,-1.7789,-1.7789,-1.7789,-1.7789,-1.7789,-1.7789,-1.7789,-1.7789,-1.7789,-1.7789,-1.7789,-1.7789,-1.7789,-1.7789,-1.7789,-1.7789,-1.7789,-1.7789,-1.7789,-1.7789,-1.7789,-1.7789,-1.7789,-1.7789,-1.7811,-1.7892,-1.807,-1.8249,-1.8413,-1.854,-1.8726,-1.8726,-1.8671,-1.8771,-1.8922,-1.9082,-1.9234,-1.9265,-1.9295,-1.9295,-1.9295,-1.9295,-1.9295,-1.1997,-1.1601,-1.1601,-1.1312,-1.0791,-1.0449,-1.0498,-1.0718,-1.0415,-1.0855,-1.1732,-1.2573,-1.2978,-1.3204,-1.321,-1.321,-1.321,-1.321,-1.321,-1.321,-1.321,-1.321,-1.321,-1.321,-1.321,-1.321,-1.3204,-1.3486,-1.3861,-1.4117,-1.4783,-1.561,-1.5654,-1.5748,-1.5814,-1.5814,-1.5814,-1.5814,-1.5814,-1.5814,-1.5814,-1.5814,-1.5814,-1.5814,-1.5814,-1.5814,-1.5814,-1.5814,-1.5814,-1.5814,-1.5814,-1.5814,-1.5814,-1.5814,-1.5814,-1.5814,-1.5814,-1.5856,-1.5991,-1.6226,-1.6501,-1.6738,-1.6909,-1.7085,-1.7207,-1.7589,-1.7566,-1.7304,-1.7549,-1.7726,-1.7758,-1.7789,-1.7789,-1.7789,-1.7789,-1.7789,-1.7789,-1.7789,-1.7789,-1.7789,-1.7789,-1.7789,-1.7789,-1.7789,-1.7789,-1.7789,-1.7789,-1.7789,-1.7789,-1.7789,-1.7789,-1.7789,-1.7789,-1.7789,-1.7789,-1.7811,-1.7825,-1.7892,-1.8027,-1.8229,-1.843,-1.8519,-1.8452,-1.851,-1.8463,-1.8604,-1.877,-1.8983,-1.915,-1.9243,-1.9295,-1.9295,-1.9295,-1.9295,-1.9295,-1.1963,-1.1587,-1.127,-1.0913,-1.0513,-1.0352,-1.0371,-1.0483,-1.0391,-1.0883,-1.1811,-1.2467,-1.2937,-1.3129,-1.321,-1.321,-1.321,-1.321,-1.321,-1.321,-1.321,-1.321,-1.321,-1.321,-1.321,-1.321,-1.3232,-1.3452,-1.3875,-1.3835,-1.4476,-1.5111,-1.5329,-1.5588,-1.5683,-1.5814,-1.5814,-1.5814,-1.5814,-1.5814,-1.5814,-1.5814,-1.5814,-1.5814,-1.5814,-1.5814,-1.5814,-1.5814,-1.5814,-1.5814,-1.5814,-1.5814,-1.5814,-1.5814,-1.5814,-1.5814,-1.5814,-1.5814,-1.5863,-1.6123,-1.6455,-1.6712,-1.6815,-1.6815,-1.6858,-1.7093,-1.7109,-1.7126,-1.74,-1.765,-1.7517,-1.7658,-1.7789,-1.7789,-1.7789,-1.7789,-1.7789,-1.7789,-1.7789,-1.7789,-1.7789,-1.7789,-1.7789,-1.7789,-1.7789,-1.7789,-1.7789,-1.7789,-1.7789,-1.7789,-1.7789,-1.7789,-1.7789,-1.7789,-1.7789,-1.7833,-1.7847,-1.7905,-1.7992,-1.8112,-1.8208,-1.8091,-1.8061,-1.8137,-1.8362,-1.8585,-1.877,-1.894,-1.9086,-1.9236,-1.928,-1.9295,-1.9295,-1.9295,-1.9295,-1.165,-1.1323,-1.0903,-1.0552,-1.0298,-1.0322,-1.0322,-1.0322,-1.0327,-1.0731,-1.1621,-1.2174,-1.265,-1.2943,-1.317,-1.321,-1.321,-1.321,-1.321,-1.321,-1.321,-1.321,-1.321,-1.321,-1.321,-1.321,-1.3232,-1.3425,-1.3655,-1.3675,-1.4091,-1.4508,-1.4783,-1.5074,-1.5719,-1.5814,-1.5814,-1.5814,-1.5814,-1.5814,-1.5814,-1.5814,-1.5814,-1.5814,-1.5814,-1.5814,-1.5814,-1.5814,-1.5814,-1.5814,-1.5814,-1.5814,-1.5814,-1.5814,-1.5814,-1.5814,-1.5814,-1.5814,-1.5892,-1.6019,-1.6274,-1.6375,-1.6421,-1.6463,-1.6517,-1.6509,-1.6466,-1.6512,-1.7052,-1.7455,-1.7264,-1.7581,-1.7766,-1.7789,-1.7789,-1.7789,-1.7789,-1.7789,-1.7789,-1.7789,-1.7789,-1.7789,-1.7789,-1.7789,-1.7789,-1.7789,-1.7789,-1.7789,-1.7789,-1.7789,-1.7789,-1.7789,-1.7789,-1.7789,-1.7789,-1.7811,-1.7833,-1.7825,-1.7869,-1.7847,-1.7892,-1.7789,-1.7811,-1.7962,-1.822,-1.8557,-1.8762,-1.8896,-1.9076,-1.9277,-1.9289,-1.9295,-1.9295,-1.9295,-1.9295,-1.0962,-1.0864,-1.0483,-1.0342,-1.0322,-1.0322,-1.0322,-1.0322,-1.0322,-1.0616,-1.1276,-1.2054,-1.2544,-1.272,-1.3094,-1.3204,-1.321,-1.321,-1.321,-1.321,-1.321,-1.321,-1.321,-1.321,-1.321,-1.321,-1.3204,-1.3239,-1.3307,-1.3335,-1.3621,-1.3967,-1.4278,-1.4652,-1.5683,-1.5799,-1.5806,-1.5785,-1.5777,-1.5814,-1.5814,-1.5814,-1.5814,-1.5814,-1.5814,-1.5814,-1.5814,-1.5814,-1.5814,-1.5814,-1.5814,-1.5814,-1.5814,-1.5814,-1.5814,-1.5814,-1.5814,-1.5814,-1.5814,-1.5835,-1.5906,-1.5955,-1.6067,-1.6019,-1.5921,-1.5885,-1.6004,-1.6219,-1.6633,-1.7035,-1.728,-1.7572,-1.7712,-1.7789,-1.7789,-1.7789,-1.7789,-1.7789,-1.7789,-1.7789,-1.7789,-1.7789,-1.7789,-1.7789,-1.7789,-1.7789,-1.7789,-1.7789,-1.7789,-1.7789,-1.7789,-1.7789,-1.7789,-1.7789,-1.7789,-1.7789,-1.7789,-1.7789,-1.7789,-1.7789,-1.7789,-1.7789,-1.7833,-1.7892,-1.8211,-1.8634,-1.8762,-1.8843,-1.9075,-1.9292,-1.9289,-1.9295,-1.9295,-1.9295,-1.9295,-1.0903,-1.0869,-1.0454,-1.0322,-1.0322,-1.0322,-1.0322,-1.0322,-1.0356,-1.0725,-1.1431,-1.1962,-1.2437,-1.2838,-1.3053,-1.3163,-1.317,-1.321,-1.321,-1.321,-1.321,-1.321,-1.321,-1.321,-1.321,-1.321,-1.321,-1.321,-1.3245,-1.321,-1.3493,-1.3835,-1.4052,-1.4494,-1.4907,-1.5127,-1.5322,-1.5389,-1.558,-1.5814,-1.5814,-1.5814,-1.5814,-1.5814,-1.5814,-1.5814,-1.5814,-1.5814,-1.5814,-1.5814,-1.5814,-1.5814,-1.5814,-1.5814,-1.5814,-1.5814,-1.5814,-1.5814,-1.5814,-1.5814,-1.5814,-1.5814,-1.5814,-1.5814,-1.5814,-1.5814,-1.5913,-1.6151,-1.6509,-1.6934,-1.7272,-1.7595,-1.7758,-1.7789,-1.7789,-1.7789,-1.7789,-1.7789,-1.7789,-1.7789,-1.7789,-1.7789,-1.7789,-1.7789,-1.7789,-1.7789,-1.7789,-1.7789,-1.7789,-1.7789,-1.7789,-1.7789,-1.7789,-1.7789,-1.7789,-1.7789,-1.7789,-1.7789,-1.7789,-1.7789,-1.7789,-1.7789,-1.7971,-1.8091,-1.8415,-1.8717,-1.8877,-1.9025,-1.9157,-1.9283,-1.9289,-1.9295,-1.9295,-1.9295,-1.9295,-1.0693,-1.0659,-1.04,-1.0322,-1.0322,-1.0322,-1.0322,-1.0322,-1.0322,-1.0692,-1.118,-1.1436,-1.1805,-1.2312,-1.2603,-1.2861,-1.2908,-1.2943,-1.317,-1.317,-1.321,-1.321,-1.321,-1.321,-1.321,-1.321,-1.321,-1.321,-1.321,-1.321,-1.3363,-1.3608,-1.3927,-1.3967,-1.4253,-1.462,-1.5262,-1.5418,-1.5704,-1.5814,-1.5814,-1.5814,-1.5814,-1.5814,-1.5814,-1.5814,-1.5814,-1.5814,-1.5814,-1.5814,-1.5814,-1.5814,-1.5814,-1.5814,-1.5814,-1.5814,-1.5814,-1.5814,-1.5814,-1.5814,-1.5814,-1.5814,-1.5814,-1.5814,-1.5814,-1.5814,-1.5913,-1.6143,-1.6528,-1.6755,-1.7019,-1.7352,-1.7595,-1.7604,-1.7704,-1.7681,-1.7735,-1.7735,-1.7758,-1.7758,-1.7789,-1.7789,-1.7789,-1.7789,-1.7789,-1.7789,-1.7789,-1.7789,-1.7789,-1.7789,-1.7789,-1.7789,-1.7789,-1.7789,-1.7789,-1.7789,-1.7789,-1.7789,-1.7789,-1.7789,-1.7789,-1.7811,-1.8048,-1.8249,-1.8395,-1.8607,-1.8998,-1.9214,-1.9261,-1.9283,-1.928,-1.9295,-1.9295,-1.9295,-1.9295,-1.0327,-1.0322,-1.0322,-1.0322,-1.0322,-1.0322,-1.0322,-1.0322,-1.0322,-1.0366,-1.0428,-1.0943,-1.1276,-1.1271,-1.1684,-1.2174,-1.2579,-1.2609,-1.2867,-1.3094,-1.321,-1.321,-1.321,-1.321,-1.321,-1.321,-1.321,-1.321,-1.321,-1.321,-1.3232,-1.3267,-1.3397,-1.3493,-1.3835,-1.4374,-1.5013,-1.5202,-1.5514,-1.561,-1.5646,-1.577,-1.5806,-1.5814,-1.5814,-1.5814,-1.5814,-1.5814,-1.5814,-1.5814,-1.5814,-1.5814,-1.5814,-1.5814,-1.5814,-1.5814,-1.5814,-1.5814,-1.5814,-1.5814,-1.5814,-1.5814,-1.5814,-1.5814,-1.5814,-1.5814,-1.5906,-1.6032,-1.6348,-1.6402,-1.6546,-1.6918,-1.7264,-1.7368,-1.7502,-1.7581,-1.7635,-1.7681,-1.7704,-1.7735,-1.7789,-1.7789,-1.7789,-1.7789,-1.7789,-1.7789,-1.7789,-1.7789,-1.7789,-1.7789,-1.7789,-1.7789,-1.7789,-1.7789,-1.7789,-1.7789,-1.7789,-1.7789,-1.7789,-1.7789,-1.7789,-1.7811,-1.7971,-1.8116,-1.8214,-1.8484,-1.8948,-1.9166,-1.9252,-1.9274,-1.928,-1.9295,-1.9295,-1.9295,-1.9295,-1.0322,-1.0322,-1.0322,-1.0322,-1.0322,-1.0322,-1.0322,-1.0322,-1.0322,-1.0462,-1.0797,-1.0938,-1.1089,-1.1584,-1.2071,-1.2288,-1.2544,-1.2797,-1.3019,-1.3129,-1.306,-1.317,-1.3176,-1.3135,-1.321,-1.3198,-1.3198,-1.321,-1.321,-1.321,-1.321,-1.321,-1.321,-1.3363,-1.3642,-1.4052,-1.4317,-1.4634,-1.5036,-1.5255,-1.5418,-1.558,-1.5683,-1.5741,-1.5806,-1.5806,-1.5814,-1.5814,-1.5814,-1.5814,-1.5814,-1.5814,-1.5814,-1.5814,-1.5814,-1.5814,-1.5814,-1.5814,-1.5814,-1.5814,-1.5814,-1.5814,-1.5814,-1.5814,-1.5814,-1.5835,-1.5877,-1.6039,-1.6116,-1.6163,-1.6375,-1.6696,-1.6918,-1.7002,-1.715,-1.7256,-1.7337,-1.7471,-1.7517,-1.7658,-1.7712,-1.7789,-1.7789,-1.7789,-1.7789,-1.7789,-1.7789,-1.7789,-1.7789,-1.7789,-1.7789,-1.7789,-1.7789,-1.7789,-1.7789,-1.7789,-1.7789,-1.7789,-1.7789,-1.7789,-1.7789,-1.7825,-1.7914,-1.8048,-1.8191,-1.851,-1.8922,-1.906,-1.9092,-1.9252,-1.9289,-1.928,-1.9295,-1.9295,-1.9295,-1.0322,-1.0322,-1.0322,-1.0322,-1.0322,-1.0322,-1.0322,-1.0322,-1.0322,-1.0472,-1.0677,-1.072,-1.0905,-1.1142,-1.1399,-1.1653,-1.1872,-1.2018,-1.2276,-1.2544,-1.2691,-1.2585,-1.2656,-1.2844,-1.2867,-1.2972,-1.3088,-1.321,-1.321,-1.321,-1.321,-1.321,-1.321,-1.3363,-1.3547,-1.3608,-1.3621,-1.3967,-1.4335,-1.4721,-1.5043,-1.5299,-1.5448,-1.5602,-1.5668,-1.5806,-1.5814,-1.5814,-1.5814,-1.5814,-1.5814,-1.5814,-1.5814,-1.5814,-1.5814,-1.5814,-1.5814,-1.5814,-1.5814,-1.5814,-1.5814,-1.5814,-1.5814,-1.5814,-1.5814,-1.5814,-1.5906,-1.5983,-1.5926,-1.5955,-1.6238,-1.6501,-1.6554,-1.6607,-1.6738,-1.6892,-1.7027,-1.7207,-1.7368,-1.7526,-1.7658,-1.7758,-1.7789,-1.7789,-1.7789,-1.7789,-1.7789,-1.7789,-1.7789,-1.7789,-1.7789,-1.7789,-1.7789,-1.7789,-1.7789,-1.7789,-1.7789,-1.7789,-1.7789,-1.7789,-1.7789,-1.7811,-1.7847,-1.8035,-1.8237,-1.8498,-1.8688,-1.8807,-1.8869,-1.9049,-1.9205,-1.9221,-1.9243,-1.9295,-1.9295,-1.0322,-1.0322,-1.0322,-1.0322,-1.0322,-1.0322,-1.0322,-1.0322,-1.0322,-1.0322,-1.0317,-1.0322,-1.0395,-1.0582,-1.0725,-1.0943,-1.1244,-1.1462,-1.1805,-1.1816,-1.1993,-1.2029,-1.2138,-1.2252,-1.2579,-1.272,-1.2908,-1.321,-1.321,-1.321,-1.321,-1.321,-1.321,-1.3267,-1.3301,-1.3335,-1.3369,-1.3486,-1.3894,-1.4335,-1.4652,-1.4907,-1.5165,-1.5285,-1.5551,-1.5814,-1.5814,-1.5814,-1.5814,-1.5814,-1.5814,-1.5814,-1.5814,-1.5814,-1.5814,-1.5814,-1.5814,-1.5814,-1.5814,-1.5814,-1.5814,-1.5814,-1.5814,-1.5814,-1.5814,-1.5814,-1.5885,-1.5885,-1.5856,-1.5827,-1.6067,-1.6191,-1.6246,-1.6348,-1.6482,-1.6633,-1.6791,-1.706,-1.7392,-1.7581,-1.7712,-1.7789,-1.7789,-1.7789,-1.7789,-1.7789,-1.7789,-1.7789,-1.7789,-1.7789,-1.7789,-1.7789,-1.7789,-1.7789,-1.7789,-1.7789,-1.7789,-1.7789,-1.7789,-1.7789,-1.7789,-1.7789,-1.7789,-1.7936,-1.8078,-1.8154,-1.831,-1.8469,-1.8669,-1.8869,-1.9008,-1.9084,-1.9157,-1.9259,-1.9295,-1.0322,-1.0322,-1.0322,-1.0322,-1.0322,-1.0322,-1.0322,-1.0322,-1.0322,-1.0322,-1.0322,-1.0322,-1.0322,-1.0322,-1.0616,-1.0829,-1.0943,-1.1175,-1.1621,-1.1664,-1.17,-1.159,-1.1847,-1.2066,-1.2395,-1.2644,-1.2902,-1.321,-1.321,-1.321,-1.321,-1.321,-1.321,-1.321,-1.321,-1.321,-1.3239,-1.3232,-1.3514,-1.4019,-1.4463,-1.5172,-1.5646,-1.561,-1.577,-1.5814,-1.5814,-1.5814,-1.5814,-1.5814,-1.5814,-1.5814,-1.5814,-1.5814,-1.5814,-1.5814,-1.5814,-1.5814,-1.5814,-1.5814,-1.5814,-1.5814,-1.5814,-1.5814,-1.5814,-1.5814,-1.5814,-1.5814,-1.5814,-1.5814,-1.5835,-1.5906,-1.6011,-1.6116,-1.6274,-1.644,-1.6636,-1.7043,-1.7447,-1.7604,-1.7758,-1.7789,-1.7789,-1.7789,-1.7789,-1.7789,-1.7789,-1.7789,-1.7789,-1.7789,-1.7789,-1.7789,-1.7789,-1.7789,-1.7789,-1.7789,-1.7789,-1.7789,-1.7789,-1.7789,-1.7789,-1.7789,-1.7789,-1.7819,-1.79,-1.7992,-1.8091,-1.8208,-1.843,-1.8679,-1.8905,-1.9043,-1.9143,-1.923,-1.9259,-1.0322,-1.0322,-1.0322,-1.0157,-1.0005,-1.0201,-1.0322,-1.0322,-1.0322,-1.0322,-1.0322,-1.0322,-1.0322,-1.0322,-1.0577,-1.072,-1.0759,-1.0954,-1.0992,-1.1067,-1.1223,-1.1072,-1.133,-1.1695,-1.192,-1.2204,-1.2873,-1.321,-1.321,-1.321,-1.321,-1.321,-1.321,-1.321,-1.321,-1.321,-1.321,-1.321,-1.3357,-1.3742,-1.4278,-1.4859,-1.5202,-1.5225,-1.5544,-1.5683,-1.5814,-1.5814,-1.5814,-1.5814,-1.5814,-1.5814,-1.5814,-1.5814,-1.5814,-1.5814,-1.5814,-1.5814,-1.5814,-1.5814,-1.5814,-1.5814,-1.5814,-1.5814,-1.5814,-1.5814,-1.5814,-1.5814,-1.5814,-1.5814,-1.5885,-1.5955,-1.6088,-1.6219,-1.6482,-1.6704,-1.6969,-1.732,-1.7581,-1.7712,-1.7789,-1.7789,-1.7789,-1.7789,-1.7789,-1.7789,-1.7789,-1.7789,-1.7789,-1.7789,-1.7789,-1.7789,-1.7789,-1.7789,-1.7789,-1.7789,-1.7789,-1.7789,-1.7789,-1.7789,-1.7789,-1.7789,-1.7789,-1.7811,-1.7811,-1.7869,-1.7971,-1.8112,-1.833,-1.8595,-1.8825,-1.9044,-1.9119,-1.9198,-1.9243,-1.0162,-1.0205,-1.0283,-1.004,-0.9725,-1.0088,-1.0322,-1.0322,-1.0322,-1.0322,-1.0322,-1.0322,-1.0322,-1.0322,-1.0322,-1.0322,-1.0395,-1.0544,-1.0433,-1.0433,-1.0433,-1.0549,-1.0692,-1.0873,-1.1473,-1.2102,-1.2726,-1.306,-1.321,-1.321,-1.321,-1.321,-1.321,-1.321,-1.321,-1.321,-1.321,-1.3267,-1.3419,-1.3682,-1.4006,-1.4292,-1.4564,-1.4907,-1.5225,-1.5668,-1.577,-1.5814,-1.5814,-1.5814,-1.5814,-1.5814,-1.5814,-1.5814,-1.5814,-1.5814,-1.5814,-1.5814,-1.5814,-1.5814,-1.5814,-1.5814,-1.5814,-1.5814,-1.5814,-1.5814,-1.5814,-1.5814,-1.5814,-1.5835,-1.5906,-1.5983,-1.6108,-1.6375,-1.6633,-1.6934,-1.728,-1.7549,-1.7681,-1.7789,-1.7789,-1.7789,-1.7789,-1.7789,-1.7789,-1.7789,-1.7789,-1.7789,-1.7789,-1.7789,-1.7789,-1.7789,-1.7789,-1.7789,-1.7789,-1.7789,-1.7789,-1.7789,-1.7789,-1.7789,-1.7789,-1.7789,-1.7789,-1.7789,-1.7811,-1.7847,-1.7957,-1.8121,-1.833,-1.8519,-1.8807,-1.9027,-1.911,-1.9173,-1.9259,-0.9637,-0.9672,-1.0118,-1.0249,-1.0127,-1.0244,-1.0322,-1.0322,-1.0322,-1.0322,-1.0322,-1.0322,-1.0322,-1.0322,-1.0322,-1.0322,-1.0322,-1.0322,-1.0322,-1.0322,-1.0322,-1.0322,-1.0467,-1.0797,-1.1542,-1.2096,-1.2508,-1.2803,-1.306,-1.317,-1.321,-1.321,-1.321,-1.321,-1.321,-1.321,-1.321,-1.3267,-1.3267,-1.3431,-1.3615,-1.3993,-1.4627,-1.4876,-1.5036,-1.5411,-1.5639,-1.5785,-1.5814,-1.5814,-1.5814,-1.5814,-1.5814,-1.5814,-1.5814,-1.5814,-1.5814,-1.5814,-1.5814,-1.5814,-1.5814,-1.5814,-1.5814,-1.5814,-1.5814,-1.5814,-1.5814,-1.5814,-1.5814,-1.5814,-1.5856,-1.5906,-1.6032,-1.6429,-1.6738,-1.7134,-1.7487,-1.7612,-1.7712,-1.7766,-1.7789,-1.7789,-1.7789,-1.7789,-1.7789,-1.7789,-1.7789,-1.7789,-1.7789,-1.7789,-1.7789,-1.7789,-1.7789,-1.7789,-1.7789,-1.7789,-1.7789,-1.7789,-1.7789,-1.7789,-1.7789,-1.7789,-1.7789,-1.7789,-1.7825,-1.7869,-1.7992,-1.81,-1.8278,-1.8498,-1.8789,-1.9018,-1.9084,-1.909,-1.9113]}]]